[[[{"header":{"parameterUnit":"kt","parameterCategory":2,"dx":1,"dy":1,"la1":29.587661999999998,"la2":31.0,"lo1":-88.76705300000003,"lo2":-86.6583820000003,"nx":115,"ny":88,"refTime":"2022-09-19T12:00:00:Z","depth":0,"parameterNumber":1,"parameterNumberName":"U-component_of_WINDS"},"data":[6.348,6.3147,6.3285,6.3041,6.2518,6.2847,6.4354,6.6186,6.6601,6.7853,6.8871,6.9088,6.7259,6.3174,6.3223,6.2979,6.2763,6.2685,6.2913,6.3157,6.223,6.1484,6.0948,6.0413,5.9342,5.8895,5.8644,5.8361,5.9413,5.9176,5.9032,5.9926,5.9776,6.0021,6.0461,6.0614,6.097,6.1071,6.102,6.102,6.0715,5.9801,5.9496,5.909,5.909,5.909,5.9191,5.9344,5.9547,5.9605,5.9768,5.873,5.8353,5.8419,5.8284,5.8216,5.8773,5.8358,5.8282,5.8458,5.8346,5.8154,5.8167,5.8527,5.9244,5.9707,5.9713,6.0228,6.0122,5.7852,5.7679,5.7527,5.7807,5.8061,5.7972,5.8734,5.8927,5.9812,6.0795,6.1637,6.2769,6.3932,6.5001,6.5252,6.5319,6.5262,6.5205,6.5205,6.4681,6.4175,6.3375,6.2464,6.1434,6.0458,5.9939,5.8731,5.8547,5.869,5.8883,5.9246,5.9978,6.0918,6.1763,6.2326,6.2635,6.2865,6.2675,6.2839,6.2368,6.2088,6.2471,6.2912,6.3346,6.3602,6.3755,6.1449,6.1302,6.0522,5.9643,5.8813,5.8764,5.9651,6.0787,6.1621,6.2763,6.3628,6.1566,6.0023,5.9123,5.8819,5.8868,5.9008,5.9838,5.935,5.9204,5.9253,5.896,5.866,5.8264,5.7724,5.733,5.7143,5.7449,5.7549,5.7892,5.8135,5.9324,5.9915,6.0157,6.0258,6.0157,5.975,5.9547,5.9496,5.9852,5.8785,5.7515,5.5787,5.5127,5.5127,5.5228,5.533,5.5889,5.7159,5.7336,5.7039,5.5835,5.5274,5.5105,5.4822,5.4544,5.4977,5.4792,5.4221,5.4589,5.4681,5.4561,5.4332,5.4673,5.5687,5.5831,5.535,5.5635,5.6299,5.6023,5.644,5.6716,5.7129,5.7368,5.7215,5.7231,5.6974,5.6889,5.7457,5.8088,5.9133,6.0321,6.091,6.126,6.1376,6.1203,6.126,6.1317,6.1491,6.1262,6.1147,6.0397,5.9702,5.8945,5.8234,5.7818,5.7807,5.7874,5.7829,5.8372,5.9077,6.0303,6.1214,6.1682,6.1988,6.2128,6.2026,6.1516,6.1151,6.0722,6.1009,6.1164,6.1826,6.2518,6.2659,5.9455,5.931,5.9162,5.893,5.8535,5.8486,5.8732,5.9225,5.9669,5.9817,5.9423,5.908,5.8784,5.8635,5.8287,5.8383,5.8334,5.7987,5.7495,5.7691,5.813,5.7056,5.6372,5.5981,5.5642,5.4574,5.4421,5.4752,5.4769,5.5445,5.5822,5.6123,5.6919,5.7261,5.7362,5.7972,5.7972,5.7464,5.7261,5.6092,5.3907,5.3348,5.218,5.1977,5.2078,5.2078,5.218,5.2434,5.3196,5.3312,5.2495,5.1519,5.0748,5.1531,5.1351,5.1022,5.1185,5.1579,5.105,5.087,5.1082,5.0947,5.0883,5.1832,5.2659,5.1751,5.1284,5.1982,5.2624,5.3308,5.3715,5.4305,5.4841,5.5424,5.5454,5.5146,5.4867,5.4776,5.5099,5.5822,5.6925,5.8009,5.885,5.924,5.9124,5.9182,5.8893,5.9176,5.9061,5.8938,5.8829,5.854,5.8359,5.7818,5.6875,5.6569,5.6625,5.669,5.6691,5.7289,5.802,5.9412,6.0325,6.0179,6.0433,6.0753,6.0753,6.0241,5.9754,5.9435,5.9564,5.9749,6.0553,6.1422,6.1009,5.6546,5.6605,5.7105,5.7251,5.7343,5.7343,5.7392,5.769,5.7587,5.7082,5.6632,5.7132,5.7238,5.6889,5.6603,5.6267,5.6415,5.5828,5.6372,5.6079,5.5836,5.4703,5.4162,5.4212,5.3111,5.1883,5.1381,5.1956,5.1994,5.1957,5.2197,5.2763,5.345,5.4009,5.406,5.4517,5.4669,5.411,5.4292,5.3477,5.1797,5.0778,5.0645,5.0594,5.0952,5.1207,5.0747,5.0696,5.03,4.9659,4.7748,4.6077,4.4534,4.6735,4.7389,4.7285,4.8135,4.8679,4.8767,4.9198,4.908,4.8591,4.8607,4.9242,4.9285,4.821,4.7981,4.8613,4.9238,5.0037,5.0696,5.1219,5.1917,5.2688,5.3323,5.2985,5.2717,5.2837,5.2976,5.3965,5.5256,5.63,5.7277,5.7701,5.7527,5.7469,5.7469,5.7469,5.7643,5.6887,5.6841,5.6538,5.6525,5.6059,5.5476,5.5016,5.4575,5.4629,5.4875,5.584,5.697,5.7303,5.7385,5.7875,5.8598,5.8181,5.8101,5.8309,5.8454,5.8147,5.8228,5.8911,5.9764,6.0211,5.9467,5.19,5.1956,5.2232,5.2721,5.297,5.3119,5.3566,5.4299,5.3954,5.3747,5.3747,5.3584,5.3652,5.3903,5.3502,5.3318,5.3233,5.3147,5.2926,5.2335,5.2642,5.236,5.2139,5.2468,5.1438,5.0858,5.0544,5.0484,4.9637,4.9865,5.0515,5.033,5.1011,5.1519,5.1773,5.2129,5.1926,5.1542,5.1462,5.1637,5.0767,5.1318,5.2129,5.1199,5.1284,5.1645,5.1095,5.0769,5.0511,4.9241,4.7825,4.6384,4.4977,4.4944,4.5561,4.5849,4.6332,4.696,4.7457,4.7734,4.7513,4.7202,4.7122,4.7644,4.7334,4.6476,4.5797,4.6062,4.6819,4.7563,4.8393,4.9039,4.9757,5.0691,5.1265,5.1279,5.1233,5.1536,5.1837,5.2425,5.3646,5.5106,5.6168,5.6467,5.6453,5.7049,5.712,5.7003,5.6583,5.5168,5.4701,5.4117,5.3903,5.3413,5.3178,5.3355,5.2833,5.2732,5.287,5.3823,5.572,5.5499,5.4659,5.607,5.7632,5.6731,5.6691,5.6756,5.7232,5.7341,5.7999,5.8442,5.8663,5.9015,5.8603,4.7785,4.779,4.8291,4.8609,4.9023,5.0256,5.0174,4.9361,4.9152,4.965,5.0237,5.0209,5.059,5.1068,5.0992,5.0866,5.0739,5.0585,5.0329,5.0201,4.9846,4.9846,4.9589,4.9752,4.9639,4.9341,4.9086,4.9277,4.9116,4.9218,4.9731,4.9975,5.1011,5.1164,5.1062,5.0859,5.03,4.9318,4.8822,4.9004,4.9017,4.9184,4.9506,4.9092,4.9248,4.9351,4.904,4.8989,4.8413,4.7244,4.7658,4.6402,4.4664,4.4585,4.525,4.4629,4.5073,4.561,4.6104,4.6104,4.5702,4.5345,4.5256,4.5618,4.5167,4.4852,4.436,4.3915,4.4529,4.5271,4.6047,4.6862,4.77,4.8648,4.9114,4.969,5.0032,5.0245,5.0636,5.1061,5.2106,5.3599,5.4576,5.5084,5.5444,5.5343,5.5243,5.5243,5.4468,5.3472,5.2956,5.2696,5.202,5.1342,5.167,5.2113,5.2262,5.2544,5.2216,5.2906,5.4625,5.4998,5.4766,5.5509,5.6409,5.7632,5.8263,5.7546,5.6331,5.7699,5.8526,5.7845,5.7354,5.781,5.8033,4.4534,4.4582,4.5285,4.5614,4.5882,4.7622,4.7847,4.6727,4.635,4.6639,4.77,4.8076,4.8695,4.9118,4.9537,4.9464,4.9341,4.9168,4.8871,4.8771,4.8941,4.845,4.8548,4.8788,4.8249,4.805,4.8057,4.8151,4.8055,4.805,4.8603,4.9266,4.9436,4.9843,5.0046,5.0401,4.845,4.7041,4.6646,4.6704,4.6923,4.7084,4.7141,4.7141,4.7245,4.7923,4.8132,4.8341,4.8335,4.7194,4.7393,4.6352,4.4302,4.4166,4.4185,4.3467,4.3873,4.4185,4.4453,4.4542,4.4587,4.4497,4.356,4.3426,4.3248,4.3243,4.3198,4.2846,4.3141,4.3306,4.3766,4.4316,4.4893,4.6003,4.7045,4.7612,4.8515,4.8895,4.9376,4.9665,4.9769,5.1121,5.2041,5.2679,5.3472,5.2987,5.2812,5.2812,5.2474,5.2084,5.1699,5.1669,5.1246,5.0963,5.1097,5.1211,5.1741,5.2236,5.1939,5.2262,5.3271,5.4017,5.455,5.4562,5.4081,5.5762,5.8311,5.7364,5.5187,5.6717,5.8236,5.6912,5.6038,5.6935,5.7349,4.2129,4.2264,4.3609,4.4004,4.4225,4.4488,4.5823,4.762,4.655,4.6128,4.6337,4.7255,4.7236,4.7003,4.8722,4.8991,4.8105,4.8574,4.8524,4.8623,4.8007,4.788,4.8078,4.8524,4.7658,4.7369,4.7393,4.7442,4.6262,4.7076,4.7379,4.7426,4.7897,4.7556,4.6845,4.6398,4.5393,4.5199,4.5102,4.568,4.6361,4.5944,4.6312,4.6364,4.6364,4.7099,4.7834,4.8406,4.8833,4.864,4.7907,4.6292,4.4534,4.2569,4.188,4.1945,4.3203,4.3917,4.4408,4.4363,4.4185,4.3019,4.2258,4.1676,4.1542,4.198,4.2025,4.1855,4.2169,4.198,4.2025,4.2535,4.2955,4.3644,4.4847,4.5516,4.6453,4.7221,4.7788,4.8058,4.8205,4.9146,5.0085,5.079,5.1719,5.1929,5.2644,5.2585,5.3341,5.2678,5.2294,5.211,5.1376,5.0883,5.0364,5.0381,5.0926,5.1552,5.1308,5.1736,5.1431,5.1977,5.3419,5.3814,5.2435,5.284,5.5573,5.5653,5.4565,5.557,5.751,5.6928,5.774,5.7963,5.8585,4.0125,4.0125,4.0642,4.0857,4.0943,4.1636,4.2334,4.3035,4.3388,4.3605,4.3841,4.4133,4.4236,4.447,4.5014,4.5304,4.5906,4.6026,4.6194,4.672,4.6482,4.6305,4.6207,4.6145,4.6559,4.6145,4.6488,4.7075,4.6473,4.7504,4.8012,4.7916,4.7542,4.6427,4.5219,4.4723,4.4117,4.4429,4.4899,4.5577,4.6732,4.7154,4.7206,4.7261,4.7366,4.7788,4.8368,4.8616,4.8564,4.8892,4.8632,4.812,4.5816,4.4405,4.4586,4.2891,4.2757,4.1953,4.2132,4.2005,4.1605,4.096,4.1475,4.0965,4.0225,4.1327,4.1295,4.1172,4.206,4.216,4.2437,4.3333,4.3224,4.2147,4.2987,4.2863,4.3826,4.4921,4.5577,4.5891,4.6294,4.7925,4.9262,4.9674,5.0897,5.1789,5.2833,5.4124,5.515,5.4487,5.3932,5.3159,5.2402,5.1478,5.0737,5.0436,5.0585,5.0801,5.1344,5.1946,5.1817,5.2212,5.3002,5.3729,5.386,5.4125,5.4655,5.5166,5.5774,5.6544,5.7717,5.8738,5.9436,6.0299,6.1311,3.6803,3.6969,3.7761,3.8001,3.8076,3.8857,3.9505,3.9897,4.0623,4.1257,4.1766,4.2065,4.2043,4.2049,4.2406,4.286,4.3201,4.3179,4.367,4.4397,4.5118,4.4677,4.4842,4.5381,4.5852,4.5529,4.6367,4.7222,4.6679,4.7956,4.8769,4.8263,4.6842,4.6162,4.5606,4.5353,4.5147,4.5361,4.5996,4.6732,4.8149,4.8417,4.8364,4.8474,4.8421,4.9001,4.9951,5.0109,5.0283,5.0566,4.9846,4.8872,4.664,4.4944,4.5213,4.4006,4.3203,4.1819,4.1329,3.954,3.8921,3.8494,3.8877,3.9202,3.8285,4.0378,4.0409,3.9766,3.9596,3.9949,4.0742,4.136,4.1575,4.0736,4.1154,4.1045,4.1556,4.2699,4.345,4.3758,4.4613,4.6211,4.7472,4.7917,5.0863,5.2531,5.4306,5.5695,5.6783,5.6171,5.5776,5.4734,5.3592,5.2386,5.1353,5.1353,5.1422,5.2014,5.2401,5.2787,5.2983,5.318,5.3769,5.4095,5.5035,5.5906,5.52,5.4928,5.6187,5.8067,5.953,6.073,6.1065,6.1924,6.3036,3.2726,3.2981,3.5197,3.5818,3.5536,3.6366,3.7293,3.8318,3.8896,3.9557,4.0502,4.1101,4.0766,4.0118,4.136,4.1204,4.0893,4.1521,4.198,4.2755,4.3891,4.3764,4.4153,4.544,4.666,4.5897,4.6876,4.7269,4.6019,4.8178,4.8031,4.7355,4.7057,4.6976,4.8913,4.873,4.8138,4.7531,4.8695,4.8692,4.9001,4.8989,4.8989,4.9042,4.9154,4.9996,5.0943,5.1311,5.1526,5.1722,5.086,4.9255,4.7236,4.5708,4.5034,4.4408,4.414,4.3873,4.3652,4.0368,3.7984,3.6686,3.7221,3.7208,3.6336,3.6869,3.7907,3.7528,3.7212,3.7094,3.688,3.6965,3.7503,3.776,3.8998,3.9568,4.0365,4.1275,4.1557,4.1815,4.3004,4.4206,4.5315,4.7292,5.0907,5.3846,5.573,5.7091,5.812,5.8103,5.7839,5.6903,5.5758,5.472,5.3989,5.3126,5.285,5.3282,5.3854,5.4507,5.483,5.5465,5.5123,5.4208,5.5455,5.7291,5.6216,5.4938,5.7664,6.0376,6.1755,6.2619,6.2625,6.3149,6.4121,3.4376,3.455,3.5458,3.4534,3.2627,3.4962,3.6449,3.7144,3.7733,3.836,3.8414,3.9572,3.9417,3.9037,3.9949,3.994,3.9445,4.0298,4.0756,4.1846,4.3217,4.4395,4.4909,4.5881,4.7129,4.7014,4.7754,4.8378,4.74,4.9427,4.9282,4.8426,4.7796,4.7636,4.8597,4.8999,4.9125,4.9125,4.9773,5.004,5.1183,5.1121,5.1006,5.0479,5.0595,5.1222,5.1707,5.2111,5.2192,5.1767,5.1004,4.9476,4.7936,4.6605,4.6332,4.5702,4.5033,4.4096,4.3388,4.1375,3.8764,3.6307,3.644,3.5582,3.5284,3.6367,3.6355,3.5739,3.6313,3.7081,3.7086,3.6713,3.6629,3.5879,3.7101,3.7713,3.8459,3.9556,3.9842,4.0352,4.1496,4.2864,4.4625,4.7494,5.1349,5.4704,5.8059,6.1422,6.1592,6.1238,6.0607,5.9287,5.7855,5.7114,5.6679,5.6387,5.6081,5.6487,5.6645,5.6977,5.7448,5.8593,5.8629,5.7735,5.7768,5.8638,5.8717,5.8389,6.015,6.2411,6.364,6.4644,6.4778,6.5389,6.6067,3.1284,3.1701,3.1173,2.9491,2.7591,3.147,3.3386,3.3879,3.5236,3.6004,3.6345,3.692,3.6814,3.6665,3.7548,3.7757,3.7461,3.895,3.9238,4.038,4.2027,4.3422,4.4347,4.5263,4.6972,4.6597,4.7628,4.8238,4.7808,4.8875,4.9626,4.8715,4.6837,4.7177,4.8153,4.8945,5.0289,5.1078,5.2396,5.261,5.3394,5.3138,5.2895,5.2284,5.2406,5.2529,5.2651,5.2529,5.1926,5.1302,5.0713,4.9085,4.7424,4.7048,4.6537,4.5795,4.5138,4.4336,4.3472,4.0983,3.9005,3.6877,3.5657,3.4546,3.3063,3.4233,3.4389,3.4283,3.4019,3.4107,3.4637,3.5127,3.5657,3.5096,3.5058,3.5585,3.6527,3.7918,3.86,3.9752,4.0796,4.2096,4.4886,4.7869,5.1821,5.5925,6.1409,6.5623,6.5437,6.5115,6.3467,6.2004,5.9666,5.8521,5.8488,5.898,5.9411,5.9612,5.9787,5.9779,5.9863,6.1007,6.1553,6.1358,6.109,6.0855,6.0784,6.1295,6.1835,6.2636,6.4071,6.5862,6.7152,6.7985,6.8074,2.4507,2.4901,2.3016,2.189,2.1559,2.5858,2.795,2.8594,3.0655,3.2274,3.3249,3.3451,3.319,3.3601,3.4507,3.5146,3.4683,3.6637,3.7309,3.8558,4.0685,4.1222,4.2014,4.4042,4.6201,4.5258,4.6385,4.6431,4.5933,4.6834,4.5839,4.5115,4.4629,4.5414,4.6695,4.8372,5.0305,5.2963,5.468,5.498,5.4264,5.3913,5.3786,5.3761,5.3735,5.4017,5.4274,5.3196,5.1994,5.0665,4.9726,4.8351,4.6714,4.643,4.5718,4.4999,4.4286,4.3195,4.146,3.9261,3.8088,3.7288,3.5625,3.304,3.1739,3.1716,3.1812,3.2096,3.2068,3.1796,3.1599,3.1169,3.2654,3.3035,3.4044,3.4817,3.6067,3.7213,3.8297,3.92,4.0603,4.2273,4.4739,4.8433,5.2159,5.6282,6.169,6.5009,6.5732,6.7079,6.5606,6.4556,6.2054,6.0935,6.0898,6.1196,6.213,6.2476,6.2749,6.2646,6.2611,6.278,6.3453,6.3395,6.3514,6.2765,6.2312,6.366,6.4364,6.3755,6.4157,6.6169,6.7656,6.8581,6.907,1.7779,1.3308,1.3782,1.4616,1.5851,1.803,2.038,2.2923,2.3934,2.5809,2.7626,2.8193,2.9074,3.0421,3.2401,3.2898,3.2264,3.5254,3.5679,3.605,3.7398,3.8649,3.9483,4.1266,4.3154,4.2863,4.4328,4.4259,4.3662,4.2616,4.1242,4.0875,4.1133,4.2862,4.5086,4.678,4.8578,5.1894,5.3889,5.4426,5.3915,5.3399,5.3089,5.2799,5.2406,5.2274,5.2799,5.2093,5.1297,4.9951,4.8857,4.7374,4.5574,4.5143,4.4379,4.3318,4.2102,4.0875,3.7868,3.644,3.5024,3.3688,3.1938,3.1613,3.0664,3.1701,3.2242,3.1138,3.0738,3.1184,3.1695,3.1777,3.1902,3.2537,3.3521,3.4874,3.6195,3.7528,3.8662,3.9485,4.074,4.2449,4.508,4.8698,5.2589,5.6652,6.0201,6.3696,6.5924,6.8071,6.7791,6.8126,6.6131,6.5125,6.5238,6.5358,6.5095,6.5452,6.5627,6.5681,6.5794,6.5863,6.5666,6.5786,6.6044,6.5271,6.4046,6.5876,6.7396,6.6212,6.5582,6.7014,6.779,6.8898,6.9397,0.4206,0.0507,0.3727,0.5255,0.5757,0.9672,1.2572,1.4448,1.6004,1.788,1.9586,2.0978,2.2161,2.3746,2.7547,2.8766,2.9298,3.1434,3.2651,3.3167,3.4505,3.568,3.6023,3.7673,3.9186,3.956,4.046,4.0531,3.7905,3.6074,3.5594,3.6092,3.7016,3.8583,3.9448,4.2325,4.4728,4.6972,4.9888,5.1548,5.1812,5.1565,5.1466,5.1696,5.1479,5.1479,5.1612,5.103,5.0222,4.9269,4.7749,4.6386,4.5431,4.4089,4.2879,4.1509,3.8997,3.5697,3.2809,3.2685,3.2059,3.1009,3.052,2.9699,2.9473,2.9351,2.8995,2.9151,2.9231,2.9621,3.0087,3.0978,3.1722,3.2859,3.3754,3.5129,3.6473,3.7832,3.8922,3.9958,4.0971,4.2872,4.5155,4.8246,5.151,5.581,5.9741,6.2743,6.5238,6.7657,6.9071,6.975,6.8641,6.7821,6.7672,6.7743,6.6714,6.7031,6.7259,6.7575,6.8137,6.8294,6.795,6.7941,6.7566,6.6967,6.6237,6.6383,6.6261,6.6584,6.697,6.6873,6.6788,6.7955,6.8318,-1.2319,-1.2187,-0.7269,-0.5926,-0.6083,-0.0506,0.2706,0.3727,0.6608,0.8836,1.0159,1.2258,1.3647,1.4981,1.8495,2.1394,2.3537,2.5685,2.7415,2.8324,2.9901,3.0626,3.1232,3.2308,3.353,3.4185,3.4651,3.2465,2.9685,2.9074,2.9639,3.0815,3.161,3.2937,3.4562,3.7413,3.8736,3.9893,4.3813,4.6824,4.7891,4.8425,4.9143,4.984,5.0261,5.0444,5.0156,4.9448,4.8904,4.8073,4.6528,4.5718,4.5287,4.361,4.1618,3.7644,3.3181,2.8664,2.707,2.6408,2.598,2.587,2.6013,2.6881,2.5749,2.4692,2.5046,2.5372,2.5886,2.6737,2.7984,2.9016,3.0349,3.1684,3.3203,3.4863,3.632,3.7319,3.8554,3.9696,4.107,4.293,4.4628,4.7409,5.039,5.5027,5.9118,6.1731,6.4234,6.6647,6.8463,6.7398,6.6293,6.7002,6.7128,6.7599,6.7556,6.8317,6.8519,6.8687,6.881,6.8765,6.9048,6.8722,6.8437,6.7799,6.6952,6.603,6.5035,6.5392,6.6317,6.6398,6.61,6.6201,6.6691,-2.3057,-2.2408,-2.0065,-1.8555,-1.7207,-1.4347,-1.149,-0.8316,-0.5188,-0.2347,0.0335,0.2866,0.4408,0.5604,0.746,1.0337,1.442,1.8477,2.0321,2.1332,2.2715,2.3253,2.3746,2.522,2.6795,2.7066,2.7201,2.6097,2.232,2.2385,2.3253,2.4614,2.7165,2.8948,3.0307,3.2622,3.5954,3.7789,4.0195,4.142,4.2925,4.41,4.5348,4.6703,4.7432,4.8028,4.8197,4.7524,4.6914,4.621,4.5015,4.3131,4.14,4.0127,3.5938,2.9162,2.4251,2.1035,1.8879,1.7582,1.65,1.6549,1.5834,1.6433,1.7098,1.8712,2.0508,2.3628,2.3918,2.4225,2.4989,2.7083,2.8475,2.9956,3.1815,3.3891,3.5469,3.7181,3.8543,3.9138,4.1286,4.2597,4.3906,4.6374,4.7544,5.1745,5.5082,5.7904,6.0825,6.3786,6.6324,6.5247,6.5316,6.6229,6.6361,6.6628,6.6983,6.7642,6.803,6.8484,6.8788,6.8941,6.879,6.8448,6.8126,6.7371,6.734,6.6617,6.5796,6.5517,6.5879,6.5921,6.5573,6.5565,6.5431,-3.2507,-3.198,-2.9415,-2.8291,-2.7647,-2.4847,-2.1868,-1.9468,-1.6762,-1.3976,-1.117,-0.8532,-0.6388,-0.4395,-0.2875,0.1184,0.5757,0.9654,1.1874,1.3944,1.4827,1.5347,1.5653,1.6324,1.7995,1.8661,1.6594,1.4085,1.449,1.5882,1.7445,1.8824,2.0851,2.3034,2.5129,2.7385,2.9639,3.259,3.4873,3.6288,3.6443,3.9725,4.1797,4.3567,4.4744,4.5699,4.6069,4.5372,4.4719,4.4083,4.2596,4.06,3.7839,3.3869,2.7568,2.038,1.4152,1.0071,0.7853,0.6505,0.5755,0.5862,0.5922,0.6611,0.7921,0.9053,1.0055,1.1956,1.3619,1.6456,1.9208,2.178,2.44,2.6948,3.0466,3.3272,3.5257,3.7395,3.7068,3.6231,3.8193,4.0061,4.2084,4.3171,4.4932,4.7638,5.0879,5.3753,5.6671,6.0395,6.4457,6.4147,6.4921,6.514,6.4436,6.4701,6.5044,6.6072,6.6842,6.7624,6.8002,6.8024,6.7961,6.7075,6.6788,6.5903,6.5795,6.5681,6.5983,6.6056,6.5381,6.4829,6.4804,6.4613,6.4171,-4.054,-4.0748,-3.7122,-3.6486,-3.7181,-3.3985,-3.1964,-3.0543,-2.9099,-2.6619,-2.4302,-2.1327,-1.8536,-1.5906,-1.3257,-0.9068,-0.4863,-0.0843,0.2203,0.493,0.6993,0.7518,0.7688,0.8361,0.8523,0.8353,0.5642,0.4113,0.6349,0.8777,1.083,1.3595,1.4956,1.7021,1.9196,2.0891,2.3815,2.728,2.9959,3.1346,3.2036,3.4793,3.7797,4.0089,4.2914,4.4178,4.4361,4.377,4.3043,4.2264,4.0337,3.8422,3.5371,2.9124,2.0501,1.2005,0.5499,0.0,-0.5231,-0.6535,-0.5904,-0.4931,-0.514,-0.4413,-0.3855,-0.3246,-0.2427,-0.1275,0.1248,0.4836,0.9752,1.3214,1.7426,2.2231,2.6226,3.0835,3.3541,3.5689,3.6195,3.4705,3.5403,3.6796,3.7287,3.7984,3.966,4.2025,4.4038,4.5997,5.0986,5.6237,6.0005,6.1765,6.3312,6.269,6.1626,6.1582,6.2412,6.3301,6.4744,6.547,6.5969,6.6431,6.5626,6.3729,6.294,6.3079,6.3644,6.3952,6.4022,6.3714,6.3652,6.3506,6.2807,6.2027,6.177,-4.6668,-4.656,-4.5078,-4.4087,-4.3963,-4.4568,-4.3888,-4.3108,-4.2949,-3.99,-3.8583,-3.5303,-3.1068,-2.9269,-2.6728,-2.391,-1.8934,-1.3852,-0.8608,-0.5434,-0.2386,-0.0856,-0.0515,-0.0343,-0.1024,-0.5835,-0.5514,-0.3968,-0.1378,0.1208,0.4317,0.588,0.8442,1.2715,1.553,1.7445,2.1535,2.6434,2.8894,2.9493,3.0359,3.2021,3.455,3.7243,4.0602,4.2821,4.2848,4.2572,4.3013,4.3432,4.0652,3.661,3.2567,2.7543,2.0044,-0.0368,-0.2441,-0.9344,-1.8149,-2.1581,-2.1925,-2.1854,-2.0202,-1.9444,-1.8894,-1.7316,-1.5466,-1.2958,-1.0296,-0.6572,-0.1466,0.2313,0.6953,1.2191,1.859,2.4334,2.8245,3.103,3.0652,3.0518,2.9042,2.8309,2.9596,3.148,3.4027,3.5953,3.6398,3.8665,4.5613,5.1085,5.3429,5.5326,5.7373,5.7479,5.624,5.5967,5.8319,5.9781,6.1886,6.2496,6.2927,6.2221,6.0803,5.9519,5.9108,5.9529,5.989,6.0466,6.0812,6.1068,6.0852,6.0434,5.9981,5.9501,5.9109,-5.1886,-5.2543,-5.06,-5.0166,-5.0674,-5.096,-5.016,-4.8733,-4.8686,-4.6976,-4.38,-4.2382,-4.0086,-3.7577,-3.6811,-3.4777,-3.0947,-2.5941,-2.1061,-1.6016,-1.2089,-0.9956,-0.9326,-1.1139,-1.2439,-1.4405,-1.2401,-0.9489,-0.7068,-0.3968,-0.1212,0.1733,0.3285,0.9098,1.9046,2.0527,2.5399,3.334,3.6601,3.6551,3.719,3.8318,3.9044,3.7762,3.8103,3.981,3.9686,3.8735,3.9151,3.7469,2.9174,2.1336,1.9899,1.2206,0.212,-1.0578,-1.5213,-2.4564,-3.0756,-3.4789,-3.5254,-3.5002,-3.3798,-3.3169,-3.2129,-3.0685,-2.837,-2.627,-2.3156,-1.918,-1.3656,-1.0308,-0.8196,-0.2965,0.5882,1.3969,1.5324,1.0091,0.7727,1.504,1.7466,1.7359,1.9874,2.247,2.3507,1.6265,1.6715,2.7137,3.448,4.0165,4.3495,4.8619,5.0936,5.1932,5.0624,5.1236,5.3371,5.525,5.7038,5.7963,5.7638,5.6672,5.572,5.5211,5.4485,5.5028,5.5882,5.6672,5.7116,5.7536,5.7662,5.7133,5.68,5.6671,5.6399,-5.6331,-5.7462,-5.5132,-5.4893,-5.5782,-5.5681,-5.4588,-5.2912,-5.3574,-5.2199,-4.8919,-4.834,-4.7127,-4.5027,-4.4626,-4.3675,-4.1266,-3.7253,-3.3005,-2.6434,-2.2213,-1.97,-2.0545,-2.2017,-2.332,-2.1351,-1.7832,-1.4942,-1.2377,-0.9642,-0.6053,-0.3112,-0.1366,0.6885,2.0505,2.178,3.0104,4.331,4.3795,4.177,4.1586,4.1075,3.8762,3.5539,3.3688,3.3606,3.3478,3.1359,3.0591,2.7524,1.6895,0.9276,0.8828,0.0564,-0.926,-1.8139,-2.7663,-3.544,-4.2426,-4.5253,-4.6532,-4.6201,-4.5178,-4.4672,-4.3716,-4.2708,-4.1475,-3.936,-3.6649,-3.2339,-2.7201,-2.4853,-2.2071,-1.8096,-0.9382,-0.2158,-0.409,-1.154,-1.1028,-0.4976,-0.1813,-0.1844,-0.1928,0.4934,0.3406,-0.2522,0.2808,1.3985,2.1092,2.7192,3.3481,4.0843,4.3183,4.5194,4.4316,4.4879,4.698,4.8946,5.1076,5.2325,5.0831,4.9655,4.9405,4.9444,4.9633,5.0709,5.1551,5.2293,5.3024,5.3947,5.4468,5.4193,5.3921,5.388,5.3655,-5.9757,-5.9757,-5.854,-5.7759,-5.7703,-5.9698,-5.99,-5.9526,-6.033,-5.9789,-5.7788,-5.6541,-5.4745,-5.4607,-5.1767,-5.0916,-5.0631,-4.6063,-4.2145,-3.7362,-3.2272,-2.9366,-3.0656,-3.0714,-2.9158,-2.6924,-2.4121,-2.1788,-1.9457,-1.6143,-1.3254,-1.0258,-0.683,0.3057,1.7278,2.0262,2.6868,4.0196,4.0686,3.8639,3.8275,3.504,3.2576,3.0063,2.7618,2.4554,2.1847,1.9806,1.6346,1.0378,0.4749,0.1481,0.2955,0.1942,-0.8706,-2.3087,-2.9744,-3.758,-4.9101,-5.303,-5.4933,-5.5426,-5.4139,-5.3628,-5.3164,-5.2731,-5.1481,-4.8698,-4.7668,-4.4311,-4.0631,-3.7425,-3.4664,-3.1845,-2.7851,-2.826,-3.2734,-2.7834,-2.0749,-1.8461,-1.8553,-1.9124,-1.9872,-1.994,-1.9182,-1.9899,-1.5147,-0.3662,0.593,1.2361,2.0297,2.9721,3.48,3.7511,3.7961,3.83,4.0305,4.2112,4.4134,4.4352,4.2832,4.1804,4.2347,4.3458,4.4253,4.5333,4.6594,4.7677,4.8485,4.9394,5.0419,5.0746,5.0798,5.0364,5.1153,-6.0593,-6.1704,-6.0447,-6.0479,-6.1631,-6.3122,-6.3268,-6.2457,-6.2735,-6.1986,-6.0665,-5.937,-5.893,-5.9157,-5.8215,-5.7387,-5.6358,-5.3597,-4.9808,-4.5467,-4.0518,-3.8933,-3.9036,-3.7862,-3.5816,-3.353,-3.0549,-2.8351,-2.6198,-2.3723,-2.0711,-1.678,-0.6643,0.7436,2.2007,2.9283,3.9574,4.8372,4.5279,4.1084,3.9814,3.3689,2.9466,2.5783,2.0008,1.516,1.1514,0.9099,0.2633,-0.6971,-1.3324,-1.4776,-1.155,-1.5997,-2.3362,-3.0678,-3.6421,-4.2721,-5.2325,-5.6284,-5.8737,-6.068,-6.0848,-6.0053,-5.9506,-5.9305,-5.7904,-5.536,-5.4437,-5.292,-5.0562,-4.816,-4.6895,-4.6746,-4.9328,-5.275,-5.7295,-5.1585,-4.5684,-3.8834,-3.6015,-3.5966,-3.6184,-3.0446,-3.1421,-3.4285,-3.1721,-2.0515,-0.9258,-0.2621,0.5211,1.7195,2.4749,2.7409,2.8441,3.0639,3.2926,3.4337,3.5711,3.5402,3.3821,3.219,3.4159,3.6881,3.8387,3.9835,4.1236,4.2461,4.3559,4.4917,4.5908,4.6563,4.6704,4.6577,4.8087,-6.1989,-6.299,-6.1907,-6.2343,-6.3705,-6.4347,-6.4475,-6.4341,-6.3725,-6.3537,-6.3362,-6.2441,-6.2954,-6.3737,-6.367,-6.3132,-6.1659,-5.9421,-5.5638,-5.19,-4.9464,-4.7912,-4.6024,-4.3911,-4.1838,-3.9764,-3.6992,-3.4761,-3.2966,-3.0805,-2.8263,-2.4455,-1.2951,0.3602,2.2401,2.8049,4.0863,5.452,4.6991,3.9543,3.8053,3.079,2.4769,2.0395,1.263,0.6688,0.2516,-0.1521,-0.9749,-2.1911,-2.7462,-2.7462,-2.3831,-2.9352,-3.3632,-3.6569,-4.1865,-4.8193,-5.2736,-5.6403,-5.995,-6.339,-6.3577,-6.3934,-6.3296,-6.3345,-6.2116,-6.0034,-5.9716,-5.9262,-5.7796,-5.6246,-5.6844,-6.0052,-6.351,-6.7565,-6.8691,-6.8929,-6.5017,-5.5441,-5.2303,-5.1312,-4.9632,-4.5635,-4.381,-4.8514,-4.4728,-3.5097,-2.4942,-1.7099,-0.8723,0.3685,1.3603,1.6553,2.0026,2.2903,2.5083,2.6363,2.6555,2.6147,2.4858,2.4575,2.7703,3.0764,3.2946,3.5042,3.6423,3.7702,3.8867,4.0252,4.1677,4.3388,4.3291,4.3999,4.5617,-6.4741,-6.3537,-6.3088,-6.2817,-6.2728,-6.2927,-6.4344,-6.5844,-6.5355,-6.6447,-6.8293,-6.7424,-6.8078,-6.9072,-6.7352,-6.7021,-6.7572,-6.3443,-6.0426,-5.938,-5.802,-5.5247,-5.1469,-4.8797,-4.6503,-4.4452,-4.3144,-4.1769,-4.0113,-3.7916,-3.5428,-3.3327,-2.6281,-1.1848,1.0604,0.7678,2.1398,4.3705,3.3444,2.711,2.9485,2.0793,1.3892,0.9589,0.3426,-0.2154,-0.6816,-1.2122,-2.0067,-2.9442,-3.0559,-3.0729,-3.0695,-3.2849,-3.5756,-3.7048,-4.2494,-4.7292,-5.1342,-5.4925,-5.8963,-6.2492,-6.4066,-6.5073,-6.523,-6.6274,-6.6341,-6.392,-6.4546,-6.4663,-6.3418,-6.267,-6.3021,-6.4574,-6.9062,-7.1722,-7.1526,-6.9979,-6.79,-6.6227,-6.6077,-6.5007,-6.1924,-6.1089,-5.9284,-5.9326,-5.6556,-4.9129,-3.9988,-2.9803,-2.1597,-1.1385,-0.0,0.499,1.1486,1.4294,1.6618,1.7511,1.7539,1.6979,1.6117,1.8795,2.1967,2.5122,2.7845,3.0165,3.1904,3.3481,3.4756,3.6107,3.7831,3.9952,4.1145,4.2268,4.3561,-6.6067,-6.5422,-6.5052,-6.5379,-6.6181,-6.6406,-6.8049,-7.0172,-6.9097,-6.9464,-7.0625,-6.9448,-6.8861,-6.9005,-6.8175,-6.8009,-6.825,-6.6419,-6.513,-6.4731,-6.3392,-6.062,-5.7134,-5.503,-5.2689,-5.0341,-4.9862,-4.9076,-4.7236,-4.6166,-4.4859,-4.0646,-2.9085,-1.3804,-0.0383,0.635,1.4951,2.7613,2.0657,1.4707,1.3719,0.7283,0.1623,-0.1618,-0.85,-1.4211,-1.8161,-2.2696,-2.7522,-3.134,-3.3661,-3.4683,-3.5562,-3.7412,-3.8599,-3.9102,-4.1732,-4.4983,-4.7844,-5.1665,-5.5428,-5.9719,-6.3388,-6.5604,-6.6796,-6.9533,-6.9793,-6.8007,-6.8908,-6.9704,-6.8222,-6.8323,-6.9441,-7.0432,-7.2721,-7.3451,-7.3052,-7.1257,-6.9863,-6.872,-6.7364,-6.5502,-6.4136,-6.3254,-6.2244,-6.1238,-5.928,-5.486,-4.9283,-4.1454,-3.1303,-2.1007,-1.2107,-0.4748,0.2025,0.5596,0.808,0.8554,0.8786,0.8821,0.9595,1.2907,1.6205,1.938,2.2086,2.4145,2.7011,2.8688,3.0699,3.1987,3.3278,3.5706,3.8177,3.9524,4.0662,-6.7672,-6.656,-6.6908,-6.7229,-6.731,-6.849,-7.0431,-7.254,-7.1932,-7.2646,-7.3839,-7.2165,-7.1174,-7.0952,-6.9876,-6.9443,-6.9375,-6.8713,-6.8149,-6.7372,-6.6236,-6.3955,-6.1259,-5.9484,-5.7562,-5.559,-5.5561,-5.5026,-5.3855,-5.3731,-5.3149,-4.984,-3.7508,-2.3948,-0.9928,-0.3543,0.7875,1.6201,0.9852,0.4986,0.4139,-0.1942,-0.6458,-0.9267,-1.6533,-2.2238,-2.5374,-2.9108,-3.185,-3.3564,-3.5809,-3.7622,-3.8768,-4.0193,-4.0317,-3.9732,-4.1358,-4.3392,-4.5616,-4.8641,-5.2578,-5.7425,-6.1882,-6.4951,-6.7219,-7.0666,-7.1756,-7.0312,-7.1944,-7.306,-7.1767,-7.2394,-7.3612,-7.5638,-7.5775,-7.5511,-7.4458,-7.2851,-7.1209,-6.9583,-6.7658,-6.5991,-6.4681,-6.339,-6.3118,-6.2706,-6.0858,-5.7792,-5.3241,-4.7049,-3.9197,-2.897,-2.2233,-1.4466,-0.772,-0.2608,-0.0712,0.0142,0.1297,0.1903,0.4163,0.7151,1.0362,1.3344,1.5685,1.8346,2.1314,2.3838,2.6229,2.8062,3.0127,3.2309,3.4538,3.6004,3.7137,-6.9864,-6.7396,-6.8485,-6.758,-6.5786,-6.8103,-7.008,-7.2193,-7.3274,-7.5417,-7.7576,-7.6758,-7.5575,-7.565,-7.3346,-7.2614,-7.1983,-7.1086,-6.9832,-6.8434,-6.8126,-6.6584,-6.3685,-6.1889,-6.052,-5.9777,-5.9538,-5.9391,-5.922,-5.9447,-5.9228,-5.8283,-5.5177,-4.071,-1.5856,-2.2572,-1.407,0.508,0.23,-0.2854,-0.1649,-0.5722,-0.9959,-1.3199,-1.8859,-2.3521,-2.6617,-3.0262,-3.3271,-3.5678,-3.7277,-3.8598,-3.961,-4.0237,-4.0237,-4.0486,-4.1475,-4.2988,-4.5008,-4.7244,-5.1235,-5.664,-6.0497,-6.3742,-6.7039,-7.08,-7.2694,-7.1938,-7.3298,-7.4401,-7.3912,-7.4122,-7.5569,-7.8617,-7.7977,-7.7026,-7.5629,-7.4651,-7.3209,-7.0557,-6.8431,-6.8054,-6.7228,-6.4772,-6.3299,-6.3216,-6.2034,-5.9218,-5.4917,-5.0356,-4.3903,-3.5151,-2.7979,-2.113,-1.575,-1.0918,-0.9195,-0.7504,-0.5514,-0.2938,-0.0298,0.2695,0.6016,0.843,1.0952,1.3384,1.6398,1.8904,2.1407,2.4318,2.7335,2.9729,3.1774,3.3497,3.4255,-7.2834,-7.0687,-7.0658,-7.0178,-6.9689,-7.0645,-7.2246,-7.427,-7.5325,-7.6369,-7.7219,-7.6937,-7.6082,-7.4968,-7.3265,-7.2786,-7.3568,-7.4015,-7.3162,-7.152,-7.1934,-7.0407,-6.7591,-6.6319,-6.5477,-6.4747,-6.3867,-6.3385,-6.3465,-6.3417,-6.3516,-6.3273,-6.0482,-5.0379,-3.6473,-3.2282,-2.3777,-0.857,-0.6239,-0.758,-0.7874,-0.998,-1.2534,-1.587,-2.0548,-2.4247,-2.6437,-3.0041,-3.2817,-3.4474,-3.7148,-3.8979,-3.9484,-4.1105,-4.2406,-4.3171,-4.3603,-4.4441,-4.5739,-4.7014,-4.9862,-5.4836,-5.8954,-6.3346,-6.7967,-7.2215,-7.3963,-7.4258,-7.5645,-7.6556,-7.595,-7.6416,-7.7846,-7.8827,-7.685,-7.547,-7.6307,-7.3827,-7.1977,-7.0882,-6.8178,-6.5167,-6.3037,-6.0618,-5.9228,-5.8063,-5.7508,-5.6091,-5.3581,-5.0424,-4.5778,-3.6944,-3.2316,-2.651,-1.9381,-1.6117,-1.4872,-1.2292,-1.0043,-0.6669,-0.3754,-0.0749,0.2094,0.4181,0.6645,0.896,1.1403,1.3804,1.6654,1.9649,2.2713,2.5892,2.8459,3.0626,3.1713,-7.5423,-7.4059,-7.3428,-7.2466,-7.1877,-7.2977,-7.402,-7.5117,-7.6546,-7.7276,-7.7504,-7.707,-7.6309,-7.5294,-7.4091,-7.4112,-7.5022,-7.5236,-7.4762,-7.3897,-7.3783,-7.2805,-7.0751,-6.9691,-6.9017,-6.8667,-6.7104,-6.6293,-6.6272,-6.6357,-6.6756,-6.6649,-6.4178,-5.6119,-4.4562,-3.693,-2.7062,-1.4957,-1.0142,-0.9269,-1.1241,-1.2315,-1.3918,-1.676,-2.1401,-2.4434,-2.5458,-2.9783,-3.2612,-3.3867,-3.7107,-3.919,-4.0237,-4.1888,-4.3081,-4.3629,-4.4352,-4.5125,-4.5645,-4.6617,-4.9089,-5.3584,-5.7788,-6.2389,-6.7397,-7.1975,-7.4654,-7.4866,-7.6605,-7.674,-7.5639,-7.5697,-7.6696,-7.6913,-7.3959,-7.2328,-7.3724,-7.1426,-6.8783,-6.8882,-6.7581,-6.4895,-6.3239,-5.9809,-5.7384,-5.6651,-5.5979,-5.4906,-5.3143,-5.1067,-4.7254,-4.0032,-3.5617,-3.0922,-2.2307,-2.1171,-1.9385,-1.6502,-1.3609,-1.0003,-0.7268,-0.4367,-0.2832,-0.0842,0.1882,0.4435,0.7151,0.9613,1.2117,1.5082,1.8257,2.1442,2.4916,2.6875,2.8579,-7.7401,-7.7158,-7.642,-7.4061,-7.137,-7.4217,-7.5085,-7.4604,-7.6901,-7.8455,-7.8838,-7.783,-7.7121,-7.6819,-7.6343,-7.6424,-7.6357,-7.5174,-7.4789,-7.5079,-7.4083,-7.3653,-7.4086,-7.19,-7.1317,-7.1923,-6.9858,-6.8588,-6.85,-6.8733,-6.9212,-6.9324,-6.7631,-5.9608,-4.6152,-3.8798,-2.8536,-1.4837,-0.939,-0.8816,-1.1817,-1.258,-1.3801,-1.6564,-2.1333,-2.4097,-2.4992,-2.9419,-3.2993,-3.4777,-3.7324,-3.961,-4.1643,-4.2056,-4.2094,-4.215,-4.3952,-4.5075,-4.5161,-4.6114,-4.8763,-5.3299,-5.6805,-6.0897,-6.5557,-6.9667,-7.243,-7.4016,-7.535,-7.4898,-7.2156,-7.2321,-7.3281,-7.3597,-7.0106,-6.8954,-7.0944,-6.7241,-6.4655,-6.4698,-6.6047,-6.6067,-6.5631,-6.271,-5.9361,-5.841,-5.7658,-5.5857,-5.3614,-5.1558,-4.7685,-4.2385,-3.7735,-3.3432,-2.8224,-2.4557,-2.1247,-1.8312,-1.5717,-1.2808,-1.039,-0.8317,-0.7459,-0.5837,-0.2474,0.0562,0.2966,0.537,0.7744,1.0773,1.387,1.7453,2.1269,2.3298,2.5324,-7.676,-7.6317,-7.5663,-7.4349,-7.2846,-7.3615,-7.417,-7.4761,-7.5898,-7.7113,-7.8105,-7.7989,-7.7603,-7.6977,-7.6911,-7.6797,-7.691,-7.7123,-7.7135,-7.6988,-7.6722,-7.6442,-7.6082,-7.5036,-7.4959,-7.535,-7.394,-7.2889,-7.212,-7.0418,-6.9163,-6.8656,-6.6534,-5.9578,-4.8452,-3.8363,-2.7869,-1.6422,-0.8739,-0.6233,-0.8335,-0.8787,-1.1295,-1.6089,-1.9488,-2.2947,-2.6364,-3.055,-3.3646,-3.5548,-3.8133,-3.9987,-4.0654,-4.1688,-4.2342,-4.3088,-4.4977,-4.6521,-4.7108,-4.7337,-4.926,-5.3121,-5.4067,-5.7408,-6.3415,-6.5083,-6.7439,-7.1785,-7.1716,-6.9655,-6.7559,-6.9924,-7.1101,-6.9444,-6.5961,-6.4648,-6.6531,-6.2924,-6.0957,-6.3032,-6.3732,-6.3534,-6.055,-5.6981,-5.393,-5.3143,-5.2109,-5.114,-5.0234,-4.851,-4.5555,-4.1205,-3.7519,-3.3737,-3.0255,-2.6726,-2.3768,-2.0753,-1.7822,-1.5447,-1.3518,-1.0876,-0.936,-0.797,-0.5136,-0.2415,-0.0,0.0954,0.2686,0.6244,1.0063,1.4081,1.7752,2.0143,2.2561,-7.3218,-7.404,-7.3365,-7.2853,-7.2625,-7.2766,-7.3044,-7.3646,-7.4944,-7.6095,-7.6894,-7.6864,-7.6807,-7.6893,-7.6893,-7.6893,-7.6983,-7.7721,-7.7969,-7.7892,-7.7955,-7.7865,-7.755,-7.7096,-7.7205,-7.7657,-7.6574,-7.5631,-7.47,-7.1974,-6.9896,-6.8732,-6.5716,-5.9076,-4.8978,-3.8037,-2.691,-1.59,-0.7981,-0.3956,-0.4104,-0.4741,-0.7624,-1.2566,-1.6141,-2.0076,-2.4808,-2.9288,-3.2887,-3.5455,-3.8515,-4.0237,-4.0112,-4.1842,-4.3035,-4.3549,-4.5253,-4.6765,-4.7798,-4.8213,-4.9543,-5.2518,-5.3037,-5.5577,-6.1248,-6.1386,-6.2959,-6.7206,-6.5997,-6.4054,-6.3356,-6.5736,-6.7217,-6.5533,-6.2159,-6.0809,-6.3155,-5.9396,-5.6925,-5.8703,-5.9932,-5.9462,-5.6437,-5.4258,-5.2306,-5.0012,-4.9424,-4.9297,-4.8452,-4.6745,-4.4326,-4.1275,-3.7775,-3.4393,-3.1065,-2.7948,-2.5073,-2.2357,-1.9702,-1.7244,-1.5069,-1.2552,-1.0403,-0.9667,-0.6417,-0.385,-0.2462,-0.1465,-0.0,0.2275,0.6261,0.9758,1.4398,1.7427,1.9757,-6.8364,-7.0547,-7.0107,-7.0234,-7.1052,-7.1824,-7.1967,-7.183,-7.3881,-7.5115,-7.5301,-7.4926,-7.5425,-7.6418,-7.6517,-7.659,-7.6616,-7.7328,-7.7708,-7.7891,-7.8053,-7.836,-7.8546,-7.8326,-7.8446,-7.8577,-7.7763,-7.7219,-7.6828,-7.3982,-7.1393,-6.9209,-6.567,-5.868,-4.8271,-3.7539,-2.5979,-1.3963,-0.6825,-0.2145,0.0153,-0.109,-0.3928,-0.7721,-1.2152,-1.668,-2.1577,-2.6882,-3.1576,-3.4984,-3.8852,-4.0814,-4.0734,-4.2647,-4.3839,-4.3755,-4.5094,-4.6274,-4.7262,-4.8337,-4.9531,-5.1269,-5.2483,-5.4355,-5.7594,-5.8681,-5.9951,-6.1341,-6.014,-5.9802,-6.0051,-6.1222,-6.2206,-6.2269,-5.9113,-5.7606,-5.9244,-5.6423,-5.3557,-5.3013,-5.5509,-5.5782,-5.3656,-5.4058,-5.369,-5.0356,-4.9584,-4.8911,-4.7942,-4.65,-4.467,-4.2655,-3.9453,-3.5831,-3.2393,-2.8925,-2.6344,-2.398,-2.0691,-1.8311,-1.645,-1.3894,-1.1046,-1.043,-0.771,-0.5111,-0.3821,-0.2492,-0.0787,0.0529,0.2379,0.5043,1.0265,1.4323,1.69,-6.6381,-6.6903,-6.628,-6.7396,-6.9703,-7.1065,-7.1331,-7.1049,-7.2016,-7.2615,-7.2767,-7.3857,-7.4378,-7.4689,-7.5369,-7.5543,-7.5712,-7.6348,-7.7053,-7.7621,-7.8106,-7.8722,-7.9316,-7.9158,-7.9134,-7.9302,-7.9037,-7.8283,-7.7196,-7.6416,-7.4272,-7.0787,-6.6049,-5.8999,-4.9774,-3.8042,-2.6251,-1.4593,-0.5497,-0.0643,-0.0321,-0.0,-0.2063,-0.6579,-1.0374,-1.5186,-2.1737,-2.8243,-3.3345,-3.6769,-4.0725,-4.2814,-4.286,-4.3295,-4.4007,-4.4952,-4.5464,-4.5988,-4.6924,-4.7256,-4.8507,-5.1089,-4.954,-5.1175,-5.7005,-5.754,-5.7258,-5.7531,-6.0235,-6.0953,-5.8766,-6.0305,-6.1505,-5.9428,-5.7376,-5.6349,-5.5941,-5.4448,-5.2891,-5.1946,-5.2605,-5.3002,-5.1816,-5.1941,-5.1794,-5.0507,-4.9657,-4.8773,-4.7864,-4.6441,-4.5754,-4.4912,-4.2578,-3.8941,-3.6617,-3.234,-2.8991,-2.7486,-2.3317,-2.0302,-1.8635,-1.5535,-1.2855,-1.1346,-0.8738,-0.653,-0.513,-0.385,-0.2666,-0.1572,0.0261,0.2096,0.4935,0.9218,1.3065,-6.1826,-6.3266,-6.4036,-6.6051,-6.8933,-6.9898,-7.0116,-6.9732,-7.0463,-7.0947,-7.1351,-7.2473,-7.3254,-7.3732,-7.4134,-7.4392,-7.4519,-7.5353,-7.6289,-7.7219,-7.7856,-7.8749,-7.9651,-7.9468,-7.9436,-7.959,-7.9544,-7.912,-7.8307,-7.7425,-7.599,-7.383,-6.9551,-6.1464,-5.0031,-3.818,-2.6387,-1.487,-0.5838,-0.0499,0.0817,0.1775,0.0641,-0.272,-0.6468,-1.216,-1.9921,-2.6653,-3.2848,-3.8473,-4.2387,-4.4386,-4.4268,-4.502,-4.543,-4.5424,-4.6587,-4.7485,-4.7914,-4.9134,-5.0941,-5.3019,-5.1864,-5.287,-5.7092,-5.6608,-5.6058,-5.6104,-5.8241,-5.9095,-5.7657,-5.8692,-5.9208,-5.7992,-5.6567,-5.5569,-5.5137,-5.4371,-5.352,-5.2466,-5.2397,-5.2069,-5.1074,-5.0944,-5.0737,-5.0379,-4.9866,-4.9235,-4.8634,-4.6622,-4.5204,-4.5071,-4.2655,-3.9829,-3.7091,-3.3049,-2.9698,-2.7819,-2.3793,-2.0835,-1.9299,-1.6606,-1.388,-1.2317,-0.9778,-0.7676,-0.6421,-0.4586,-0.3357,-0.2502,-0.1176,0.0392,0.1568,0.5021,0.8847,-5.7186,-5.9648,-6.2124,-6.4933,-6.7847,-6.8345,-6.8609,-6.8738,-6.9265,-6.9882,-7.0639,-7.1419,-7.2322,-7.3115,-7.3254,-7.3324,-7.346,-7.4556,-7.5562,-7.6689,-7.755,-7.8524,-7.965,-7.9438,-7.947,-7.97,-7.962,-7.9575,-7.95,-7.7981,-7.7026,-7.64,-7.3912,-6.5903,-5.2538,-3.9736,-2.7529,-1.6081,-0.742,-0.1522,0.1798,0.3093,0.2901,0.1419,-0.2613,-0.8969,-1.7368,-2.4023,-3.129,-3.9313,-4.3128,-4.5069,-4.5252,-4.6439,-4.6731,-4.593,-4.7931,-4.9241,-4.9052,-5.1631,-5.3801,-5.4907,-5.5456,-5.614,-5.7109,-5.6747,-5.676,-5.7647,-5.755,-5.7247,-5.7923,-5.7304,-5.6952,-5.7283,-5.6247,-5.5493,-5.568,-5.5224,-5.4325,-5.3011,-5.2996,-5.2416,-5.0841,-5.045,-5.0379,-5.0165,-4.9584,-4.9297,-4.8511,-4.6812,-4.4876,-4.3858,-4.1792,-3.9231,-3.6923,-3.2659,-2.9323,-2.695,-2.348,-2.025,-1.8979,-1.6385,-1.4156,-1.3158,-1.0364,-0.8322,-0.7327,-0.4773,-0.3652,-0.3817,-0.2483,-0.0784,-0.0,0.2394,0.5057,-5.628,-5.5863,-5.8823,-6.1823,-6.4603,-6.5118,-6.7044,-6.9864,0.0,0.0,0.0,-7.1409,-7.2098,-7.2322,-7.3115,-7.3461,-7.353,-7.4264,-7.5225,-7.6322,-7.723,-7.8344,-7.9508,-7.9728,-7.9727,-7.9712,-7.9804,-7.9696,-7.9485,-7.9276,-7.8297,-7.6776,-7.6517,-7.3291,-6.6125,-4.7586,-3.2301,-2.129,-1.0514,-0.3603,-0.1141,0.1121,0.2219,0.2368,-0.2306,-0.8244,-1.5576,-2.2265,-2.9475,-3.72,-3.9826,-4.2501,-4.5594,-4.5642,-4.6256,-4.7573,-4.7996,-4.8192,-4.8398,-5.063,-5.1851,-5.144,-5.3416,-5.6348,-6.0181,-6.1175,-6.2073,-6.3049,-6.3295,-6.2461,-6.0483,-5.8534,-5.7515,-5.7607,-5.613,-5.5132,-5.5397,-5.5229,-5.4121,-5.1972,-5.2473,-5.1983,-4.9412,-4.9447,-4.9866,-4.973,-4.8925,-4.7985,-4.7547,-4.6812,-4.6106,-4.5261,-4.2611,-4.0423,-3.838,-3.3586,-2.9491,-2.7703,-2.381,-2.0609,-1.9203,-1.6452,-1.4043,-1.2898,-1.035,-0.8335,-0.739,-0.5946,-0.5388,-0.5676,-0.4837,-0.3662,-0.2099,-0.0,0.2785,-5.8485,0.0,-6.0979,-6.3526,0.0,-6.7043,-6.8387,-6.9543,-6.8135,-6.7926,-6.856,-7.02,-7.0867,-7.0947,-7.1803,-7.2248,-7.2464,-7.3393,-7.4526,-7.5717,-7.7,-7.8269,-7.9476,-7.9797,-7.9879,-7.9804,-7.988,-7.9868,-7.9703,-7.9615,-7.9059,-7.8094,-7.707,-7.471,-7.0549,-5.4728,-3.6798,-1.7345,-1.0909,-0.6074,-0.2768,-0.0797,0.0473,0.1104,-0.2462,0.0,0.0,0.0,0.0,0.0,0.0,0.0,0.0,0.0,0.0,-4.5046,-4.7735,-4.9029,-4.8844,-5.2455,-5.4258,-5.2944,-5.4398,-5.7069,-6.1172,-6.354,-6.4365,-6.3346,-6.468,-6.4736,-6.2461,-5.9986,-5.8125,-5.6918,-5.5188,-5.439,-5.5186,-5.5112,-5.4052,-5.2219,-5.2674,-5.2149,-4.8652,-4.8925,-4.9287,-4.9137,-4.8314,-4.739,-4.6061,-4.5019,-4.4275,-4.4086,-4.1613,-3.927,-3.7799,-3.2454,-2.7676,-2.6164,-2.2505,-1.9183,-1.7694,-1.5359,-1.3397,-1.2315,-0.9993,-0.8155,-0.7506,-0.6443,-0.5433,-0.5314,-0.476,-0.3922,-0.3441,-0.1912,0.0456,-6.1612,-6.1419,-6.4288,-6.6336,-6.756,-6.9642,-6.9949,-6.8761,-6.7182,-6.6866,-6.7434,-6.8477,-6.9061,-6.9399,-7.0046,-7.0585,-7.0981,-7.1853,-7.3001,-7.4598,-7.5275,-7.6824,-7.9189,-7.9032,-7.9265,-7.9852,-7.9868,-7.9799,-7.9727,-7.9257,-7.8941,-7.8486,-7.2615,-6.8249,-6.47,0.0,0.0,0.0,-0.9948,-0.7826,-0.418,-0.2999,-0.1874,-0.0782,-0.3377,0.0,-1.216,-1.5756,-2.0531,-2.6328,-2.8324,0.0,0.0,0.0,0.0,0.0,0.0,0.0,0.0,0.0,0.0,0.0,-4.988,-4.7697,-5.1096,-5.6914,-6.086,-6.2026,-6.4389,-6.5019,-6.2826,-6.0722,-5.8569,-5.5965,-5.4463,-5.3987,-5.4634,-5.4477,-5.3644,-5.1887,-5.2359,-5.1413,-4.8051,-4.8009,-4.8228,-4.769,-4.7287,-4.5583,-4.2225,-4.0202,-3.9793,-4.0375,-3.9197,-3.7458,-3.6003,-3.0526,-2.5858,-2.3491,-2.0224,-1.7178,-1.5158,-1.3694,-1.2409,-1.148,-0.9574,-0.7987,-0.7613,-0.6356,-0.5453,-0.4959,-0.4484,-0.384,-0.3565,-0.2983,-0.11,-6.4144,-6.3123,-6.6067,-6.7365,-6.756,-6.9642,-6.9543,-6.777,-6.7306,-6.7182,-6.7087,-6.657,-6.6864,-6.7773,-6.8102,-6.8585,-6.9211,-6.8665,-6.9773,-7.1917,-6.9486,-7.1883,-7.8348,-7.6451,-7.6991,-7.9802,-7.9804,-7.9484,-7.9022,-7.7818,-7.677,-7.4947,-5.6844,-4.6426,-4.315,-1.7075,-0.4334,-0.5933,-0.7748,-0.7977,-0.6281,-0.6102,-0.5323,-0.38,-0.5457,-0.843,-1.2818,-1.4187,-1.7396,-2.248,-2.185,-2.3944,-2.9725,-2.7354,-2.9747,0.0,-4.1392,0.0,0.0,0.0,0.0,0.0,0.0,0.0,0.0,-2.8357,-4.4828,-6.1652,-6.3983,-6.3078,-5.9429,-5.9817,-5.8632,-5.5035,-5.5445,-5.5189,-5.2941,-5.2622,-5.1578,-4.8762,-4.8762,-4.8275,-4.5876,-4.5548,-4.5492,-4.5143,-4.3745,-3.9697,-3.3535,-3.2504,-3.3543,-3.5138,-3.6394,-3.5588,-3.2813,-2.8504,-2.4198,-2.1187,-1.8302,-1.5758,-1.2973,-1.1336,-1.024,-0.9742,-0.8574,-0.759,-0.7464,-0.6645,-0.6074,-0.5732,-0.5569,-0.4598,-0.2817,-0.2136,-0.0684,-6.7854,-6.7095,-6.8397,-6.8323,-6.7279,-6.7669,-6.7079,-6.5713,-6.5091,-6.47,-6.4453,-6.4117,-6.502,-6.6773,-6.726,-6.7126,-6.6796,-6.7133,-6.7916,-6.8787,-6.7679,-7.0153,-7.5726,-7.4208,-7.4784,-7.7142,-7.7073,-7.6689,-7.5407,-6.4883,-5.8574,-5.6095,-3.6076,-1.8635,-0.3712,1.7114,2.3404,1.4474,0.8309,0.1487,-0.5584,-0.7286,-0.7437,-0.6371,-0.7135,-0.8476,-1.0247,-0.9488,-0.9787,-1.1442,-0.8624,-0.788,-0.9886,-0.8184,-0.8386,0.0,0.0,0.0,0.0,0.0,0.0,0.0,0.0,0.0,0.0,0.0,-2.4759,-3.8668,-5.0426,-5.8039,-6.0205,-6.2252,-6.1121,-5.5454,-5.6614,-5.6433,-5.2769,-5.2852,-5.1163,-4.618,-4.6426,-4.5832,-4.2944,-4.2044,-4.1347,-4.0501,-3.4033,-2.7235,-2.2142,-2.1646,-2.3887,-2.7486,-2.9485,-3.0137,-2.9883,-2.6297,-2.2609,-1.9359,-1.6483,-1.3855,-1.161,-0.9954,-0.8483,-0.7717,-0.7133,-0.6675,-0.6375,-0.6017,-0.5779,-0.5485,-0.5266,-0.4653,-0.3574,-0.3053,-0.1751,-6.9853,-6.9566,-6.9712,-6.8743,-6.7075,-6.619,-6.519,-6.4193,-6.3341,-6.2991,-6.2927,-6.2718,-6.3402,-6.4625,-6.4685,-6.4461,-6.3887,-6.4461,-6.5029,-6.5448,-6.4887,-6.768,-7.2859,-7.1753,-7.25,-7.4859,-7.488,-7.2224,-6.6676,-5.1739,-4.1011,-3.3679,-0.8637,1.3716,3.2443,4.4891,4.471,3.1853,2.4781,1.3719,-0.1337,-0.6166,-0.8308,-0.7899,-0.8467,-0.8627,-0.8665,-0.5747,-0.2406,0.0898,0.4495,0.7644,1.0256,1.0349,0.0,0.0,0.0,0.0,0.0,0.0,0.0,0.0,0.0,0.3834,0.4346,0.0,-0.3689,0.0,-3.0365,-4.342,-4.7339,-5.0741,0.0,0.0,-4.6129,-4.7829,-4.6868,-4.7828,-4.7548,-4.4843,-4.4725,-4.3591,-4.0169,-3.8335,-3.5334,-2.9388,-1.8497,-1.0295,-0.8358,-0.9387,-1.2879,-1.8419,-2.1632,-2.3634,-2.5066,-2.3751,-2.1567,-1.8754,-1.5825,-1.325,-1.1634,-0.9473,-0.7613,-0.6683,-0.6179,-0.5765,-0.5433,-0.5351,-0.5241,-0.4912,-0.4767,-0.4633,-0.4622,-0.4077,-0.278,-6.8606,-6.8267,-6.9132,-6.8528,-6.7226,-6.6357,-6.5439,-6.4526,-6.4025,-6.4044,-6.4296,-6.3585,-6.1957,-5.9809,-5.8595,0.0,-6.075,-5.8932,-5.952,-6.1835,-5.8672,-6.202,-7.0397,-6.8733,-7.0372,-7.5019,-7.479,-6.5806,-4.9379,-4.3141,-3.1869,-1.404,2.9001,5.1993,5.4722,5.9808,5.4119,3.7259,3.6308,2.7033,0.8856,-0.102,-0.6661,-0.7882,-0.8624,-0.9521,-1.0789,-0.4965,0.2971,1.2502,1.4348,1.7901,2.4079,0.0,0.0,0.0,0.0,0.0,0.0,0.0,0.0,0.0,0.0,0.0,0.0,0.0,0.0,1.2671,-0.3985,0.0,-0.7208,-1.1672,0.0,0.0,0.0,-2.0867,-2.9189,-3.2198,-3.7015,-4.5829,0.0,0.0,-3.8568,-3.4832,-2.6067,-0.8769,0.3311,1.0017,0.8796,0.3413,-0.2643,-0.8371,-1.3842,-1.78,-1.9094,-2.0841,-2.1146,-1.9815,-1.756,-1.5496,-1.3816,-1.0677,-0.8118,-0.7513,-0.616,-0.5117,-0.4801,-0.4817,-0.4688,-0.4672,-0.4878,-0.4748,-0.3986,-0.3797,-0.2892,-6.7462,-6.4217,-6.4539,-6.4823,-6.4776,-6.3039,-6.2938,-6.3878,-6.2444,-6.1431,-6.059,-5.4087,-4.9811,-4.7045,-4.2046,0.0,0.0,0.0,-5.7261,-5.9556,-5.6886,-6.0536,-6.8789,-6.6956,-6.7998,-7.145,-6.2877,-5.2632,-4.1139,-1.8987,0.286,2.4564,0.0,0.0,5.682,6.0599,5.7244,4.6996,4.4054,3.5342,2.0359,1.0211,0.2149,-0.3844,-0.381,-0.3831,-0.3628,0.1944,0.8538,1.5875,2.2246,2.8374,0.0,0.0,0.0,0.0,0.0,0.0,0.0,0.0,0.0,0.0,0.0,5.2202,4.8918,0.0,0.0,0.0,1.7343,0.5145,-0.2983,-0.6738,0.0,0.0,0.0,0.0,0.0,0.0,0.0,-2.4116,-2.8526,-3.1187,-3.0269,-1.6007,-0.1063,1.1242,1.7945,2.1739,2.2249,0.0,1.257,0.6579,0.1031,-0.41,-0.8111,-1.2355,-1.6877,-2.1235,-1.9815,-1.7404,-1.6042,-1.3174,-1.0594,-0.8857,-0.7335,-0.5928,-0.4752,-0.5743,-0.6302,-0.5115,-0.4623,-0.4408,-0.4265,-0.2978,-0.2065,-5.7172,0.0,0.0,0.0,0.0,-5.8494,-6.0891,-6.2761,-6.1199,-5.8106,-5.3363,-4.6264,0.0,0.0,0.0,0.0,0.0,0.0,-4.7327,-4.945,-4.7465,-5.0315,-5.7005,-5.5284,-5.5525,-5.727,-4.6365,-3.5205,-2.305,0.686,3.1161,4.9441,0.0,0.0,0.0,0.0,5.8623,5.3274,4.9936,4.2503,3.0573,2.1468,1.2458,0.3835,0.3531,0.455,0.6977,1.218,1.7944,2.3848,3.1668,0.0,0.0,0.0,0.0,0.0,0.0,0.0,0.0,0.0,0.0,0.0,0.0,0.0,0.0,0.0,0.0,0.0,0.0,0.0,1.2276,1.0041,1.0198,0.0,0.0,0.0,0.0,0.0,0.0,0.0,0.0,0.0,-1.2972,0.5688,2.1375,0.0,0.0,3.5731,3.6441,3.282,2.8094,2.2355,1.7761,0.0,0.814,0.1611,-0.6104,-1.6025,-1.8096,-1.8893,-2.0277,-1.7475,-1.4274,-1.189,-0.9664,-0.7788,-0.6626,-0.6948,-0.6652,-0.4954,-0.3684,-0.298,-0.2507,-0.0978,-0.0,0.0,0.0,0.0,0.0,0.0,0.0,0.0,0.0,-6.0467,-5.34,0.0,-4.2062,0.0,0.0,0.0,0.0,0.0,-2.4893,0.0,0.0,-2.7223,-2.7418,-3.0073,-3.0274,-2.9535,-2.8314,-2.5675,-1.299,0.8742,3.1166,0.0,0.0,0.0,0.0,0.0,0.0,5.8574,5.4565,5.4019,4.9054,3.926,3.1339,2.3593,1.5968,1.3591,1.5139,2.0857,2.5609,3.2015,4.0153,4.3045,0.0,0.0,0.0,0.0,0.0,0.0,0.0,0.0,0.0,0.0,0.0,0.0,0.0,0.0,0.0,0.0,0.0,0.0,0.0,0.0,4.9474,0.0,0.0,0.0,0.0,0.0,0.0,0.0,0.0,0.0,0.0,1.5423,2.7919,3.7301,4.0743,0.0,0.0,0.0,0.0,4.2685,3.7842,3.5552,3.2925,2.9595,2.13,1.1236,-0.0768,0.0,0.0,-2.6617,-2.3503,-1.9229,-1.6778,-1.3315,-1.0625,-0.982,-0.6672,-0.4709,-0.2966,-0.0732,0.0154,0.2288,0.4228,0.4107,0.0,0.0,0.0,0.0,0.0,0.0,0.0,0.0,0.0,-2.9727,-2.4611,-1.8416,0.0,0.0,0.0,0.0,0.0,0.0,0.0,0.0,-1.7266,-1.857,-2.3983,-2.1386,-2.085,0.0,-0.9818,0.7259,0.0,0.0,0.0,0.0,0.0,0.0,0.0,0.0,5.7179,5.8588,5.7744,5.4046,4.7326,3.9626,3.275,2.6897,2.367,2.3522,2.6601,3.2562,3.7575,0.0,0.0,0.0,0.0,0.0,0.0,0.0,0.0,0.0,0.0,0.0,0.0,0.0,0.0,0.0,0.0,0.0,0.0,0.0,0.0,0.0,0.0,0.0,5.4587,0.0,0.0,0.0,0.0,0.0,0.0,0.0,0.0,0.0,3.5519,4.2928,4.7761,5.0236,5.5683,5.8667,5.6596,0.0,0.0,0.0,0.0,0.0,0.0,0.0,2.454,1.507,0.1462,-0.9955,-1.5437,-2.2692,-2.6685,-2.356,0.0,0.0,0.7371,1.1741,1.3611,1.5513,1.8626,2.0382,1.8452,2.0769,2.0938,0.0,0.0,0.0,0.0,0.0,0.0,0.0,0.0,0.0,-1.1414,-0.6643,0.0,0.0,0.0,0.0,0.0,0.0,0.0,0.0,0.0,0.0,0.0,-0.7843,-0.5038,0.0,0.0,0.0,0.0,0.0,0.0,0.0,0.0,0.0,0.0,0.0,0.0,5.5285,5.9668,5.9944,5.7905,5.371,4.7196,4.15,3.6768,3.3643,3.3034,3.5499,0.0,0.0,0.0,0.0,0.0,0.0,0.0,0.0,0.0,0.0,0.0,0.0,0.0,0.0,0.0,0.0,0.0,0.0,0.0,0.0,0.0,0.0,0.0,0.0,0.0,5.6901,0.0,0.0,0.0,0.0,0.0,0.0,0.0,0.0,0.0,0.0,0.0,5.4387,5.7154,6.1133,6.3573,6.2859,6.3791,6.4483,0.0,0.0,0.0,0.0,0.0,0.0,0.0,0.0,0.0,0.0,0.0,0.0,0.0,0.0,0.1013,1.762,2.1898,2.3718,2.589,0.0,0.0,0.0,0.0,0.0,0.0,0.0,0.0,0.0,0.0,0.0,0.0,0.0,0.0,0.0,1.1183,0.0,0.0,2.718,0.0,0.0,0.0,0.0,0.0,0.0,0.0,0.0,0.0,0.0,0.0,0.0,0.0,0.0,0.0,0.0,0.0,0.0,0.0,0.0,0.0,0.0,5.3175,5.7477,6.042,6.0665,5.7931,5.3795,4.9607,4.5701,4.3237,4.38,4.7716,0.0,0.0,0.0,0.0,0.0,0.0,0.0,0.0,0.0,0.0,0.0,0.0,0.0,0.0,0.0,0.0,0.0,0.0,0.0,0.0,0.0,0.0,0.0,0.0,0.0,0.0,6.0017,6.1032,6.0863,0.0,0.0,0.0,0.0,0.0,0.0,0.0,0.0,0.0,0.0,6.5816,6.9319,7.1222,7.5238,7.7373,7.6688,8.0031,8.239,8.1291,7.4313,6.6204,0.0,0.0,0.0,0.0,0.0,0.0,0.0,0.0,0.0,0.0,0.0,0.0,0.0,0.0,0.0,0.0,0.0,0.0,0.0,0.0,0.0,0.0,0.0,0.0,0.0,0.0,0.0,0.0,0.0,0.0,0.0,0.0,0.0,0.0,0.0,0.0,0.0,0.0,0.0,0.0,0.0,0.0,0.0,0.0,0.0,0.0,0.0,0.0,0.0,0.0,0.0,0.0,0.0,0.0,5.2345,5.6843,5.8689,5.963,5.9695,5.6308,5.3814,5.2472,5.0482,5.1183,0.0,0.0,0.0,0.0,0.0,0.0,0.0,0.0,0.0,0.0,0.0,0.0,0.0,0.0,0.0,0.0,0.0,0.0,0.0,0.0,0.0,0.0,0.0,0.0,0.0,0.0,0.0,0.0,6.1776,6.2759,6.0697,0.0,0.0,0.0,0.0,0.0,0.0,0.0,0.0,0.0,0.0,7.137,7.4527,7.8241,8.0746,8.103,8.1922,8.2326,8.1376,7.7078,7.2087,6.6997,0.0,0.0,0.0,0.0,0.0,0.0,0.0,0.0,0.0,0.0,0.0,0.0,0.0,0.0,0.0,0.0,0.0,0.0,0.0,0.0,0.0,0.0,0.0,0.0,0.0,0.0,0.0,0.0,0.0,0.0,0.0,0.0,0.0,0.0,0.0,0.0,0.0,0.0,0.0,0.0,0.0,0.0,0.0,0.0,0.0,0.0,0.0,0.0,0.0,0.0,0.0,0.0,0.0,5.0444,5.5021,5.7236,5.9062,6.0337,5.8993,5.8177,5.7938,5.6988,5.7147,0.0,0.0,0.0,0.0,0.0,0.0,0.0,0.0,0.0,0.0,0.0,0.0,0.0,0.0,0.0,0.0,0.0,0.0,0.0,0.0,0.0,0.0,0.0,0.0,0.0,0.0,0.0,0.0,6.0473,6.1184,5.9767,0.0,0.0,0.0,0.0,0.0,0.0,0.0,0.0,0.0,0.0,7.2801,7.5685,7.9728,0.0,0.0,8.3735,8.3779,8.2692,8.0087,7.7616,7.6266,6.5236,0.0,0.0,0.0,0.0,0.0,0.0,0.0,0.0,0.0,0.0,0.0,0.0,0.0,0.0,0.0,0.0,0.0,0.0,0.0,0.0,0.0,0.0,0.0,0.0,0.0,0.0,0.0,0.0,0.0,0.0,0.0,0.0,0.0,0.0,0.0,0.0,0.0,0.0,0.0,0.0,0.0,0.0,0.0,0.0,0.0,0.0,0.0,0.0,0.0,0.0,0.0,0.0,4.7805,5.2386,5.5879,5.8402,6.0227,6.1487,6.2148,6.2153,6.2381,6.1573,0.0,0.0,0.0,0.0,0.0,0.0,0.0,0.0,0.0,0.0,0.0,0.0,0.0,0.0,0.0,0.0,0.0,0.0,0.0,0.0,0.0,0.0,0.0,0.0,0.0,0.0,0.0,0.0,0.0,0.0,0.0,0.0,0.0,0.0,0.0,0.0,0.0,0.0,0.0,0.0,0.0,7.402,7.5642,8.0144,8.3294,0.0,0.0,8.6045,8.4395,8.2526,8.1847,8.3264,0.0,0.0,0.0,0.0,0.0,0.0,0.0,0.0,0.0,0.0,0.0,0.0,0.0,0.0,0.0,0.0,0.0,0.0,0.0,0.0,0.0,0.0,0.0,0.0,0.0,0.0,0.0,0.0,0.0,0.0,0.0,0.0,0.0,0.0,0.0,0.0,0.0,0.0,0.0,0.0,0.0,0.0,0.0,0.0,0.0,0.0,0.0,0.0,0.0,0.0,0.0,0.0,0.0,0.0,4.9939,5.173,5.4511,5.8401,6.0556,6.2314,6.3677,6.2351,0.0,0.0,0.0,0.0,0.0,0.0,0.0,0.0,0.0,0.0,0.0,0.0,0.0,0.0,0.0,0.0,0.0,0.0,0.0,0.0,0.0,0.0,0.0,0.0,0.0,0.0,0.0,5.7075,0.0,0.0,0.0,0.0,0.0,0.0,0.0,0.0,0.0,0.0,0.0,0.0,0.0,0.0,7.7396,8.012,8.228,8.2191,0.0,0.0,8.091,7.9092,7.7732,7.6078,0.0,0.0,0.0,0.0,0.0,0.0,0.0,0.0,0.0,0.0,0.0,0.0,0.0,0.0,0.0,0.0,0.0,0.0,0.0,0.0,0.0,0.0,0.0,0.0,0.0,0.0,0.0,0.0,0.0,0.0,0.0,0.0,0.0,0.0,0.0,0.0,0.0,0.0,0.0,0.0,0.0,0.0,0.0,0.0,0.0,0.0,0.0,0.0,0.0,0.0,0.0,0.0,0.0,0.0,4.5163,4.7923,4.9903,5.3134,5.7642,6.0647,6.3163,6.5194,6.3757,6.2352,0.0,0.0,0.0,0.0,0.0,0.0,0.0,0.0,0.0,0.0,0.0,0.0,0.0,0.0,0.0,0.0,0.0,0.0,0.0,0.0,0.0,0.0,0.0,0.0,0.0,0.0,0.0,0.0,0.0,0.0,0.0,0.0,0.0,0.0,0.0,0.0,0.0,0.0,0.0,0.0,0.0,0.0,7.9772,7.868,0.0,0.0,0.0,7.4195,7.2833,0.0,0.0,0.0,0.0,0.0,0.0,0.0,0.0,0.0,0.0,0.0,0.0,0.0,0.0,0.0,0.0,0.0,0.0,0.0,0.0,0.0,0.0,0.0,0.0,0.0,0.0,0.0,0.0,0.0,0.0,0.0,0.0,0.0,0.0,0.0,0.0,0.0,0.0,0.0,0.0,0.0,0.0,0.0,0.0,0.0,0.0,0.0,0.0,0.0,0.0,0.0,0.0,0.0,0.0,0.0,0.0,0.0,4.5976,4.8855,5.2538,5.7036,6.0918,6.4037,6.6284,6.5629,6.3361,0.0,0.0,0.0,0.0,0.0,0.0,0.0,0.0,0.0,0.0,0.0,0.0,0.0,0.0,0.0,0.0,0.0,0.0,0.0,0.0,0.0,0.0,0.0,0.0,0.0,0.0,0.0,0.0,0.0,0.0,0.0,0.0,0.0,0.0,0.0,0.0,0.0,0.0,0.0,0.0,0.0,7.431,7.6978,7.2863,7.0556,0.0,0.0,6.7177,6.6819,6.6916,0.0,0.0,0.0,0.0,0.0,0.0,0.0,0.0,0.0,0.0,0.0,0.0,0.0,0.0,0.0,0.0,0.0,0.0,0.0,0.0,0.0,0.0,0.0,0.0,0.0,0.0,0.0,0.0,0.0,0.0,0.0,0.0,0.0,0.0,0.0,0.0,0.0,0.0,0.0,0.0,0.0,0.0,0.0,0.0,0.0,0.0,0.0,0.0,0.0,0.0,0.0,0.0,0.0,0.0,0.0,0.0,4.3004,4.4753,4.8514,5.4307,5.9237,6.2997,6.5579,6.513,6.35,0.0,0.0,0.0,0.0,0.0,0.0,0.0,0.0,0.0,0.0,0.0,0.0,0.0,0.0,0.0,0.0,0.0,0.0,0.0,0.0,0.0,0.0,0.0,0.0,0.0,0.0,0.0,0.0,0.0,0.0,0.0,0.0,0.0,0.0,0.0,0.0,0.0,0.0,0.0,0.0,0.0,7.5168,7.5562,7.2093,0.0,0.0,0.0,0.0,6.3544,6.5122,0.0,0.0,0.0,0.0,0.0,0.0,0.0,0.0,0.0,0.0,0.0,0.0,0.0,0.0,0.0,0.0,0.0,0.0,0.0,0.0,0.0,0.0,0.0,0.0,0.0,0.0,0.0,0.0,0.0,0.0,0.0,0.0,0.0,0.0,0.0,0.0,0.0,0.0,0.0,0.0,0.0,0.0,0.0,0.0,0.0,0.0,0.0,0.0,0.0,0.0,0.0,0.0,0.0,0.0,0.0,0.0,4.1393,4.3593,4.7516,5.3316,5.7991,6.2157,6.561,6.5499,6.3839,0.0,0.0,0.0,0.0,0.0,0.0,0.0,0.0,0.0,0.0,0.0,0.0,0.0,0.0,0.0,0.0,0.0,0.0,0.0,0.0,0.0,0.0,0.0,0.0,0.0,0.0,0.0,0.0,0.0,0.0,0.0,0.0,0.0,0.0,0.0,0.0,0.0,0.0,0.0,0.0,7.4267,7.3723,7.4991,0.0,0.0,0.0,0.0,0.0,0.0,6.2601,6.26,0.0,0.0,0.0,0.0,0.0,0.0,0.0,0.0,0.0,0.0,0.0,0.0,0.0,0.0,0.0,0.0,0.0,0.0,0.0,0.0,0.0,0.0,0.0,0.0,0.0,0.0,0.0,0.0,0.0,0.0,0.0,0.0,0.0,0.0,0.0,0.0,0.0,0.0,0.0,0.0,0.0,0.0,0.0,0.0,0.0,0.0,0.0,0.0,0.0,0.0,0.0,0.0,0.0,0.0,0.0,4.0571,4.3071,4.7256,5.2675,5.6585,6.0765,6.5166,6.5564,6.3603,5.9402,0.0,0.0,0.0,0.0,0.0,0.0,0.0,0.0,0.0,0.0,0.0,0.0,0.0,0.0,0.0,0.0,0.0,0.0,0.0,0.0,0.0,0.0,0.0,0.0,0.0,0.0,0.0,0.0,0.0,0.0,0.0,0.0,0.0,0.0,0.0,0.0,0.0,0.0,0.0,7.122,7.1542,0.0,0.0,0.0,0.0,0.0,0.0,0.0,0.0,6.0498,0.0,0.0,0.0,0.0,0.0,0.0,0.0,0.0,0.0,0.0,0.0,0.0,0.0,0.0,0.0,0.0,0.0,0.0,0.0,0.0,0.0,0.0,0.0,0.0,0.0,0.0,0.0,0.0,0.0,0.0,0.0,0.0,0.0,0.0,0.0,0.0,0.0,0.0,0.0,0.0,0.0,0.0,0.0,0.0,0.0,0.0,0.0,0.0,0.0,0.0,0.0,0.0,0.0,0.0,0.0,0.0,4.1617,4.4864,5.0734,5.3906,5.779,6.2491,6.3376,6.12,5.5696,0.0,0.0,0.0,0.0,0.0,0.0,0.0,0.0,0.0,0.0,0.0,0.0,0.0,0.0,0.0,0.0,0.0,0.0,0.0,0.0,0.0,0.0,0.0,0.0,0.0,0.0,0.0,0.0,0.0,0.0,0.0,0.0,0.0,0.0,0.0,0.0,0.0,0.0,6.7401,6.8357,0.0,0.0,0.0,0.0,0.0,0.0,0.0,0.0,6.1282,0.0,0.0,0.0,0.0,0.0,0.0,0.0,0.0,0.0,0.0,0.0,0.0,0.0,0.0,0.0,0.0,0.0,0.0,0.0,0.0,0.0,0.0,0.0,0.0,0.0,0.0,0.0,0.0,0.0,0.0,0.0,0.0,0.0,0.0,0.0,0.0,0.0,0.0,0.0,0.0,0.0,0.0,0.0,0.0,0.0,0.0,0.0,0.0,0.0,0.0,0.0,0.0,0.0,0.0,0.0,0.0,0.0,0.0,4.4008,4.8367,5.105,5.4535,5.8794,6.1352,6.0123,0.0,0.0,0.0,0.0,0.0,0.0,0.0,0.0,0.0,0.0,0.0,0.0,0.0,0.0,0.0,0.0,0.0,0.0,0.0,0.0,0.0,0.0,0.0,0.0,0.0,0.0,0.0,0.0,0.0,0.0,0.0,0.0,0.0,0.0,0.0,0.0,0.0,0.0,0.0,0.0,0.0,0.0,0.0,0.0,0.0,0.0,0.0,0.0,0.0,0.0,0.0,0.0,0.0,0.0,0.0,0.0,0.0,0.0,0.0,0.0,0.0,0.0,0.0,0.0,0.0,0.0,0.0,0.0,0.0,0.0,0.0,0.0,0.0,0.0,0.0,0.0,0.0,0.0,0.0,0.0,0.0,0.0,0.0,0.0,0.0,0.0,0.0,0.0,0.0,0.0,0.0,0.0,0.0,0.0,0.0,0.0,0.0,0.0,0.0,0.0,0.0,0.0,0.0,0.0,0.0,0.0,0.0,0.0,4.4336,4.7053,4.916,5.2189,5.6225,5.8462,5.7954,0.0,0.0,0.0,0.0,0.0,0.0,0.0,0.0,0.0,0.0,0.0,0.0,0.0,0.0,0.0,0.0,0.0,0.0,0.0,0.0,0.0,0.0,0.0,0.0,0.0,0.0,0.0,0.0,0.0,0.0,0.0,0.0,0.0,0.0,0.0,0.0,0.0,0.0,0.0,0.0,0.0,0.0,0.0,0.0,0.0,0.0,0.0,0.0,6.2665,0.0,0.0,0.0,0.0,0.0,0.0,0.0,0.0,0.0,0.0,0.0,0.0,0.0,0.0,0.0,0.0,0.0,0.0,0.0,0.0,0.0,0.0,0.0,0.0,0.0,0.0,0.0,0.0,0.0,0.0,0.0,0.0,0.0,0.0,0.0,0.0,0.0,0.0,0.0,0.0,0.0,0.0,0.0,0.0,0.0,0.0,0.0,0.0,0.0,0.0,0.0,0.0,0.0,0.0,0.0,0.0,0.0,0.0,0.0,4.6368,4.8492,4.9424,5.2053,5.6601,5.3779,5.2157,0.0,0.0,0.0,0.0,0.0,0.0,0.0,0.0,0.0,0.0,0.0,0.0,0.0,0.0,0.0,0.0,0.0,0.0,0.0,0.0,0.0,0.0,0.0,0.0,0.0,0.0,0.0,0.0,0.0,0.0,0.0,0.0,0.0,0.0,0.0,0.0,0.0,0.0,0.0,0.0,0.0,0.0,0.0,0.0,0.0,0.0,0.0,0.0,0.0,0.0,0.0,0.0,0.0,0.0,0.0,0.0,0.0,0.0,0.0,0.0,0.0,0.0,0.0,0.0,0.0,0.0,0.0,0.0,0.0,0.0,0.0,0.0,0.0,0.0,0.0,0.0,0.0,0.0,0.0,0.0,0.0,0.0,0.0,0.0,0.0,0.0,0.0,0.0,0.0,0.0,0.0,0.0,0.0,0.0,0.0,0.0,0.0,0.0,0.0,0.0,0.0,0.0,0.0,0.0,0.0,0.0,0.0,0.0,4.5101,4.5773,4.7719,5.1478,5.6947,5.5506,5.4029,0.0,0.0,0.0,0.0,0.0,0.0,0.0,0.0,0.0,0.0,0.0,0.0,0.0,0.0,0.0,0.0,0.0,0.0,0.0,0.0,0.0,0.0,0.0,0.0,0.0,0.0,0.0,0.0,0.0,0.0,0.0,0.0,0.0,0.0,0.0,0.0,0.0,0.0,0.0,0.0,0.0,0.0,0.0,0.0,0.0,0.0,0.0,0.0,0.0,0.0,0.0,0.0,0.0,0.0,0.0,0.0,0.0,0.0,0.0,0.0,0.0,0.0,0.0,0.0,0.0,0.0,0.0,0.0,0.0,0.0,0.0,0.0,0.0,0.0,0.0,0.0,0.0,0.0,0.0,0.0,0.0,0.0,0.0,0.0,0.0,0.0,0.0,0.0,0.0,0.0,0.0,0.0,0.0,0.0,0.0,0.0,0.0,0.0,0.0,0.0,0.0,0.0,0.0,0.0,0.0,0.0,0.0,0.0,0.0,4.5876,4.8245,5.1788,5.6175,5.6277,5.5464,0.0,0.0,0.0,0.0,0.0,0.0,0.0,0.0,0.0,0.0,0.0,0.0,0.0,0.0,0.0,0.0,0.0,0.0,0.0,0.0,0.0,0.0,0.0,0.0,0.0,0.0,0.0,0.0,0.0,0.0,0.0,0.0,0.0,0.0,0.0,0.0,0.0,0.0,0.0,0.0,0.0,0.0,0.0,0.0,0.0,0.0,0.0,0.0,0.0,0.0,0.0,0.0,0.0,0.0,0.0,0.0,0.0,0.0,0.0,0.0,0.0,0.0,0.0,0.0,0.0,0.0,0.0,0.0,0.0,0.0,0.0,0.0,0.0,0.0,0.0,0.0,0.0,0.0,0.0,0.0,0.0,0.0,0.0,0.0,0.0,0.0,0.0,0.0,0.0,0.0,0.0,0.0,0.0,0.0,0.0,0.0,0.0,0.0,0.0,0.0,0.0,0.0,0.0,0.0,0.0,0.0,0.0,0.0,0.0,5.1784,5.2656,5.3455,5.4059,5.3513,5.4048,0.0,0.0,0.0,0.0,0.0,0.0,0.0,0.0,0.0,0.0,0.0,0.0,0.0,0.0,0.0,0.0,0.0,0.0,0.0,0.0,0.0,0.0,0.0,0.0,0.0,0.0,0.0,0.0,0.0,0.0,0.0,0.0,0.0,0.0,0.0,0.0,0.0,0.0,0.0,0.0,0.0,0.0,0.0,0.0,0.0,0.0,0.0,0.0,0.0,0.0,0.0,0.0,0.0,0.0,0.0,0.0,0.0,0.0,0.0,0.0,0.0,0.0,0.0,0.0,0.0,0.0,0.0,0.0,0.0,0.0,0.0,0.0,0.0,0.0,0.0,0.0,0.0,0.0,0.0,0.0,0.0,0.0,0.0,0.0,0.0,0.0,0.0,0.0,0.0,0.0,0.0,0.0,0.0,0.0,0.0,0.0,0.0,0.0,0.0,0.0,0.0,0.0,0.0,0.0,0.0,0.0,0.0,0.0,0.0,5.6296,5.5902,5.559,5.5545,5.4058,5.3052,5.2798,0.0,0.0,0.0,0.0,0.0,0.0,0.0,0.0,0.0,0.0,0.0,0.0,0.0,0.0,0.0,0.0,0.0,0.0,0.0,0.0,0.0,0.0,0.0,0.0,0.0,0.0,0.0,0.0,0.0,0.0,0.0,0.0,0.0,0.0,0.0,0.0,0.0,0.0,0.0,0.0,0.0,0.0,0.0,0.0,0.0,0.0,0.0,0.0,0.0,0.0,0.0,0.0,0.0,0.0,0.0,0.0,0.0,0.0,0.0,0.0,0.0,0.0,0.0,0.0,0.0,0.0,0.0,0.0,0.0,0.0,0.0,0.0,0.0,0.0,0.0,0.0,0.0,0.0,0.0,0.0,0.0,0.0,0.0,0.0,0.0,0.0,0.0,0.0,0.0,0.0,0.0,0.0,0.0,0.0,0.0,0.0,0.0,0.0,0.0,0.0,0.0,0.0,0.0,0.0,0.0,0.0,0.0,0.0,5.7046,5.6561,5.6504,5.6964,5.6125,5.4472,0.0,0.0,0.0,0.0,0.0,0.0,0.0,0.0,0.0,0.0,0.0,0.0,0.0,0.0,0.0,0.0,0.0,0.0,0.0,0.0,0.0,0.0,0.0,0.0,0.0,0.0,0.0,0.0,0.0,0.0,0.0,0.0,0.0,0.0,0.0,0.0,0.0,0.0,0.0,0.0,0.0,0.0,0.0,0.0,0.0,0.0,0.0,0.0,0.0,0.0,0.0,0.0,0.0,0.0,0.0,0.0,0.0,0.0,0.0,0.0,0.0,0.0,0.0,0.0,0.0,0.0,0.0,0.0,0.0,0.0,0.0,0.0,0.0,0.0,0.0,0.0,0.0,0.0,0.0,0.0,0.0,0.0,0.0,0.0,0.0,0.0,0.0,0.0,0.0,0.0,0.0,0.0,0.0,0.0,0.0,0.0,0.0,0.0,0.0,0.0,0.0,0.0,0.0,0.0,0.0,0.0,0.0,0.0,5.4834,5.3392,5.4563,5.613,5.7757,5.9302,5.835,0.0,0.0,0.0,0.0,0.0,0.0,0.0,0.0,0.0,0.0,0.0,0.0,0.0,0.0,0.0,0.0,0.0,0.0,0.0,0.0,0.0,0.0,0.0,0.0,0.0,0.0,0.0,0.0,0.0,0.0,0.0,0.0,0.0,0.0,0.0,0.0,0.0,0.0,0.0,0.0,0.0,0.0,0.0,0.0,0.0,0.0,0.0,0.0,0.0,0.0,0.0,0.0,0.0,0.0,0.0,0.0,0.0,0.0,0.0,0.0,0.0,0.0,0.0,0.0,0.0,0.0,0.0,0.0,0.0,0.0,0.0,0.0,0.0,0.0,0.0,0.0,0.0,0.0,0.0,0.0,0.0,0.0,0.0,0.0,0.0,0.0,0.0,0.0,0.0,0.0,0.0,0.0,0.0,0.0,0.0,0.0,0.0,0.0,0.0,0.0,0.0,0.0,0.0,0.0,0.0,0.0,0.0,0.0,0.0,5.7399,0.0,5.9128,0.0,5.8623,5.6439,0.0,0.0,0.0,0.0,0.0,0.0,0.0,0.0,0.0,0.0,0.0,0.0,0.0,0.0,0.0,0.0,0.0,0.0,0.0,0.0,0.0,0.0,0.0,0.0,0.0,0.0,0.0,0.0,0.0,0.0,0.0,0.0,0.0,0.0,0.0,0.0,0.0,0.0,0.0,0.0,0.0,0.0,0.0,0.0,0.0,0.0,0.0,0.0,0.0,0.0,0.0,0.0,0.0,0.0,0.0,0.0,0.0,0.0,0.0,0.0,0.0,0.0,0.0,0.0,0.0,0.0,0.0,0.0,0.0,0.0,0.0,0.0,0.0,0.0,0.0,0.0,0.0,0.0,0.0,0.0,0.0,0.0,0.0,0.0,0.0,0.0,0.0,0.0,0.0,0.0,0.0,0.0,0.0,0.0,0.0,0.0,0.0,0.0,0.0,0.0,0.0,0.0,0.0,0.0,0.0,0.0,0.0,0.0,0.0,5.8787,5.8011,5.9205,6.2244,6.1061,5.8973,0.0,0.0,0.0,0.0,0.0,0.0,0.0,0.0,0.0,0.0,0.0,0.0,0.0,0.0,0.0,0.0,0.0,0.0,0.0,0.0,0.0,0.0,0.0,0.0,0.0,0.0,0.0,0.0,0.0,0.0,0.0,0.0,0.0,0.0,0.0,0.0,0.0,0.0,0.0,0.0,0.0,0.0,0.0,0.0,0.0,0.0,0.0,0.0,0.0,0.0,0.0,0.0,0.0,0.0,0.0,0.0,0.0,0.0,0.0,0.0,0.0,0.0,0.0,0.0,0.0,0.0,0.0,0.0,0.0,0.0,0.0,0.0,0.0,0.0,0.0,0.0,0.0,0.0,0.0,0.0,0.0,0.0,0.0,0.0,0.0,0.0,0.0,0.0,0.0,0.0,0.0,0.0,0.0,0.0,0.0,0.0,0.0,0.0,0.0,0.0,0.0,0.0,0.0,0.0,0.0,0.0,0.0,0.0,0.0,0.0,5.7566,5.7108,5.7483,6.5704,6.5209,0.0,0.0,0.0,0.0,0.0,0.0,0.0,0.0,0.0,0.0,0.0,0.0,0.0,0.0,0.0,0.0,0.0,0.0,0.0,0.0,0.0,0.0,0.0,0.0,0.0,0.0,0.0,0.0,0.0,0.0,0.0,0.0,0.0,0.0,0.0,0.0,0.0,0.0,0.0,0.0,0.0,0.0,0.0,0.0,0.0,0.0,0.0,0.0,0.0,0.0,0.0,0.0,0.0,0.0,0.0,0.0,0.0,0.0,0.0,0.0,0.0,0.0,0.0,0.0,0.0,0.0,0.0,0.0,0.0,0.0,0.0,0.0,0.0,0.0,0.0,0.0,0.0,0.0,0.0,0.0,0.0,0.0,0.0,0.0,0.0,0.0,0.0,0.0,0.0,0.0,0.0,0.0,0.0,0.0,0.0,0.0,0.0,0.0,0.0,0.0,0.0,0.0,0.0,0.0,0.0,0.0,0.0,0.0,0.0,0.0,6.3584,0.0,6.0355,5.9526,5.9462,6.0239,0.0,0.0,0.0,0.0,0.0,0.0,0.0,0.0,0.0,0.0,0.0,0.0,0.0,0.0,0.0,0.0,0.0,0.0,0.0,0.0,0.0,0.0,0.0,0.0,0.0,0.0,0.0,0.0,0.0,0.0,0.0,0.0,0.0,0.0,0.0,0.0,0.0,0.0,0.0,0.0,0.0,0.0,0.0,0.0,0.0,0.0,0.0,0.0,0.0,0.0,0.0,0.0,0.0,0.0,0.0,0.0,0.0,0.0,0.0,0.0,0.0,0.0,0.0,0.0,0.0,0.0,0.0,0.0,0.0,0.0,0.0,0.0,0.0,0.0,0.0,0.0,0.0,0.0,0.0,0.0,0.0,0.0,0.0,0.0,0.0,0.0,0.0,0.0,0.0,0.0,0.0,0.0,0.0,0.0,0.0,0.0,0.0,0.0,0.0,0.0,0.0,0.0,0.0,0.0,0.0,0.0,0.0,0.0,0.0,0.0,6.4673,6.2612,5.9014,5.8451,0.0,0.0,0.0,0.0,0.0,0.0,0.0,0.0,0.0,0.0,0.0,0.0,0.0,0.0,0.0,0.0,0.0,0.0,0.0,0.0,0.0,0.0,0.0,0.0,0.0,0.0,0.0,0.0,0.0,0.0,0.0,0.0,0.0,0.0,0.0,0.0,0.0,0.0,0.0,0.0,0.0,0.0,0.0,0.0,0.0,0.0,0.0,0.0,0.0,0.0,0.0,0.0,0.0,0.0,0.0,0.0,0.0,0.0,0.0,0.0,0.0,0.0,0.0,0.0,0.0,0.0,0.0,0.0,0.0,0.0,0.0,0.0,0.0,0.0,0.0,0.0,0.0,0.0,0.0,0.0,0.0,0.0,0.0,0.0,0.0,0.0,0.0,0.0,0.0,0.0,0.0,0.0,0.0,0.0,0.0,0.0,0.0,0.0,0.0,0.0,0.0,0.0,0.0,0.0,0.0,0.0,0.0,0.0,0.0,0.0,0.0,6.4874,6.3803,6.1445,0.0,5.857,0.0,0.0,0.0,0.0,0.0,0.0,0.0,0.0,0.0,0.0,0.0,0.0,0.0,0.0,0.0,0.0,0.0,0.0,0.0,0.0,0.0,0.0,0.0,0.0,0.0,0.0,0.0,0.0,0.0,0.0,0.0,0.0,0.0,0.0,0.0,0.0,0.0,0.0,0.0,0.0,0.0,0.0,0.0,0.0,0.0,0.0,0.0,0.0,0.0,0.0,0.0,0.0,0.0,0.0,0.0,0.0,0.0,0.0,0.0,0.0,0.0,0.0,0.0,0.0,0.0,0.0,0.0,0.0,0.0,0.0,0.0,0.0,0.0,0.0,0.0,0.0,0.0,0.0,0.0,0.0,0.0,0.0,0.0,0.0,0.0,0.0,0.0,0.0,0.0,0.0,0.0,0.0,0.0,0.0,0.0,0.0,0.0,0.0,0.0,0.0,0.0,0.0,0.0,0.0,0.0,0.0,0.0,0.0,0.0,0.0,0.0,0.0,5.823,5.5214,5.5436,0.0,0.0,0.0,0.0,0.0,0.0,0.0,0.0,0.0,0.0,0.0,0.0,0.0,0.0,0.0,0.0,0.0,0.0,0.0,0.0,0.0,0.0,0.0,0.0,0.0,0.0,0.0,0.0,0.0,0.0,0.0,0.0,0.0,0.0,0.0,0.0,0.0,0.0,0.0,0.0,0.0,0.0,0.0,0.0,0.0,0.0,0.0,0.0,0.0,0.0,0.0,0.0,0.0,0.0,0.0,0.0,0.0,0.0,0.0,0.0,0.0,0.0,0.0,0.0,0.0,0.0,0.0,0.0,0.0,0.0,0.0,0.0,0.0,0.0,0.0,0.0,0.0,0.0,0.0,0.0,0.0,0.0,0.0,0.0,0.0,0.0,0.0,0.0,0.0,0.0,0.0,0.0,0.0,0.0,0.0,0.0,0.0,0.0,0.0,0.0,0.0,0.0,0.0,0.0,0.0,0.0,0.0,0.0,0.0,0.0,6.2383,6.4481,5.8885,5.5548,5.5233,0.0,0.0,0.0,0.0,0.0,0.0,0.0,0.0,0.0,0.0,0.0,0.0,0.0,0.0,0.0,0.0,0.0,0.0,0.0,0.0,0.0,0.0,0.0,0.0,0.0,0.0,0.0,0.0,0.0,0.0,0.0,0.0,0.0,0.0,0.0,0.0,0.0,0.0,0.0,0.0,0.0,0.0,0.0,0.0,0.0,0.0,0.0,0.0,0.0,0.0,0.0,0.0,0.0,0.0,0.0,0.0,0.0,0.0,0.0,0.0,0.0,0.0,0.0,0.0,0.0,0.0,0.0,0.0,0.0,0.0,0.0,0.0,0.0,0.0,0.0,0.0,0.0,0.0,0.0,0.0,0.0,0.0,0.0,0.0,0.0,0.0,0.0,0.0,0.0,0.0,0.0,0.0,0.0,0.0,0.0,0.0,0.0,0.0,0.0,0.0,0.0,0.0,0.0,0.0,0.0,0.0,0.0,0.0,0.0,0.0,0.0,0.0,0.0,0.0,5.6078,0.0,0.0,0.0,0.0,0.0,0.0,0.0,0.0,0.0,0.0,0.0,0.0,0.0,0.0,0.0,0.0,0.0,0.0,0.0,0.0,0.0,0.0,0.0,0.0,0.0,0.0,0.0,0.0,0.0,0.0,0.0,0.0,0.0,0.0,0.0,0.0,0.0,0.0,0.0,0.0,0.0,0.0,0.0,0.0,0.0,0.0,0.0,0.0,0.0,0.0,0.0,0.0,0.0,0.0,0.0,0.0,0.0,0.0,0.0,0.0,0.0,0.0,0.0,0.0,0.0,0.0,0.0,0.0,0.0,0.0,0.0,0.0,0.0,0.0,0.0,0.0,0.0,0.0,0.0,0.0,0.0,0.0,0.0,0.0,0.0,0.0,0.0,0.0,0.0,0.0,0.0,0.0,0.0,0.0,0.0,0.0,0.0,0.0,0.0,0.0,0.0,0.0,0.0,0.0,0.0,0.0,0.0,0.0,0.0,0.0,0.0,0.0,0.0,0.0,0.0,0.0,0.0,0.0,0.0,0.0,0.0,0.0,0.0,0.0,0.0,0.0,0.0,0.0,0.0,0.0,0.0,0.0,0.0,0.0,0.0,0.0,0.0,0.0,0.0,0.0,0.0,0.0,0.0,0.0,0.0,0.0,0.0,0.0,0.0,0.0,0.0,0.0,0.0,0.0,0.0,0.0,0.0,0.0,0.0,0.0,0.0,0.0,0.0,0.0,0.0,0.0,0.0,0.0,0.0,0.0,0.0,0.0,0.0,0.0,0.0,0.0,0.0,0.0,0.0,0.0,0.0,0.0,0.0,0.0,0.0,0.0,0.0,0.0,0.0,0.0,0.0,0.0,0.0,0.0,0.0,0.0,0.0,0.0,0.0,0.0,0.0,0.0,0.0,0.0,0.0,0.0,0.0,0.0,0.0,0.0,0.0,0.0,0.0,0.0,0.0,0.0,0.0,0.0,0.0,0.0,0.0,0.0,0.0,0.0,0.0,0.0,0.0,0.0,0.0,0.0,0.0,0.0,0.0,0.0,0.0,0.0,0.0,0.0,0.0,0.0,0.0,0.0,0.0,0.0,0.0,0.0,0.0,0.0,0.0,0.0,0.0,0.0,0.0,0.0,0.0,0.0,0.0,0.0,0.0,0.0,0.0,0.0,0.0,0.0,0.0,0.0,0.0,0.0,0.0,0.0,0.0,0.0,0.0,0.0,0.0,0.0,0.0,0.0,0.0,0.0,0.0,0.0,0.0,0.0,0.0,0.0,0.0,0.0,0.0,0.0,0.0,0.0,0.0,0.0,0.0,0.0,0.0,0.0,0.0,0.0,0.0,0.0,0.0,0.0,0.0,0.0,0.0,0.0,0.0,0.0,0.0,0.0,0.0,0.0,0.0,0.0,0.0,0.0,0.0,0.0,0.0,0.0,0.0,0.0,0.0,0.0,0.0,0.0,0.0,0.0,0.0,0.0,0.0,0.0,0.0,0.0,0.0,0.0,0.0,0.0,0.0,0.0,0.0,0.0,0.0,0.0,0.0,0.0,0.0,0.0,0.0,0.0,0.0,0.0,0.0,0.0,0.0,0.0,0.0,0.0,0.0,0.0,0.0,0.0,0.0,0.0,0.0,0.0,0.0,0.0,0.0,0.0,0.0,0.0,0.0,0.0,0.0,0.0,0.0,0.0,0.0,0.0,0.0,0.0,0.0,0.0,0.0,0.0,0.0,0.0,0.0,0.0,0.0,0.0,0.0,0.0,0.0,0.0,0.0,0.0,0.0,0.0,0.0,0.0,0.0,0.0,0.0,0.0,0.0,0.0,0.0,0.0,0.0,0.0,0.0,0.0,0.0,0.0,0.0,0.0,0.0,0.0,0.0,0.0,0.0,0.0,0.0,0.0,0.0,0.0,0.0,0.0,0.0,0.0,0.0,0.0,0.0,0.0,0.0,0.0,0.0,0.0,0.0,0.0,0.0,0.0,0.0,0.0,0.0,0.0,0.0,0.0,0.0,0.0,0.0,0.0,0.0,0.0,0.0,0.0,0.0,0.0,0.0,0.0,0.0,0.0,0.0,0.0,0.0,0.0,0.0,0.0,0.0,0.0,0.0,0.0,0.0,0.0,0.0,0.0,0.0,0.0,0.0,0.0,0.0,0.0,0.0,0.0,0.0,0.0,0.0,0.0,0.0,0.0,0.0,0.0,0.0,0.0,0.0,0.0,0.0,0.0,0.0,0.0,0.0,0.0,0.0,0.0,0.0,0.0,0.0,0.0,0.0,0.0,0.0,0.0,0.0,0.0,0.0,0.0,0.0,0.0,0.0,0.0,0.0,0.0,0.0,0.0,0.0,0.0,0.0,0.0,0.0,0.0,0.0,0.0,0.0,0.0,0.0,0.0,0.0,0.0,0.0,0.0,0.0,0.0,0.0,0.0,0.0,0.0,0.0,0.0,0.0,0.0,0.0,0.0,0.0,0.0,0.0,0.0,0.0,0.0,0.0,0.0,0.0,0.0,0.0,0.0,0.0,0.0,0.0,0.0,0.0,0.0,0.0,0.0,0.0,0.0,0.0,0.0,0.0,0.0,0.0,0.0,0.0,0.0,0.0,0.0,0.0,0.0,0.0,0.0,0.0,0.0,0.0,0.0,0.0,0.0,0.0,0.0,0.0,0.0,0.0,0.0,0.0,0.0,0.0,0.0,0.0,0.0,0.0,0.0,0.0,0.0,0.0,0.0,0.0,0.0,0.0,0.0,0.0,0.0,0.0,0.0,0.0,0.0,0.0,0.0,0.0,0.0,0.0,0.0,0.0,0.0,0.0,0.0,0.0,0.0,0.0,0.0,0.0,0.0,0.0,0.0,0.0,0.0,0.0,0.0,0.0,0.0,0.0,0.0,0.0,0.0,0.0,0.0,0.0,0.0,0.0,0.0,0.0,0.0,0.0,0.0,0.0,0.0,0.0,0.0,0.0,0.0,0.0,0.0,0.0,0.0,0.0,0.0,0.0,0.0,0.0,0.0,0.0,0.0,0.0,0.0,0.0,0.0,0.0,0.0,0.0,0.0,0.0,0.0,0.0,0.0,0.0,0.0,0.0,0.0,0.0,0.0,0.0,0.0,0.0,0.0,0.0,0.0,0.0,0.0,0.0,0.0,0.0,0.0,0.0,0.0,0.0,0.0,0.0,0.0,0.0,0.0,0.0,0.0,0.0,0.0,0.0,0.0,0.0,0.0,0.0,0.0,0.0,0.0,0.0,0.0,0.0,0.0,0.0,0.0,0.0,0.0,0.0,0.0,0.0,0.0,0.0,0.0,0.0,0.0,0.0,0.0,0.0,0.0,0.0,0.0,0.0,0.0,0.0,0.0,0.0,0.0,0.0,0.0,0.0,0.0,0.0,0.0,0.0,0.0,0.0,0.0,0.0,0.0,0.0,0.0,0.0,0.0,0.0,0.0,0.0,0.0,0.0,0.0,0.0,0.0,0.0,0.0,0.0,0.0,0.0,0.0,0.0,0.0,0.0,0.0,0.0,0.0,0.0,0.0,0.0,0.0,0.0,0.0,0.0,0.0,0.0,0.0,0.0,0.0,0.0,0.0,0.0,0.0,0.0,0.0,0.0,0.0,0.0,0.0,0.0,0.0,0.0,0.0,0.0,0.0,0.0,0.0,0.0,0.0,0.0,0.0,0.0,0.0,0.0,0.0,0.0,0.0,0.0,0.0,0.0,0.0,0.0,0.0,0.0,0.0,0.0,0.0,0.0,0.0,0.0,0.0,0.0,0.0,0.0,0.0,0.0,0.0,0.0,0.0,0.0,0.0,0.0,0.0,0.0,0.0,0.0,0.0,0.0,0.0,0.0,0.0,0.0,0.0,0.0,0.0,0.0,0.0,0.0,0.0,0.0,0.0,0.0,0.0,0.0,0.0,0.0,0.0,0.0,0.0,0.0,0.0,0.0,0.0,0.0,0.0,0.0,0.0,0.0,0.0,0.0,0.0,0.0,0.0,0.0,0.0,0.0,0.0,0.0,0.0,0.0,0.0,0.0,0.0,0.0,0.0,0.0,0.0,0.0,0.0,0.0,0.0,0.0,0.0,0.0,0.0,0.0,0.0,0.0,0.0,0.0,0.0,0.0,0.0,0.0,0.0,0.0,0.0,0.0,0.0,0.0,0.0,0.0,0.0,0.0,0.0,0.0,0.0,0.0,0.0,0.0,0.0,0.0,0.0,0.0,0.0,0.0,0.0,0.0,0.0,0.0,0.0,0.0,0.0,0.0,0.0,0.0,0.0,0.0,0.0,0.0,0.0,0.0,0.0,0.0,0.0,0.0,0.0,0.0,0.0,0.0,0.0,0.0,0.0,0.0,0.0,0.0,0.0,0.0,0.0]}],[{"header":{"parameterUnit":"kt","parameterCategory":2,"dx":1,"dy":1,"la1":29.587661999999998,"la2":31.0,"lo1":-88.76705300000003,"lo2":-86.6583820000003,"nx":115,"ny":88,"refTime":"2022-09-19T12:00:00:Z","depth":0,"parameterNumber":2,"parameterNumberName":"V-component_of_WINDS"},"data":[7.5988,7.6264,7.5755,7.5464,7.5504,7.5231,7.5349,7.5471,7.5611,7.6023,7.5821,7.5727,7.5027,7.4956,7.5014,7.4723,7.3812,7.4375,7.4977,7.5268,7.4163,7.3599,7.2958,7.2317,7.1035,7.0814,7.0825,7.0172,7.0181,6.9286,6.8209,6.8033,6.7862,6.7544,6.7149,6.7319,6.7713,6.7826,6.777,6.777,6.7431,6.6416,6.6077,6.5626,6.5626,6.5626,6.5739,6.5908,6.6134,6.6489,6.726,6.9068,7.0474,7.1502,7.2296,7.3516,7.3558,7.3695,7.327,7.2838,7.2051,7.1815,7.1511,7.1315,7.0918,7.0529,7.0225,6.898,6.7657,6.5103,6.4341,6.4171,6.392,6.4201,6.4384,6.5231,6.5159,6.414,6.2681,6.1101,5.9827,5.8583,5.7508,5.7224,5.7032,5.6982,5.6932,5.6932,5.6724,5.6033,5.5334,5.4299,5.3169,5.2324,5.1647,5.0606,5.0004,4.9247,4.854,4.7976,4.644,4.3653,4.2449,4.3237,4.2248,4.1216,4.1091,4.1395,4.1281,4.129,4.0569,3.9312,3.7874,3.6536,3.534,7.3232,7.3057,7.2127,7.108,7.0091,7.0033,7.0775,7.1804,7.2789,7.3812,7.4171,7.1137,6.966,6.9531,6.9788,6.9846,7.0324,7.1312,7.0731,7.0556,7.0614,7.0265,7.0219,7.0055,6.9714,6.9547,6.9012,6.8163,6.7381,6.7187,6.6876,6.7349,6.7129,6.6811,6.6924,6.6811,6.6359,6.6134,6.6077,6.6472,6.5287,6.3876,6.1958,6.1224,6.1224,6.1337,6.145,6.2071,6.3481,6.424,6.5615,6.7433,6.887,6.9588,7.0485,7.1084,7.1325,7.1085,7.0662,7.0186,6.9052,6.7982,6.7094,6.662,6.6072,6.5951,6.6256,6.5719,6.5051,6.3882,6.3514,6.3267,6.2894,6.2882,6.2713,6.3007,6.1904,6.074,5.8724,5.6587,5.5384,5.4314,5.3652,5.3253,5.3119,5.3203,5.3253,5.3302,5.3218,5.2787,5.2687,5.1812,5.099,5.0122,4.9081,4.8515,4.8291,4.7496,4.6829,4.6639,4.5743,4.2816,4.1095,4.1215,4.1029,4.054,4.028,3.9949,4.0092,4.0191,3.9054,3.7665,3.6418,3.5371,3.4021,7.2125,7.1949,7.0195,6.8998,6.8536,6.8478,6.8767,6.9344,6.9864,7.0037,6.9575,6.8869,6.8222,6.835,6.8548,6.8964,6.8906,6.8801,6.852,6.8753,6.9277,6.7997,6.6885,6.6421,6.6902,6.5618,6.4856,6.4676,6.3563,6.3782,6.3653,6.288,6.3493,6.3594,6.3707,6.4384,6.4384,6.382,6.3594,6.2296,5.987,5.9249,5.7951,5.7726,5.7839,5.7839,5.7951,5.8234,5.908,5.9995,6.201,6.4192,6.6435,6.7461,6.8455,6.9267,6.9807,6.9705,6.9623,6.9379,6.9034,6.8851,6.8141,6.6942,6.5906,6.3907,6.4185,6.3622,6.2993,6.2415,6.2065,6.1651,6.1175,6.075,6.0517,6.0181,5.9095,5.7722,5.5825,5.3907,5.2852,5.1775,5.0932,5.0596,5.0497,5.0546,5.03,5.0319,5.022,4.9895,5.0024,4.9778,4.9404,4.8515,4.7512,4.7048,4.6265,4.5702,4.5094,4.3959,4.2348,4.0642,3.9551,3.9081,3.8686,3.8891,3.8891,3.8563,3.8619,3.8413,3.722,3.5901,3.5136,3.4222,3.2439,7.077,7.0528,6.8055,6.6737,6.6256,6.6256,6.6314,6.6658,6.6246,6.5376,6.4862,6.5434,6.5845,6.5444,6.5691,6.588,6.6053,6.5655,6.6885,6.6537,6.6543,6.4618,6.2582,6.4038,6.3576,6.1831,6.0963,6.1372,6.0341,5.977,5.9258,5.8857,5.9362,5.9983,6.0039,6.0547,6.0716,6.0096,6.0034,5.9133,5.7274,5.6148,5.5756,5.57,5.6093,5.6374,5.5868,5.5812,5.5864,5.613,5.7666,5.9778,6.2435,6.4031,6.5526,6.6907,6.7795,6.8246,6.8369,6.8341,6.7864,6.8122,6.7831,6.7465,6.6302,6.3977,6.2529,6.1943,6.1349,6.07,6.015,5.9706,5.92,5.8516,5.7938,5.7319,5.6532,5.4954,5.344,5.2113,5.0855,4.981,4.8919,4.8417,4.8271,4.8222,4.8222,4.8222,4.8368,4.7734,4.7907,4.7441,4.722,4.6831,4.6344,4.5352,4.3606,4.2681,4.2489,4.057,3.8426,3.7928,3.7803,3.7048,3.6616,3.6709,3.6836,3.679,3.6703,3.6334,3.5334,3.4184,3.3298,3.1511,3.0137,6.7944,6.771,6.5372,6.311,6.1204,6.1376,6.1893,6.2464,6.1252,6.0218,6.0218,6.0566,6.091,6.1195,6.1547,6.1606,6.178,6.1953,6.2242,6.1548,6.2184,6.2124,6.1317,6.2529,6.2399,6.1696,6.0773,5.9634,5.7861,5.7363,5.7097,5.6143,5.6654,5.7218,5.75,5.7895,5.7669,5.6993,5.6655,5.6599,5.5645,5.5759,5.6146,5.5145,5.5479,5.587,5.5033,5.4922,5.5365,5.6396,5.7503,5.8575,6.0232,6.1577,6.3288,6.4575,6.5256,6.5835,6.6226,6.6307,6.5999,6.5568,6.5157,6.4682,6.3968,6.224,6.161,6.1127,6.0741,6.0063,5.9494,5.8963,5.8258,5.7549,5.6936,5.6206,5.5423,5.4307,5.275,5.1518,5.0245,4.8754,4.7761,4.7172,4.6951,4.7658,4.7929,4.7832,4.7269,4.5883,4.5495,4.5009,4.4434,4.3835,4.3642,4.2822,4.0908,3.9917,3.948,3.8039,3.688,3.6387,3.6007,3.6065,3.6013,3.5449,3.5081,3.5121,3.5072,3.4454,3.3486,3.2395,3.0375,2.8307,2.6861,6.4578,6.4291,6.1809,6.0296,5.9469,5.9628,5.9795,5.9879,5.9362,5.8649,5.8046,5.8271,5.7941,5.7722,5.789,5.8002,5.8112,5.8448,5.8668,5.8778,5.888,5.888,5.9097,5.9555,6.1026,6.1753,6.0887,5.8467,5.7508,5.6618,5.5965,5.5747,5.6654,5.6823,5.671,5.6484,5.5864,5.4295,5.3514,5.3244,5.3026,5.2974,5.3089,5.2645,5.2812,5.2923,5.2589,5.2534,5.3065,5.4109,5.7049,5.8075,5.847,6.0806,6.2856,6.1994,6.261,6.3065,6.3457,6.3457,6.2904,6.2413,6.229,6.1931,6.132,6.0892,6.05,6.0167,5.9903,5.9535,5.8937,5.8389,5.7608,5.6709,5.6003,5.5187,5.4362,5.3646,5.2436,5.1061,4.9664,4.8049,4.6819,4.6221,4.5908,4.6029,4.6149,4.6149,4.53,4.3883,4.3074,4.2672,4.1937,4.1206,4.0916,4.035,3.9026,3.8001,3.7417,3.6702,3.5643,3.5206,3.5565,3.5534,3.5248,3.5145,3.4835,3.4406,3.3181,3.2479,3.1447,2.9474,2.7203,2.5287,2.4186,6.2435,6.2214,6.0096,5.9177,5.9258,5.9336,5.935,5.9272,5.8795,5.8372,5.7608,5.7294,5.7268,5.6504,5.6238,5.6403,5.6511,5.6561,5.6718,5.7103,5.7557,5.6978,5.7094,5.7886,5.9318,5.9869,5.9082,5.7131,5.6017,5.552,5.4936,5.4956,5.4904,5.5356,5.5581,5.5976,5.3339,5.1336,5.0461,5.0303,5.0099,5.0052,4.9894,4.9894,5.0004,5.0722,5.0943,5.1163,5.2518,5.3343,5.5983,5.7239,5.7216,5.9416,6.0815,5.9554,6.0385,6.0815,6.1184,6.1307,6.1368,6.1245,5.9955,5.9771,5.9525,5.9247,5.9186,5.8972,5.8569,5.8258,5.7817,5.7493,5.6947,5.6054,5.5083,5.4291,5.3177,5.2205,5.0908,4.9665,4.8695,4.705,4.4644,4.4007,4.3883,4.3874,4.3729,4.3729,4.3064,4.1615,4.0756,4.055,3.9858,3.9106,3.8679,3.7894,3.6906,3.6069,3.5697,3.5086,3.4101,3.3917,3.492,3.476,3.3958,3.3837,3.4006,3.2455,3.0748,2.9999,2.9035,2.6538,2.4221,2.2859,2.1585,6.2166,6.2074,6.0856,6.029,6.0316,6.0122,6.026,6.0405,5.9314,5.8777,5.8515,5.758,5.7301,5.7786,5.6545,5.611,5.6573,5.6372,5.6315,5.643,5.6458,5.5567,5.5797,5.6815,5.7049,5.6202,5.5983,5.6041,5.3453,5.4154,5.3788,5.3137,5.3429,5.2817,5.2027,5.1305,4.9756,4.911,4.8578,4.8559,4.8855,4.8204,4.8378,4.8433,4.8433,4.92,4.9968,5.0787,5.2367,5.4496,5.5844,5.6407,5.6746,5.7007,5.6857,5.7468,5.9464,6.0447,6.1123,6.1061,6.0815,5.894,5.7898,5.71,5.6916,5.7254,5.7315,5.7346,5.7775,5.7254,5.7315,5.7222,5.7003,5.5611,5.4646,5.3293,5.2275,5.086,4.9486,4.8479,4.7578,4.583,4.3539,4.2241,4.2068,4.2051,4.2252,4.2204,4.1862,4.0239,3.8344,3.8209,3.767,3.6799,3.609,3.5277,3.435,3.396,3.3639,3.3118,3.2608,3.2165,3.2575,3.2655,3.229,3.2064,3.1763,3.0532,2.8708,2.7404,2.6512,2.4458,2.289,2.124,1.946,5.9488,5.9488,5.9135,5.8895,5.902,5.974,6.0179,6.0333,6.0828,6.0017,5.8711,5.8302,5.765,5.641,5.5587,5.5449,5.4951,5.4851,5.4809,5.4461,5.4664,5.4217,5.4101,5.4751,5.4998,5.4751,5.5157,5.5854,5.4173,5.4888,5.4748,5.3921,5.3033,5.1789,5.0221,4.9236,4.8145,4.8063,4.7938,4.8029,4.8816,4.9043,4.9098,4.894,4.9049,4.9486,5.0087,5.1007,5.2307,5.5996,5.8215,5.9423,5.9979,6.0561,6.1087,5.9034,5.885,5.7744,5.799,5.8081,5.7528,5.6119,5.6306,5.5361,5.4114,5.585,5.6062,5.6152,5.7101,5.7499,5.8143,5.937,5.8413,5.6185,5.4775,5.2932,5.1541,4.9672,4.8238,4.7729,4.6699,4.469,4.2634,4.1682,4.1032,4.1011,4.0908,4.0971,4.0995,3.8152,3.5866,3.552,3.5014,3.4072,3.3264,3.2753,3.2382,3.1898,3.131,3.0751,3.0371,3.0297,3.0293,3.0244,3.0628,3.0623,2.9985,2.8871,2.7505,2.6067,2.4351,2.2842,2.1633,1.9592,1.7581,5.7492,5.7475,5.7595,5.8797,6.064,6.1584,6.1712,6.1731,6.2256,6.1746,6.0205,5.8973,5.7867,5.6826,5.6275,5.5355,5.48,5.4527,5.345,5.3145,5.3531,5.3009,5.2969,5.3607,5.4402,5.3781,5.5258,5.6028,5.4896,5.5902,5.6103,5.5033,5.2945,5.1721,5.1097,4.9278,4.9054,4.8857,4.8469,4.8816,5.0297,5.0356,5.0302,5.0196,5.0141,5.0742,5.1725,5.1889,5.3922,5.7659,5.888,6.0083,6.0782,6.1296,6.1945,6.057,5.9464,5.756,5.6884,5.5178,5.4314,5.3966,5.4252,5.4205,5.3181,5.5322,5.5111,5.4734,5.5511,5.6006,5.7119,5.7984,5.8017,5.5812,5.4366,5.2535,5.0863,4.8904,4.7417,4.6925,4.5796,4.3853,4.237,4.1288,4.1556,4.1785,4.1108,4.1024,4.069,3.771,3.4684,3.4202,3.3164,3.1789,3.0856,3.0856,3.0593,2.9879,2.9196,2.881,2.8768,2.8724,2.8589,2.8461,2.8955,2.9258,2.7974,2.6642,2.5754,2.4498,2.2257,2.0467,1.9694,1.8196,1.6156,5.6684,5.6272,5.7155,6.0505,6.4774,6.5269,6.4919,6.4407,6.4415,6.3923,6.2967,6.0935,6.0154,6.0041,5.7984,5.6974,5.6543,5.4851,5.3732,5.3991,5.4444,5.2387,5.2854,5.4153,5.5607,5.3266,5.5127,5.6583,5.436,5.691,5.6237,5.4716,5.4372,5.404,5.5775,5.2256,5.0727,5.1194,4.9769,4.9984,5.0742,5.1175,5.1175,5.123,5.1123,5.1999,5.2984,5.3367,5.5255,5.8461,5.9813,6.0555,6.1282,6.177,6.17,6.1123,6.0754,6.0385,6.0358,5.7384,5.5526,5.4389,5.3654,5.3386,5.3617,5.3897,5.3637,5.3347,5.4398,5.4479,5.4165,5.4291,5.4567,5.3927,5.2944,5.1566,5.0069,4.8327,4.7178,4.644,4.4922,4.3631,4.2257,4.1657,4.2339,4.2449,4.1615,4.0911,4.0508,3.8094,3.5097,3.3854,3.2355,3.0959,2.9619,2.9297,2.8695,2.7885,2.744,2.7325,2.7188,2.6753,2.6588,2.6732,2.6599,2.626,2.5323,2.446,2.3885,2.3025,2.0513,1.8252,1.7958,1.6921,1.5246,6.2985,6.2976,6.2993,6.3936,6.5439,6.6804,6.713,6.7009,6.7723,6.7458,6.6201,6.4893,6.4009,6.3083,6.1516,6.0342,5.8755,5.8635,5.7668,5.707,5.7091,5.7336,5.7224,5.7423,5.7683,5.7287,5.8448,5.9212,5.7757,5.943,5.9255,5.8485,5.7725,5.6771,5.6151,5.2316,4.9772,4.9772,4.9556,5.004,5.254,5.2706,5.2818,5.3426,5.3316,5.3977,5.425,5.4913,5.6708,5.9029,6.0784,6.1646,6.2755,6.3561,6.3479,6.2904,6.1983,6.0693,6.0828,5.9921,5.8844,5.5642,5.4279,5.2752,5.2311,5.3412,5.3145,5.2737,5.409,5.5495,5.5766,5.5467,5.534,5.3193,5.2254,5.0967,4.9448,4.7986,4.6855,4.6013,4.5087,4.4001,4.3094,4.314,4.405,4.4895,4.395,4.2809,4.1349,3.8266,3.5345,3.3372,3.1413,2.9732,2.8414,2.7807,2.705,2.6191,2.5665,2.5666,2.4979,2.442,2.4135,2.3914,2.3634,2.3098,2.2686,2.2268,2.1893,2.1186,1.8549,1.5669,1.5104,1.375,1.2693,6.5587,6.5724,6.8404,6.9476,6.9599,7.0269,7.0389,7.0238,7.0672,7.0283,6.908,6.7998,6.7104,6.6145,6.5035,6.3151,6.1734,6.2333,6.071,5.9865,5.9466,5.9492,5.9659,5.9255,5.9852,5.9374,6.0688,6.1465,6.0644,6.1445,6.2109,6.2634,6.1873,6.0656,5.92,5.7055,5.4641,5.359,5.2625,5.284,5.505,5.5508,5.574,5.6313,5.6199,5.6085,5.597,5.6085,5.8179,6.0333,6.152,6.2826,6.409,6.446,6.4643,6.4799,6.3869,6.3319,6.3548,6.3108,6.2119,5.8165,5.5701,5.3707,5.2401,5.2463,5.2451,5.2792,5.3143,5.3537,5.437,5.5138,5.5701,5.3531,5.1731,5.0351,4.8916,4.7457,4.6411,4.5932,4.511,4.4945,4.4886,4.4639,4.6049,4.7344,4.6065,4.4472,4.1288,3.8165,3.5543,3.3316,2.9911,2.7756,2.6194,2.5645,2.5218,2.454,2.3702,2.3097,2.2233,2.1754,2.1345,2.0978,2.0589,2.0806,2.0781,2.0212,1.8757,1.6783,1.4792,1.2951,1.1388,1.0009,0.8811,6.5984,6.6161,7.2996,7.5716,7.5811,7.5097,7.4262,7.3528,7.3105,7.2488,7.1711,7.0527,6.9978,6.9275,6.7723,6.645,6.5921,6.3457,6.2711,6.2308,6.1761,6.1403,6.1417,6.2319,6.301,6.1724,6.2686,6.2463,6.1792,6.3582,6.4861,6.5643,6.524,6.516,6.3684,6.1359,5.9686,5.7546,5.613,5.6685,5.7684,5.8323,5.844,5.867,5.8899,5.8949,5.8713,5.908,6.0341,6.1461,6.2514,6.3584,6.489,6.5093,6.5596,6.609,6.5657,6.6198,6.6673,6.632,6.4984,6.2988,6.0178,5.6941,5.4974,5.2785,5.166,5.2376,5.337,5.3179,5.2589,5.1873,5.3548,5.2867,5.2675,5.1619,5.1033,4.916,4.7931,4.6305,4.6096,4.6743,4.694,4.6364,4.7378,4.9141,4.8197,4.5098,4.1674,3.7951,3.5436,3.2186,2.8443,2.5709,2.3989,2.3644,2.3539,2.3049,2.2067,2.0961,1.9591,1.9044,1.8645,1.8029,1.7316,1.8294,1.8754,1.6167,1.3828,1.2248,1.088,0.9299,0.7858,0.6302,0.4981,7.4055,7.4524,7.6214,7.6986,7.7051,7.6571,7.6058,7.5568,7.5334,7.4953,7.4384,7.3927,7.334,7.2545,7.1098,6.936,6.7643,6.8449,6.7457,6.6742,6.678,6.6942,6.6365,6.572,6.6135,6.5689,6.572,6.5309,6.5344,6.6573,6.7966,6.8364,6.812,6.6956,6.5295,6.4092,6.274,6.0226,5.8552,5.8365,5.8837,5.9306,5.9482,5.9942,6.0286,6.04,5.9942,6.0457,6.1133,6.2238,6.31,6.4315,6.5695,6.5992,6.6418,6.7024,6.7705,6.8364,6.9383,6.963,6.8738,6.7201,6.4764,6.238,5.9539,5.7784,5.6699,5.5317,5.5453,5.5117,5.5175,5.504,5.4704,5.4151,5.3906,5.4218,5.4169,5.3347,5.2248,5.0766,4.9863,4.9921,4.963,4.8698,4.904,5.0786,4.8968,4.5644,4.1796,3.7733,3.4541,3.0867,2.7055,2.3543,2.2304,2.171,2.178,2.1425,2.0378,1.9144,1.7015,1.6117,1.5311,1.4434,1.3587,1.3576,1.274,1.0729,0.8723,0.7105,0.5738,0.498,0.3553,0.2556,0.0757,7.7031,7.7448,7.7588,7.7576,7.7464,7.7379,7.7192,7.7018,7.6942,7.6684,7.6423,7.6289,7.6032,7.5314,7.417,7.2563,7.1613,7.1863,7.1234,7.0325,7.0355,7.0788,7.07,6.9748,6.891,6.852,6.8346,6.8127,6.945,7.0418,7.1002,7.0835,7.0357,6.9249,6.8672,6.6758,6.508,6.3479,6.1606,6.0623,6.0397,6.0109,5.9994,6.0796,6.1079,6.1079,6.0967,6.1356,6.2019,6.2779,6.3943,6.5031,6.5795,6.6611,6.7306,6.807,6.9279,7.0439,7.158,7.2137,7.1586,7.0474,6.9362,6.7898,6.4672,6.1882,5.9779,5.9111,5.8308,5.7514,5.7186,5.7054,5.6644,5.6344,5.59,5.5946,5.5896,5.6088,5.6632,5.5251,5.4124,5.4383,5.4293,5.3114,5.2646,5.2044,4.8811,4.5795,4.2164,3.7696,3.3502,2.9428,2.4983,2.0735,1.9086,1.7362,1.6788,1.5475,1.445,1.4056,1.2782,1.2349,1.1219,1.0305,0.8595,0.7186,0.6086,0.4206,0.188,0.1017,0.0438,-0.1751,-0.3792,-0.4603,-0.5827,7.6695,7.6946,7.7261,7.7451,7.7287,7.7296,7.7479,7.7588,7.7472,7.7556,7.7164,7.7396,7.7395,7.707,7.6303,7.5857,7.522,7.4594,7.3814,7.3307,7.3089,7.3035,7.2695,7.214,7.1497,7.127,7.1045,7.207,7.3013,7.334,7.3359,7.3038,7.2697,7.2273,7.1257,6.963,6.8815,6.8063,6.5882,6.4153,6.3266,6.1704,6.1231,6.1547,6.1792,6.1741,6.1388,6.2444,6.316,6.3795,6.493,6.5596,6.5894,6.6834,6.7914,6.9332,7.1157,7.2767,7.2403,7.3051,7.3365,7.3565,7.2951,7.142,6.933,6.6483,6.3991,6.2799,6.1355,6.0407,5.9672,5.8839,5.7991,5.8053,5.8685,5.86,5.8693,6.0307,6.0518,5.941,5.8654,5.8818,5.8689,5.7257,5.5475,5.1991,4.8733,4.5888,4.2314,3.7324,3.2839,2.6549,2.154,1.5931,1.3201,1.1009,0.9795,0.8086,0.7655,0.7522,0.708,0.6773,0.6193,0.4504,0.2689,0.1035,-0.1607,-0.3749,-0.4976,-0.6153,-0.6824,-0.8742,-1.0765,-1.1971,-1.2662,7.4256,7.4455,7.4884,7.5116,7.5281,7.5568,7.5748,7.5933,7.6591,7.6807,7.6842,7.7245,7.7629,7.7704,7.7471,7.7217,7.6868,7.623,7.5838,7.5638,7.5473,7.5467,7.5314,7.4833,7.4122,7.3862,7.3731,7.421,7.5353,7.5571,7.5467,7.5194,7.4634,7.3961,7.3168,7.1999,7.0564,6.9599,6.8238,6.7591,6.6735,6.569,6.4464,6.2259,6.3231,6.2875,6.169,6.3067,6.4276,6.4784,6.5804,6.7054,6.8225,6.8806,6.9036,6.912,7.043,7.2169,7.2998,7.3946,7.4428,7.5428,7.6124,7.5686,7.4059,7.1708,6.9792,6.719,6.5715,6.4793,6.3034,6.266,6.2123,6.176,6.2106,6.3075,6.3335,6.3756,6.383,6.3556,6.3273,6.2857,6.2415,6.0985,5.7933,5.4528,5.0033,4.7099,4.1804,3.6827,2.9877,2.3426,1.7044,1.138,0.639,0.3929,0.2925,0.1328,0.0742,0.0897,0.09,0.0752,-0.075,-0.239,-0.4316,-0.7676,-1.0214,-1.2648,-1.2492,-1.2735,-1.4003,-1.5219,-1.6653,-1.7875,-1.8917,6.8537,6.937,7.0578,7.1363,7.2022,7.3196,7.3824,7.3943,7.4836,7.5406,7.5873,7.6367,7.6881,7.7401,7.7472,7.7517,7.7464,7.7229,7.7149,7.711,7.7177,7.7153,7.6937,7.6797,7.6423,7.6263,7.6428,7.693,7.7241,7.72,7.7095,7.6927,7.6481,7.5931,7.5104,7.423,7.3359,7.2347,7.1105,6.9709,6.7824,6.7105,6.5294,6.339,6.3311,6.3188,6.2259,6.3609,6.4163,6.4141,6.5592,6.6579,6.688,6.7195,6.7808,6.88,7.0346,7.1658,7.1706,7.2527,7.3123,7.4486,7.5243,7.5567,7.5364,7.5084,7.3883,7.1445,7.0064,6.7891,6.59,6.5095,6.4402,6.3873,6.3874,6.4602,6.5616,6.6433,6.6529,6.6384,6.6153,6.6018,6.5741,6.3109,6.0171,5.6273,5.1775,4.6727,4.1363,3.4344,2.6534,1.9765,1.2619,0.5556,-0.1969,-0.2966,-0.3693,-0.5345,-0.6142,-0.5916,-0.5949,-0.73,-0.8495,-1.0924,-1.374,-1.7197,-1.9022,-1.9144,-1.892,-1.8941,-2.0145,-2.1377,-2.2631,-2.3837,-2.4794,6.2128,6.335,6.5279,6.6504,6.7422,6.968,7.0546,7.1091,7.2021,7.3136,7.3698,7.4377,7.5043,7.5644,7.6153,7.6611,7.6764,7.7293,7.7646,7.7825,7.7972,7.8076,7.8059,7.7914,7.782,7.7838,7.8234,7.8481,7.8484,7.8556,7.8299,7.8098,7.7849,7.7579,7.6991,7.6627,7.5531,7.3945,7.3229,7.1238,6.9094,6.7918,6.6468,6.3231,6.2733,6.2222,6.1906,6.251,6.2921,6.2074,6.4241,6.0602,5.344,5.4774,5.71,5.9005,6.2859,6.6516,6.6462,6.7872,6.9226,7.052,7.1266,7.2152,7.3552,7.4342,7.4145,7.3035,7.1516,6.9156,6.7255,6.6429,6.5608,6.5023,6.4911,6.538,6.5829,6.6074,6.6317,6.7024,6.8372,6.884,6.6581,6.4164,6.107,5.7315,5.295,4.8049,4.0556,3.1979,2.2286,1.3976,0.7074,-0.1915,-0.9898,-1.0167,-1.0724,-1.2591,-1.2732,-1.2578,-1.3572,-1.5032,-1.8509,-2.2255,-2.5429,-2.629,-2.5714,-2.5353,-2.5381,-2.5742,-2.6691,-2.7613,-2.8623,-2.9752,-3.0797,5.7374,5.7754,5.9014,5.9852,6.0789,6.3063,6.4459,6.5438,6.807,6.8762,6.9249,7.0808,7.1028,7.1542,7.2449,7.3587,7.4552,7.5661,7.7046,7.7716,7.8097,7.8508,7.8663,7.8512,7.8202,7.8524,7.8852,7.9021,7.8956,7.9111,7.9079,7.913,7.8669,7.7015,7.7194,7.7095,7.3288,6.9315,6.8903,6.8236,6.5853,6.5653,6.2976,5.8742,5.6659,5.4809,5.3626,5.5481,5.8663,6.089,6.1418,4.4412,2.7692,2.5239,3.437,3.3711,4.8611,5.5099,5.6696,5.9294,6.1913,6.5791,6.6078,6.7254,6.9302,7.0104,7.1234,7.1656,7.1012,6.825,6.7183,6.6248,6.6151,6.5775,6.6471,6.6857,6.654,6.5792,6.4626,6.5445,6.5615,6.5107,6.4198,6.4903,6.1704,5.8384,5.4216,4.8609,3.8958,2.8903,1.532,0.5327,-0.3509,-1.2611,-1.706,-1.8185,-1.8808,-1.9713,-1.9364,-1.9705,-2.0598,-2.3729,-2.771,-3.2484,-3.4298,-3.4024,-3.354,-3.249,-3.2164,-3.2813,-3.3212,-3.3499,-3.4456,-3.5575,-3.6222,4.9454,4.9644,5.1942,5.3095,5.3868,5.6597,5.8213,5.9118,6.1207,6.2339,6.3137,6.4643,6.5736,6.6418,6.7797,6.9373,7.075,7.2251,7.4058,7.6164,7.7423,7.8262,7.8798,7.8025,7.7444,7.7721,7.8296,7.8702,7.8804,7.9021,7.9339,7.9405,7.9204,7.5461,6.6973,6.5103,6.0571,5.2585,4.9239,4.785,4.4126,4.2743,3.9559,3.5214,3.1131,2.8527,2.8308,2.9722,3.0177,2.8751,2.6039,1.6224,0.5239,0.9537,1.5574,1.8792,3.1019,3.8189,4.3721,4.6801,5.0583,5.4678,5.7377,5.9227,6.0744,6.3263,6.5247,6.6691,6.6309,6.5275,6.4944,6.4175,6.2258,6.1737,6.2519,6.3012,6.0897,5.651,5.4122,5.7128,5.9922,5.9557,6.1166,6.3895,6.0842,4.9324,4.5307,4.4284,3.4782,2.0686,0.7376,-0.7049,-1.5451,-2.085,-2.4555,-2.6388,-2.7048,-2.6501,-2.6446,-2.7337,-2.921,-3.305,-3.688,-3.8839,-4.0871,-4.0905,-3.9861,-3.9132,-3.8344,-3.8263,-3.8347,-3.9266,-4.0142,-4.1363,-4.2115,4.0927,4.1177,4.4248,4.5857,4.6807,4.9479,5.1127,5.1997,5.3809,5.5248,5.6275,5.7865,5.9246,6.0574,6.2276,6.4145,6.572,6.7902,6.9981,7.3122,7.4989,7.6864,7.735,7.6154,7.5685,7.6343,7.724,7.7774,7.8146,7.8531,7.9117,7.9211,7.8273,7.15,5.7905,5.5647,4.4631,2.9076,2.5285,2.4237,2.1075,1.8073,1.4492,0.9939,0.5713,0.1467,-0.073,0.0205,-0.3148,-1.0291,-1.5279,-1.6996,-1.7233,-1.1224,-0.5956,-0.0554,0.8722,1.9544,2.5366,3.0812,3.6518,4.1966,4.5773,4.918,5.0735,5.3932,5.6306,5.8629,5.8936,5.9252,6.0034,5.8906,5.6756,5.4877,5.5323,5.4932,5.0557,4.4622,4.3029,4.5439,4.8866,4.9701,4.415,5.1244,4.8705,4.123,3.7786,3.7655,2.6398,1.2107,-0.4557,-2.264,-2.8582,-3.0628,-3.3547,-3.4437,-3.429,-3.3482,-3.4128,-3.5128,-3.8653,-4.241,-4.4876,-4.6512,-4.7306,-4.6263,-4.5209,-4.4465,-4.371,-4.3297,-4.3132,-4.4081,-4.5245,-4.7044,-4.81,3.3466,3.3466,3.5698,3.7509,3.9104,4.103,4.2727,4.4653,4.7347,4.8632,4.9138,5.091,5.2178,5.3196,5.5757,5.8059,5.9808,6.3111,6.5522,6.8102,7.0406,7.3142,7.401,7.3245,7.3552,7.4479,7.5354,7.5982,7.6612,7.7611,7.8156,7.7917,7.8063,7.0018,5.522,4.922,4.0402,2.2396,1.3122,0.8125,0.4784,0.1683,-0.2207,-0.5708,-0.753,-0.8455,-0.9161,-0.9447,-2.0276,-5.1587,-5.5683,-5.222,-5.0104,-3.8676,-3.2491,-2.8006,-1.232,0.0656,0.5703,1.2976,2.0675,2.8699,3.2852,3.6858,4.135,4.3468,4.5747,4.934,5.0232,5.1425,5.2951,5.2955,5.0437,4.7212,4.5449,4.0926,3.4045,3.2446,3.386,3.4903,3.3471,3.1827,2.9185,2.8214,2.7909,2.4139,2.3662,2.0249,0.9724,-0.0621,-1.4951,-3.2293,-3.7318,-3.9876,-4.1427,-4.235,-4.1194,-4.0667,-4.1517,-4.283,-4.6335,-5.0264,-5.2763,-5.3427,-5.2274,-5.1239,-5.0405,-4.9804,-4.9124,-4.8752,-4.9116,-4.9651,-5.0356,-5.2382,-5.3203,2.6504,2.6033,2.8832,3.0154,3.0393,3.2162,3.4173,3.6242,3.8444,4.0062,4.1499,4.3333,4.4812,4.6011,4.8632,5.1445,5.4663,5.7476,6.0691,6.3449,6.4217,6.6426,6.8995,6.9733,7.0294,7.1497,7.2408,7.3378,7.4496,7.5241,7.5968,7.5688,7.0608,5.8452,4.273,2.9669,1.2858,-0.4658,-1.4712,-2.0038,-2.3219,-2.6439,-2.9595,-3.2853,-3.4655,-3.6376,-3.8561,-3.8266,-4.4646,-5.7821,-6.2686,-6.275,-6.1569,-5.3151,-4.8165,-4.6349,-3.3083,-2.0491,-1.3898,-0.5668,0.3593,1.2898,1.9624,2.4263,2.8862,3.2873,3.5137,3.8226,3.9915,4.1906,4.4147,4.5106,4.2783,3.8193,3.0674,2.2255,1.3755,1.5403,1.7651,1.9787,1.9758,1.7542,1.2459,1.7578,1.4903,0.9347,0.8352,0.2974,-0.6099,-1.3027,-2.2799,-3.4868,-4.2438,-4.6071,-4.8283,-4.8094,-4.7023,-4.7697,-4.8481,-4.9176,-5.3089,-5.7774,-5.8574,-5.7892,-5.7179,-5.6366,-5.5728,-5.5088,-5.4516,-5.4489,-5.5444,-5.5986,-5.6657,-5.8033,-5.8076,1.8509,1.8062,2.1015,2.2077,2.2091,2.3899,2.5886,2.7976,2.9715,3.1678,3.3513,3.5508,3.6898,3.8108,4.0954,4.4206,4.7742,5.1201,5.5396,5.8405,5.6403,5.8122,6.2198,6.3891,6.5358,6.717,6.8131,6.972,7.1508,7.2135,7.2679,7.3088,6.5862,5.1507,2.9326,1.3681,-0.785,-2.9756,-4.0849,-4.671,-4.8705,-5.2011,-5.6628,-5.923,-5.9418,-6.1063,-6.4037,-6.3384,-6.334,-6.4089,-6.3158,-6.3158,-6.3318,-5.952,-5.5974,-5.3458,-4.6293,-3.8335,-2.9685,-2.151,-1.1925,-0.1245,0.5982,1.1705,1.6664,2.1503,2.4625,2.7201,2.9125,3.1843,3.4727,3.6353,3.4834,2.9128,2.0025,1.0248,0.375,0.1504,0.2697,0.5705,0.5036,0.1344,-0.1625,0.0,0.0478,-0.671,-0.6884,-0.6031,-1.7465,-2.5834,-3.3429,-4.32,-4.8233,-5.2104,-5.4283,-5.363,-5.3485,-5.4051,-5.5055,-5.5754,-5.9645,-6.2789,-6.2222,-6.2041,-6.0996,-6.0695,-6.032,-6.0337,-6.0136,-5.9676,-6.0359,-6.0828,-6.1826,-6.2257,-6.2214,0.9099,0.893,1.1266,1.3066,1.4194,1.6274,1.8299,2.0445,2.2663,2.4349,2.5704,2.8101,2.8897,2.9854,3.3214,3.6012,3.862,4.4423,4.8932,4.9606,4.9335,4.9963,5.4475,5.6882,5.9255,6.1747,6.2483,6.4318,6.643,6.736,6.8787,6.7211,6.4642,5.236,2.4534,1.149,-0.9808,-3.651,-5.1254,-5.7482,-5.818,-6.2142,-6.4661,-6.513,-6.5363,-6.5797,-6.6242,-6.5402,-6.4133,-6.2427,-6.2311,-6.2312,-6.2244,-6.1135,-5.9215,-5.7875,-5.3423,-4.6882,-4.1206,-3.3166,-2.4122,-1.3141,-0.6451,-0.0142,0.7,1.0645,1.3648,1.6978,1.8966,2.1636,2.5462,2.725,2.6427,2.3503,1.4365,0.6117,-0.0468,-0.5047,-0.6239,-0.6961,-1.0909,-1.5457,-1.8196,-1.9115,-2.0703,-2.503,-2.6223,-2.6953,-3.3852,-3.7805,-4.6314,-5.0829,-5.3987,-5.7034,-5.8411,-5.7867,-5.7954,-5.9117,-6.1165,-6.2819,-6.5863,-6.5545,-6.4711,-6.502,-6.4812,-6.4688,-6.4696,-6.5007,-6.5023,-6.4805,-6.4871,-6.5195,-6.5527,-6.5713,-6.5503,0.3029,0.1999,0.3552,0.4428,0.4918,0.7419,0.9564,1.1743,1.5635,1.8288,2.0085,2.2397,2.3208,2.3256,2.5151,2.7477,3.0031,3.5688,3.9328,4.0842,4.3162,4.6726,4.9666,5.1767,5.3616,5.4697,5.4415,5.5227,5.7301,5.7779,5.7937,5.6721,5.3848,3.8448,1.351,-0.1524,-2.0673,-4.506,-5.7932,-6.3701,-6.4542,-6.6498,-6.7635,-6.7408,-6.6813,-6.6145,-6.5487,-6.454,-6.3297,-6.2177,-6.1039,-6.0376,-5.9774,-5.8724,-5.8042,-5.7429,-5.4881,-5.1747,-4.8263,-4.1652,-3.38,-2.5657,-1.8326,-1.0978,-0.3647,0.1669,0.4422,0.7448,0.9991,1.3076,1.6379,1.8147,1.6832,1.2895,0.7643,0.2725,-0.319,-0.9065,-1.2633,-1.5235,-1.8208,-2.2235,-2.5913,-2.7997,-3.0695,-3.3771,-3.5795,-3.8413,-4.2841,-4.7269,-5.1081,-5.4725,-5.8208,-6.0331,-6.1851,-6.2393,-6.2426,-6.3896,-6.5627,-6.7001,-6.8275,-6.7185,-6.6858,-6.7036,-6.7473,-6.7248,-6.7705,-6.8413,-6.895,-6.9785,-6.9768,-6.9327,-6.8519,-6.8804,-6.734,-0.2807,-0.378,-0.2921,-0.2495,-0.2351,0.0,0.2152,0.4278,0.7878,1.1181,1.3685,1.5833,1.6432,1.6381,1.7909,2.0076,2.2374,2.4333,2.7534,3.1595,3.8049,4.2734,4.5122,4.7316,4.7874,4.7269,4.6005,4.6172,4.7647,4.7329,4.661,4.5074,4.0399,2.4691,0.1373,-1.2886,-3.1295,-5.3406,-6.3094,-6.709,-6.768,-6.8462,-6.8642,-6.809,-6.6934,-6.5982,-6.5249,-6.3504,-6.2173,-6.1179,-5.9892,-5.8771,-5.8021,-5.7136,-5.7048,-5.7273,-5.5637,-5.4066,-5.2707,-4.8218,-4.2577,-3.6057,-2.9351,-2.1732,-1.3523,-0.7583,-0.329,-0.0307,0.2355,0.559,0.8653,1.0819,0.9201,0.3137,0.0827,-0.2472,-0.7826,-1.3174,-1.759,-2.0942,-2.4125,-2.6997,-2.9818,-3.2473,-3.4449,-3.6569,-3.8584,-4.0843,-4.4873,-4.8933,-5.3458,-5.7164,-6.0672,-6.3289,-6.5225,-6.6389,-6.5297,-6.5073,-6.6047,-6.7096,-6.8059,-6.8039,-6.8316,-6.8648,-6.9319,-6.9684,-7.0264,-7.0731,-7.1096,-7.1698,-7.1844,-7.1724,-7.1606,-7.0283,-6.8398,-0.8578,-0.8723,-0.7954,-0.7849,-0.7495,-0.5659,-0.3366,-0.1575,0.0,0.2963,0.6276,0.7729,0.8778,0.8787,1.1125,1.3622,1.4482,1.2694,1.5481,2.2566,3.0867,3.634,3.9795,4.2535,4.2772,4.051,3.8113,3.8201,3.957,3.769,3.5588,3.3143,2.9338,1.4918,-1.0846,-2.0774,-3.7136,-5.6645,-6.5868,-6.881,-6.8698,-6.886,-6.8683,-6.7902,-6.6869,-6.6422,-6.6717,-6.3803,-6.1597,-5.997,-5.908,-5.8316,-5.7633,-5.7198,-5.7198,-5.7022,-5.6306,-5.6023,-5.6079,-5.4109,-4.9911,-4.4053,-3.8727,-3.1262,-2.2431,-1.602,-1.0864,-0.7085,-0.4323,-0.1299,0.2581,0.4534,0.2969,-0.2745,-0.494,-0.8096,-1.3165,-1.7235,-2.0992,-2.4812,-2.7648,-3.0656,-3.2427,-3.4259,-3.5996,-3.7051,-3.914,-4.1851,-4.4273,-4.8417,-5.3259,-5.7361,-6.0345,-6.315,-6.6888,-6.9921,-6.7563,-6.5862,-6.6363,-6.7287,-6.8337,-6.8589,-6.8759,-6.8658,-6.9147,-7.0496,-7.1026,-7.2442,-7.2851,-7.113,-7.2628,-7.2667,-7.2211,-7.1428,-6.9463,-1.4488,-1.5833,-1.6638,-1.6686,-1.5769,-1.3412,-1.1281,-0.9448,-0.4772,-0.1666,0.0674,0.4537,0.482,0.2782,0.3519,0.3974,0.3534,0.5013,1.0282,1.883,2.5473,3.1347,3.575,3.7904,3.7234,3.479,3.2542,2.9725,2.6939,2.6268,2.4381,2.1478,2.1418,0.708,-1.7008,-2.4659,-3.9572,-6.0981,-6.79,-6.9215,-6.9106,-6.9907,-7.0189,-6.9433,-6.8274,-6.7534,-6.7115,-6.5164,-6.3041,-6.0932,-5.9161,-5.8062,-5.772,-5.6577,-5.6275,-5.703,-5.7083,-5.7396,-5.802,-5.7287,-5.4415,-4.8943,-4.4023,-3.7874,-2.9729,-2.3464,-1.8784,-1.5108,-1.215,-0.8892,-0.5644,-0.4339,-0.4591,-0.5858,-0.7569,-1.0775,-1.5698,-1.9609,-2.3213,-2.615,-2.8066,-3.0215,-3.299,-3.3948,-3.5588,-3.8431,-3.9524,-4.1127,-4.3389,-4.7021,-5.0842,-5.3754,-5.7703,-6.1335,-6.3392,-6.5863,-6.5066,-6.5525,-6.6214,-6.7707,-6.8767,-6.8638,-6.8534,-6.8362,-6.9006,-7.0428,-7.1997,-7.3585,-7.2136,-6.9091,-6.9904,-7.1623,-7.1787,-7.1716,-6.9993,-1.7934,-1.9325,-2.1055,-2.1638,-2.095,-1.9554,-1.76,-1.5454,-1.0758,-0.7101,-0.3892,0.0168,0.0499,-0.2136,-0.3721,-0.4695,-0.4753,-0.1313,0.5228,1.4197,2.0635,2.6859,3.243,3.3615,3.2735,3.0214,2.7282,2.2504,1.6677,1.5015,1.3127,1.0705,0.8734,-0.4047,-2.4701,-3.1821,-4.4596,-6.5436,-6.8886,-6.9239,-6.9023,-6.9842,-7.0779,-7.1175,-6.9999,-6.8999,-6.8547,-6.6116,-6.366,-6.1098,-5.9097,-5.7829,-5.7198,-5.6095,-5.6144,-5.7636,-5.8326,-5.9074,-6.0299,-5.9936,-5.773,-5.3584,-4.9138,-4.3281,-3.6594,-2.9813,-2.4798,-2.1821,-1.8215,-1.509,-1.2658,-1.182,-1.0779,-0.9103,-1.0065,-1.3079,-1.753,-2.1667,-2.5035,-2.7133,-2.8513,-3.0261,-3.3096,-3.3838,-3.4822,-3.7674,-3.9197,-4.0814,-4.2843,-4.5981,-4.9578,-5.2644,-5.5907,-5.8462,-5.9268,-6.1051,-6.2914,-6.3809,-6.4721,-6.4991,-6.5048,-6.447,-6.4859,-6.4308,-6.6337,-6.7661,-6.8039,-6.9499,-6.8721,-6.6653,-6.8137,-6.959,-6.9876,-7.0935,-6.9856,-1.9119,-1.9775,-2.1913,-2.3174,-2.3362,-2.3936,-2.242,-1.9642,-1.8285,-1.4187,-0.8286,-0.5955,-0.5224,-0.6214,-1.056,-1.1592,-0.9883,-0.6742,-0.0653,0.7726,1.5578,2.2694,2.8625,2.9598,2.8814,2.6178,2.1859,1.615,0.9627,0.5409,0.2266,0.0454,-0.6661,-1.8509,-3.2316,-4.1063,-5.3108,-6.6241,-6.8993,-6.9298,-6.8773,-6.8715,-7.0183,-7.2468,-7.1448,-7.0483,-7.009,-6.686,-6.3378,-6.0235,-5.887,-5.7633,-5.6277,-5.6064,-5.6887,-5.882,-5.9669,-6.0916,-6.2733,-6.232,-6.0757,-5.8166,-5.3204,-4.8223,-4.237,-3.4356,-2.8897,-2.7306,-2.2857,-1.9719,-1.8493,-1.6863,-1.4576,-1.1492,-1.2993,-1.5919,-1.9508,-2.3482,-2.6451,-2.8299,-2.9752,-3.1336,-3.326,-3.4404,-3.4618,-3.5619,-3.7802,-4.0027,-4.1512,-4.4622,-4.8313,-5.2342,-5.5421,-5.7328,-5.4218,-5.5809,-5.6827,-5.8078,-5.9698,-5.8991,-5.8925,-5.9176,-5.9673,-6.0617,-6.2974,-6.4387,-6.4701,-6.4623,-6.4228,-6.5253,-6.6683,-6.7485,-6.7974,-6.9631,-7.0052,-2.1829,-2.3332,-2.5133,-2.7061,-2.8878,-2.8998,-2.7547,-2.5196,-2.4661,-2.0843,-1.4829,-1.2876,-1.3335,-1.5836,-1.7227,-1.773,-1.6523,-1.2043,-0.6071,0.1008,0.942,1.5032,1.8441,2.2583,2.3096,1.9487,1.5885,1.2525,0.9495,0.4153,-0.1207,-0.6309,-1.3839,-2.4222,-3.6512,-4.5719,-5.5593,-6.5866,-6.8696,-6.9502,-6.9128,-6.9072,-7.0322,-7.2575,-7.0871,-6.9588,-6.9586,-6.6267,-6.2947,-6.0048,-5.844,-5.7373,-5.6995,-5.6338,-5.6703,-5.823,-6.0232,-6.2017,-6.3662,-6.3681,-6.2206,-5.8739,-5.4067,-4.9466,-4.4198,-3.6076,-3.109,-3.0656,-2.8431,-2.5525,-2.3262,-2.005,-1.707,-1.4761,-1.538,-1.7777,-2.1297,-2.5264,-2.8102,-2.9225,-3.0058,-3.0474,-3.052,-3.1585,-3.3048,-3.4019,-3.5313,-3.631,-3.7171,-3.9635,-4.2667,-4.5763,-4.9118,-5.0971,-5.1621,-5.3024,-5.4662,-5.5877,-5.6959,-5.7648,-5.7975,-5.8683,-5.9097,-5.9531,-6.0223,-6.1457,-6.3403,-6.2484,-6.1522,-6.34,-6.4444,-6.4853,-6.5678,-6.9107,-6.9953,-2.256,-2.4236,-2.598,-2.9065,-3.2525,-3.2397,-3.1382,-2.9942,-2.9144,-2.5277,-1.9886,-1.97,-2.0222,-2.0783,-2.0783,-2.0783,-2.0448,-1.5989,-1.0438,-0.3741,0.2041,0.7326,1.1763,1.6739,1.7647,1.4744,1.1615,0.8952,0.6043,0.1099,-0.3969,-0.9049,-1.7609,-2.6922,-3.7075,-4.6972,-5.6737,-6.6228,-6.8711,-6.9669,-6.9584,-7.0,-7.1043,-7.2188,-7.0617,-6.9443,-6.8624,-6.617,-6.3176,-6.0191,-5.8189,-5.7198,-5.7285,-5.6034,-5.6084,-5.7791,-5.8975,-6.0398,-6.2574,-6.3403,-6.2563,-5.9885,-5.4444,-4.9823,-4.6154,-3.8172,-3.33,-3.3508,-3.095,-2.7685,-2.4162,-2.1042,-1.8168,-1.6187,-1.6801,-1.8736,-2.1592,-2.5059,-2.7918,-2.8949,-2.9718,-2.9809,-2.9223,-3.0542,-3.221,-3.3259,-3.4127,-3.484,-3.5364,-3.735,-3.9737,-4.237,-4.5419,-4.8217,-5.0693,-5.2562,-5.4076,-5.5336,-5.6417,-5.7295,-5.7748,-5.8425,-5.9,-5.9356,-5.9794,-6.0775,-6.2671,-6.1031,-6.0213,-6.131,-6.2177,-6.2493,-6.2993,-6.6785,-6.8902,-2.2048,-2.3434,-2.5171,-2.9452,-3.4463,-3.4258,-3.4134,-3.4069,-3.2124,-2.8271,-2.4285,-2.6349,-2.5603,-2.2999,-2.2665,-2.2687,-2.2331,-1.9101,-1.4052,-0.7843,-0.4945,0.0342,0.739,1.1182,1.2425,1.1568,0.8345,0.4892,0.1509,-0.2745,-0.6403,-1.0035,-1.9452,-2.8304,-3.6374,-4.6982,-5.7336,-6.7129,-6.9294,-7.0204,-7.0312,-7.1367,-7.1952,-7.1949,-7.0719,-6.9477,-6.8434,-6.612,-6.3333,-6.029,-5.7873,-5.6694,-5.6845,-5.5328,-5.536,-5.754,-5.6691,-5.7399,-6.0493,-6.1869,-6.1991,-6.0561,-5.4347,-4.959,-4.7477,-4.0898,-3.6738,-3.5594,-3.1809,-2.7886,-2.3655,-2.183,-1.9614,-1.6976,-1.7791,-1.9275,-2.1271,-2.4095,-2.6849,-2.7744,-2.936,-2.9816,-2.9437,-3.0741,-3.242,-3.3015,-3.376,-3.4727,-3.58,-3.7655,-3.9694,-4.2284,-4.5186,-4.8203,-5.0848,-5.2724,-5.4314,-5.5481,-5.6466,-5.7202,-5.7844,-5.8433,-5.8883,-5.9149,-5.9565,-5.992,-6.032,-6.0086,-6.0132,-6.0667,-6.0546,-6.0688,-6.3028,-6.5966,-6.7782,-2.3181,-2.3528,-2.5443,-2.7572,-3.0308,-3.4087,-3.5954,-3.6006,-3.4736,-3.3284,-3.2018,-3.0028,-2.8924,-2.8111,-2.669,-2.6196,-2.5701,-2.2434,-1.7966,-1.2294,-0.6319,-0.1718,0.225,0.8145,0.9716,0.7461,0.3624,0.0512,-0.2021,-0.5511,-0.8134,-1.0264,-2.0036,-3.0386,-4.0127,-4.9578,-5.8962,-6.7927,-7.1849,-7.3726,-7.3653,-7.2742,-7.2713,-7.3359,-7.0464,-6.8497,-6.7905,-6.381,-6.0779,-5.9129,-5.6571,-5.5295,-5.5355,-5.4919,-5.5324,-5.6513,-5.6395,-5.7045,-5.8728,-5.9143,-5.9107,-5.8513,-5.2433,-4.8989,-4.9119,-4.3755,-3.9352,-3.7719,-3.4777,-3.173,-2.8821,-2.5443,-2.2386,-2.0753,-2.0177,-2.0788,-2.2886,-2.5534,-2.7975,-2.954,-2.9763,-2.9987,-3.0522,-3.1055,-3.1739,-3.2643,-3.3652,-3.479,-3.5905,-3.7607,-4.0302,-4.3561,-4.7081,-4.9842,-5.1573,-5.3295,-5.5103,-5.7303,-5.6995,-5.7332,-5.8215,-5.8489,-5.8592,-5.9058,-6.0267,-6.0851,-6.0147,-6.0775,-6.1066,-6.0041,-5.9833,-6.0025,-6.1001,-6.457,-6.8006,-2.327,-2.3969,-2.6361,-2.8037,-2.9794,-3.5423,-3.8268,-3.8653,-3.7466,-3.654,-3.5574,-3.3411,-3.1662,-3.073,-2.9952,-2.9304,-2.8979,-2.5579,-2.0978,-1.501,-0.8183,-0.3266,0.0348,0.6429,0.7649,0.4694,0.2257,-0.0173,-0.2906,-0.6263,-0.849,-0.9884,-1.4625,-2.4211,-3.719,-4.7149,-5.7567,-6.8489,-7.4183,-7.6309,-7.4864,-7.3936,-7.3423,-7.3299,-7.0395,-6.8096,-6.6718,-6.3174,-6.0185,-5.7852,-5.524,-5.3845,-5.3941,-5.3415,-5.3665,-5.4859,-5.5767,-5.7095,-5.8905,-5.987,-6.0441,-6.0456,-5.4415,-5.1279,-5.3007,-4.6045,-4.0915,-3.9284,-3.604,-3.3095,-3.0496,-2.7213,-2.4525,-2.3283,-2.214,-2.2592,-2.5128,-2.7257,-2.9211,-3.1214,-3.1328,-3.1286,-3.1605,-3.1525,-3.1858,-3.2561,-3.3477,-3.4796,-3.6649,-3.9294,-4.2153,-4.5665,-4.8639,-5.0979,-5.2726,-5.4463,-5.6447,-5.8323,-5.8523,-5.8835,-5.8958,-5.9378,-5.9528,-5.9871,-6.0876,-6.1406,-6.1092,-6.1714,-6.1489,-6.0313,-5.9898,-5.9908,-5.9889,-6.2061,-6.5005,-2.325,-2.4251,-2.7173,-2.908,-3.0563,-3.6916,-4.0012,-4.0692,-3.9789,-3.8537,-3.6968,-3.5608,-3.3916,-3.2171,-3.1852,-3.1692,-3.1182,-2.8247,-2.3462,-1.6826,-1.1244,-0.5835,-0.0521,0.4685,0.5383,0.2087,0.2259,0.0347,-0.3471,-0.5966,-0.8096,-0.955,-0.7932,-1.461,-2.9573,-4.2057,-5.4914,-6.8293,-7.5339,-7.7511,-7.4923,-7.4576,-7.3824,-7.2273,-7.0416,-6.813,-6.5388,-6.3408,-6.0754,-5.7469,-5.4954,-5.3473,-5.3218,-5.249,-5.2129,-5.2836,-5.4415,-5.6396,-5.8458,-6.0452,-6.1891,-6.2335,-5.7176,-5.4451,-5.5633,-4.8253,-4.2772,-4.1309,-3.7552,-3.3721,-3.1286,-2.9198,-2.7165,-2.5354,-2.4311,-2.4707,-2.7007,-2.8595,-3.0268,-3.2804,-3.3115,-3.2753,-3.2545,-3.2451,-3.2561,-3.289,-3.376,-3.484,-3.7561,-4.1053,-4.4681,-4.8073,-5.0472,-5.2298,-5.4228,-5.6284,-5.8177,-5.948,-6.0771,-6.0963,-6.0655,-6.062,-6.0711,-6.1246,-6.1934,-6.2165,-6.1907,-6.2385,-6.1928,-6.0245,-5.9858,-5.9905,-5.9758,-6.0926,-6.2515,-2.4617,-2.4435,-2.619,-2.7849,-2.9441,-3.554,-3.8319,-3.8726,0.0,0.0,0.0,-3.5798,-3.4389,-3.3916,-3.2171,-3.1372,-3.1211,-2.9628,-2.5719,-2.0272,-1.8541,-1.2584,-0.3298,0.0,0.0348,-0.1565,-0.0174,-0.2261,-0.7129,-0.4849,-0.5818,-0.9597,-0.619,-0.8027,-1.664,-3.6021,-5.323,-6.7012,-7.2515,-7.501,-7.4708,-7.3417,-7.2632,-7.2324,-7.0426,-6.8374,-6.6149,-6.4208,-6.2496,-6.1004,-5.9323,-5.7437,-5.5309,-5.5368,-5.4159,-5.1465,-5.1695,-5.2134,-5.2357,-5.4533,-5.6093,-5.688,-5.5556,-5.4892,-5.5146,-5.0654,-4.7202,-4.6019,-4.2492,-3.9601,-3.7611,-3.4824,-3.1717,-2.8252,-2.7985,-2.794,-2.7922,-2.875,-3.109,-3.4563,-3.4077,-3.3437,-3.4278,-3.3825,-3.3477,-3.3544,-3.4577,-3.5996,-3.7315,-4.1053,-4.5705,-5.0489,-5.333,-5.5383,-5.6634,-5.8467,-6.0466,-6.2222,-6.2027,-6.2043,-6.2811,-6.1938,-6.1438,-6.2697,-6.3552,-6.3312,-6.2435,-6.3199,-6.3173,-6.0327,-5.979,-5.9874,-6.0101,-6.3023,-6.7141,-2.7117,0.0,-2.8597,-2.9961,0.0,-3.5648,-3.8103,-3.9146,-4.1549,-4.2034,-4.0992,-3.8115,-3.6695,-3.654,-3.4827,-3.4074,-3.3791,-3.1532,-2.7679,-2.2428,-1.8842,-1.2572,-0.3991,-0.1045,0.0174,0.0,0.0,-0.1394,-0.4003,-0.2432,-0.3106,-0.5461,0.0,0.0978,-0.308,-2.3231,-4.5239,-6.8296,-7.2994,-7.5079,-7.4589,-7.3042,-7.2285,-7.2278,-7.0497,0.0,0.0,0.0,0.0,0.0,0.0,0.0,0.0,0.0,0.0,-5.1592,-5.2552,-5.2808,-5.215,-5.4795,-5.6432,-5.6528,-5.6086,-5.392,-4.9096,-4.7017,-4.5489,-4.4562,-4.3833,-4.2241,-3.9601,-3.8399,-3.5794,-3.1226,-3.0591,-3.0772,-3.0906,-3.1499,-3.3285,-3.6226,-3.5697,-3.4845,-3.5348,-3.4577,-3.4192,-3.4406,-3.5425,-3.6528,-3.8309,-4.235,-4.7066,-5.1618,-5.4972,-5.7406,-5.8205,-6.0399,-6.2898,-6.3952,-6.4446,-6.4245,-6.3804,-6.2766,-6.2359,-6.3356,-6.3994,-6.4101,-6.3416,-6.399,-6.3703,-6.0741,-6.0482,-6.1912,-6.5666,-6.74,-6.9627,-2.9388,-2.979,-3.1355,-3.2354,-3.3134,-3.6253,-3.8574,-4.0503,-4.3213,-4.3839,-4.296,-4.0537,-3.9073,-3.8469,-3.744,-3.6744,-3.5972,-3.3125,-2.9309,-2.4238,-1.7898,-1.1481,-0.5017,-0.138,0.1038,0.2091,0.1394,0.0871,0.0348,0.1556,0.2067,0.2055,0.8595,1.1268,0.9381,0.0,0.0,0.0,-6.9682,-7.4458,-7.3611,-7.23,-7.1579,-7.1675,-7.0307,0.0,-6.7247,-6.6263,-6.4624,-6.2404,-6.144,0.0,0.0,0.0,0.0,0.0,0.0,0.0,0.0,0.0,0.0,0.0,-4.9663,-4.3706,-3.5447,-3.7137,-3.9146,-4.028,-4.2215,-4.2224,-3.9449,-4.0191,-3.8766,-3.3794,-3.3049,-3.3246,-3.3644,-3.4041,-3.5338,-3.7871,-3.7347,-3.6842,-3.7038,-3.6342,-3.6178,-3.676,-3.7278,-3.876,-4.1314,-4.564,-4.936,-5.2381,-5.5979,-5.8515,-5.9332,-6.2243,-6.4404,-6.4982,-6.6151,-6.583,-6.3751,-6.3072,-6.3105,-6.4284,-6.4058,-6.3892,-6.432,-6.4533,-6.393,-6.1304,-6.2178,-6.5112,-7.0982,-7.1921,-7.205,-3.0252,-3.0277,-3.1689,-3.2493,-3.3134,-3.6253,-3.9146,-4.2142,-4.2879,-4.3213,-4.3359,-4.1195,-3.9386,-3.7955,-3.7362,-3.6467,-3.5265,-3.312,-3.0338,-2.7068,-1.9925,-1.381,-0.8581,-0.3672,-0.0672,0.0522,0.3484,0.3818,0.1897,0.921,1.2331,1.1703,1.9158,2.2769,2.1514,0.3668,-1.1593,-2.3797,-5.4272,-7.0011,-7.0031,-6.9742,-6.9577,-6.9601,-6.9339,-6.8658,-6.7512,-6.747,-6.7264,-6.6702,-6.6751,-6.5787,-6.3385,-6.3287,-5.9663,0.0,-4.7826,0.0,0.0,0.0,0.0,0.0,0.0,0.0,0.0,-1.5719,-2.5621,-3.3648,-3.6941,-3.8465,-3.786,-3.9218,-3.8808,-3.5569,-3.5493,-3.5329,-3.4053,-3.3847,-3.5283,-3.8961,-3.8961,-3.9443,-4.1307,-4.1555,-4.1504,-4.1548,-4.2801,-4.487,-4.7893,-5.0777,-5.2906,-5.3594,-5.6581,-5.9228,-6.1068,-6.3277,-6.4722,-6.4252,-6.4895,-6.5013,-6.3767,-6.269,-6.2878,-6.5184,-6.4046,-6.2947,-6.4261,-6.458,-6.456,-6.3905,-6.5292,-6.7879,-7.17,-7.5294,-7.8434,-3.1641,-3.2003,-3.2624,-3.2955,-3.3361,-3.5602,-3.7951,-4.0269,-4.1268,-4.2017,-4.2257,-4.1241,-4.0236,-3.8941,-3.8248,-3.74,-3.6267,-3.3654,-3.0594,-2.675,-1.9887,-1.3954,-0.8795,-0.4376,-0.1142,0.0842,0.3365,0.4858,0.5769,1.3201,1.6934,1.7016,2.526,3.1323,3.389,1.3735,-0.2512,-1.3978,-4.3249,-6.1942,-6.9024,-6.9323,-6.9307,-6.9337,-6.9339,-6.9035,-6.8564,-6.8596,-6.8554,-6.8374,-6.7792,-6.5359,-6.0705,-5.559,-4.8175,0.0,0.0,0.0,0.0,0.0,0.0,0.0,0.0,0.0,0.0,0.0,-0.9012,-1.3409,-2.0118,-2.645,-3.2012,-3.3976,-3.4757,-3.4483,-3.5205,-3.5779,-3.6098,-3.8223,-4.0333,-4.1763,-4.217,-4.2926,-4.4664,-4.489,-4.5122,-4.5578,-4.8379,-5.1221,-5.3455,-5.3576,-5.461,-5.7303,-5.818,-5.9467,-6.2301,-6.3487,-6.3846,-6.3319,-6.3735,-6.3814,-6.264,-6.2847,-6.3369,-6.4002,-6.3841,-6.3508,-6.331,-6.3955,-6.4435,-6.4308,-6.6916,-7.0995,-7.4403,-7.7694,-8.024,-3.2203,-3.2995,-3.2507,-3.2605,-3.326,-3.4824,-3.6508,-3.8381,-3.9772,-4.0323,-4.0282,-3.9764,-3.8663,-3.7499,-3.6784,-3.61,-3.5413,-3.3378,-3.0151,-2.6111,-1.9683,-1.3924,-0.9107,-0.4703,-0.1424,0.1143,0.3106,0.6478,1.1008,1.7186,2.1691,2.4694,3.1409,3.743,4.1525,2.0695,0.2832,-1.1046,-3.4741,-5.4019,-6.8097,-6.8746,-6.8902,-6.9332,-6.8959,-6.9016,-6.9317,-6.9163,-6.8904,-6.856,-6.6364,-6.2252,-5.6017,-4.717,0.0,0.0,0.0,0.0,0.0,0.0,0.0,0.0,0.0,1.3593,1.0364,0.0,0.6724,0.0,-0.2256,-1.1634,-1.9246,-2.1931,0.0,0.0,-2.6098,-2.8314,-3.3277,-3.6205,-3.937,-4.3305,-4.4725,-4.5936,-4.7871,-4.8193,-4.6678,-4.2362,-4.6658,-5.1758,-5.5103,-5.4629,-5.5785,-5.9318,-5.984,-6.0385,-6.2431,-6.3105,-6.3083,-6.2312,-6.2885,-6.3012,-6.2017,-6.3382,-6.432,-6.3584,-6.4169,-6.4284,-6.3703,-6.4396,-6.4786,-6.4202,-6.8172,-7.3127,-7.5562,-7.7799,-7.9603,-3.0725,-3.1652,-2.9523,-3.0153,-3.2607,-3.4176,-3.5901,-3.7819,-3.8661,-3.8482,-3.7309,-3.4703,-3.2597,-3.0804,-3.034,0.0,-3.0289,-3.0515,-2.9352,-2.6886,-1.9916,-1.489,-1.1307,-0.5409,-0.1536,0.0327,0.3429,0.9688,1.8831,2.2698,2.8947,3.7553,3.9372,4.0257,3.9394,2.2809,0.5927,-0.9983,-2.8881,-4.7781,-6.6153,-6.6812,-6.7631,-6.9181,-6.7792,-6.7748,-6.9095,-6.8843,-6.8046,-6.6644,-6.2148,-5.6775,-5.0768,0.0,0.0,0.0,0.0,0.0,0.0,0.0,0.0,0.0,0.0,0.0,0.0,0.0,0.0,2.3706,1.2835,0.0,0.4793,0.0714,0.0,0.0,0.0,-0.7033,-2.0533,-1.9828,-2.4967,-4.1811,0.0,0.0,-5.1181,-5.1884,-4.4922,-2.565,-3.2177,-4.1325,-4.8642,-5.3879,-5.7647,-5.8632,-6.1173,-6.2591,-6.1493,-6.2286,-6.2744,-6.1903,-6.2265,-6.2732,-6.2968,-6.3806,-6.4947,-6.5937,-6.5467,-6.5024,-6.6571,-6.6798,-6.7035,-6.6808,-6.9762,-7.2435,-7.3013,-7.5608,-7.7928,-2.4888,-2.0556,-2.004,-2.0906,-2.2938,-2.579,-2.8517,-3.0983,-3.1988,-3.1301,-2.9062,-2.2403,-1.7884,-1.5172,-1.0581,0.0,0.0,0.0,-2.4453,-2.346,-1.78,-1.3559,-1.0281,-0.5711,-0.2226,0.0468,0.9257,1.5341,1.8857,2.9948,3.6335,3.8189,0.0,0.0,3.5161,2.5723,1.1127,-0.8075,-2.2085,-3.9598,-6.0846,-6.3575,-6.5645,-6.7698,-6.7091,-6.747,-6.923,-6.8538,-6.5966,-6.1383,-5.6117,-4.8411,0.0,0.0,0.0,0.0,0.0,0.0,0.0,0.0,0.0,0.0,0.0,3.1211,3.1465,0.0,0.0,0.0,2.1227,1.3316,0.772,0.5554,0.0,0.0,0.0,0.0,0.0,0.0,0.0,-1.4706,-1.5088,-1.6062,-1.9191,-2.3181,-2.4351,-2.0074,-2.673,-3.5302,-4.4141,0.0,-5.3908,-5.6644,-5.9066,-6.053,-6.0584,-6.1413,-6.1903,-6.1671,-6.1903,-6.223,-6.2594,-6.4036,-6.5051,-6.5081,-6.5652,-6.6099,-6.5889,-6.7334,-6.8581,-6.8832,-7.0541,-7.2076,-7.2313,-7.5797,-7.8866,-1.4255,0.0,0.0,0.0,0.0,-1.581,-1.9491,-2.3154,-2.4261,-2.2159,-1.7596,-1.0575,0.0,0.0,0.0,0.0,0.0,0.0,-1.1035,-0.9836,-0.5303,-0.1647,0.1493,0.4958,0.7557,0.9712,1.8615,2.3302,2.429,3.6568,4.0979,3.7596,0.0,0.0,0.0,0.0,1.5024,-0.5247,-1.6105,-3.3657,-5.8731,-6.0625,-6.2631,-6.5036,-6.4673,-6.5066,-6.6378,-6.4155,-5.9622,-5.2633,-4.5862,0.0,0.0,0.0,0.0,0.0,0.0,0.0,0.0,0.0,0.0,0.0,0.0,0.0,0.0,0.0,0.0,0.0,0.0,0.0,1.5364,1.4474,1.265,0.0,0.0,0.0,0.0,0.0,0.0,0.0,0.0,0.0,1.2582,0.8161,0.1261,0.0,0.0,-2.4558,-3.5499,-4.2579,-4.7695,-5.0805,-5.3468,0.0,-5.5289,-5.6774,-5.8071,-5.8278,-5.9655,-6.1317,-6.2871,-6.4651,-6.5743,-6.5753,-6.6654,-6.7052,-6.5803,-6.7526,-6.9082,-6.8691,-7.0292,-7.1845,-7.1787,-7.471,-7.783,0.0,0.0,0.0,0.0,0.0,0.0,0.0,0.0,-1.5779,-1.0986,0.0,-0.0551,0.0,0.0,0.0,0.0,0.0,1.1476,0.0,0.0,2.0144,2.4472,2.7197,2.975,3.1534,3.1723,3.1285,3.3403,3.7491,4.1736,0.0,0.0,0.0,0.0,0.0,0.0,1.6934,-0.1786,-1.1729,-3.1251,-5.9881,-5.8326,-5.8031,-6.0652,-6.0062,-5.9612,-5.9311,-5.3993,-4.7464,-3.9631,-3.0001,0.0,0.0,0.0,0.0,0.0,0.0,0.0,0.0,0.0,0.0,0.0,0.0,0.0,0.0,0.0,0.0,0.0,0.0,0.0,0.0,3.2282,0.0,0.0,0.0,0.0,0.0,0.0,0.0,0.0,0.0,0.0,3.7006,3.6385,3.0071,1.9872,0.0,0.0,0.0,0.0,-3.9285,-3.9877,-4.4099,-4.6373,-4.3876,-4.7285,-5.0163,-5.0261,0.0,0.0,-6.4259,-6.5462,-6.5972,-6.9219,-6.8499,-6.8045,-6.571,-6.6257,-6.7338,-6.4701,-6.7119,-7.0768,-6.9895,-6.912,-7.2322,0.0,0.0,0.0,0.0,0.0,0.0,0.0,0.0,0.0,0.659,1.207,1.8416,0.0,0.0,0.0,0.0,0.0,0.0,0.0,0.0,1.9091,2.0266,1.9248,2.4066,2.5519,0.0,3.1139,3.6491,0.0,0.0,0.0,0.0,0.0,0.0,0.0,0.0,2.0953,0.5512,-0.556,-2.1289,-4.1504,-4.7434,-5.116,-5.3363,-5.3794,-5.1614,-4.6542,-4.0754,-3.2234,0.0,0.0,0.0,0.0,0.0,0.0,0.0,0.0,0.0,0.0,0.0,0.0,0.0,0.0,0.0,0.0,0.0,0.0,0.0,0.0,0.0,0.0,0.0,2.9793,0.0,0.0,0.0,0.0,0.0,0.0,0.0,0.0,0.0,3.7266,3.5545,3.1016,2.3426,1.2983,0.1792,-0.9598,0.0,0.0,0.0,0.0,0.0,0.0,0.0,-3.5374,-3.1594,-2.9121,-2.7728,-2.7993,-3.7212,-4.5528,-4.8575,0.0,0.0,-4.234,-4.0947,-4.2203,-4.1217,-4.4967,-4.744,-4.4546,-4.9832,-5.6375,0.0,0.0,0.0,0.0,0.0,0.0,0.0,0.0,0.0,1.7576,2.2977,0.0,0.0,0.0,0.0,0.0,0.0,0.0,0.0,0.0,0.0,0.0,2.6265,3.0106,0.0,0.0,0.0,0.0,0.0,0.0,0.0,0.0,0.0,0.0,0.0,0.0,2.6074,1.4601,0.2224,-1.244,-2.886,-3.7879,-4.3732,-4.6431,-4.7166,-4.4037,-3.6441,0.0,0.0,0.0,0.0,0.0,0.0,0.0,0.0,0.0,0.0,0.0,0.0,0.0,0.0,0.0,0.0,0.0,0.0,0.0,0.0,0.0,0.0,0.0,0.0,0.0,2.7446,0.0,0.0,0.0,0.0,0.0,0.0,0.0,0.0,0.0,0.0,0.0,2.9683,2.4703,1.7097,0.9218,0.1234,-0.6142,-1.1225,0.0,0.0,0.0,0.0,0.0,0.0,0.0,0.0,0.0,0.0,0.0,0.0,0.0,0.0,-4.2206,-2.5758,-2.432,-2.5434,-2.4893,0.0,0.0,0.0,0.0,0.0,0.0,0.0,0.0,0.0,0.0,0.0,0.0,0.0,0.0,0.0,3.0109,0.0,0.0,4.5235,0.0,0.0,0.0,0.0,0.0,0.0,0.0,0.0,0.0,0.0,0.0,0.0,0.0,0.0,0.0,0.0,0.0,0.0,0.0,0.0,0.0,0.0,3.1951,2.5291,1.0654,-0.5308,-2.282,-3.0127,-3.5712,-3.9902,-4.0143,-3.6752,-2.9384,0.0,0.0,0.0,0.0,0.0,0.0,0.0,0.0,0.0,0.0,0.0,0.0,0.0,0.0,0.0,0.0,0.0,0.0,0.0,0.0,0.0,0.0,0.0,0.0,0.0,0.0,2.4554,2.6064,2.7577,0.0,0.0,0.0,0.0,0.0,0.0,0.0,0.0,0.0,0.0,2.0279,1.5685,1.144,0.4931,0.0338,0.0669,-0.3494,-0.7027,-0.8186,-1.0279,-1.1525,0.0,0.0,0.0,0.0,0.0,0.0,0.0,0.0,0.0,0.0,0.0,0.0,0.0,0.0,0.0,0.0,0.0,0.0,0.0,0.0,0.0,0.0,0.0,0.0,0.0,0.0,0.0,0.0,0.0,0.0,0.0,0.0,0.0,0.0,0.0,0.0,0.0,0.0,0.0,0.0,0.0,0.0,0.0,0.0,0.0,0.0,0.0,0.0,0.0,0.0,0.0,0.0,0.0,0.0,3.2868,2.6506,0.8509,-0.3908,-1.0392,-2.1333,-2.8014,-2.9536,-2.8271,-2.3731,0.0,0.0,0.0,0.0,0.0,0.0,0.0,0.0,0.0,0.0,0.0,0.0,0.0,0.0,0.0,0.0,0.0,0.0,0.0,0.0,0.0,0.0,0.0,0.0,0.0,0.0,0.0,0.0,2.7021,2.7615,2.8303,0.0,0.0,0.0,0.0,0.0,0.0,0.0,0.0,0.0,0.0,1.996,1.8409,1.6096,1.3875,1.211,1.0059,0.7746,0.5334,0.4714,0.6307,1.2266,0.0,0.0,0.0,0.0,0.0,0.0,0.0,0.0,0.0,0.0,0.0,0.0,0.0,0.0,0.0,0.0,0.0,0.0,0.0,0.0,0.0,0.0,0.0,0.0,0.0,0.0,0.0,0.0,0.0,0.0,0.0,0.0,0.0,0.0,0.0,0.0,0.0,0.0,0.0,0.0,0.0,0.0,0.0,0.0,0.0,0.0,0.0,0.0,0.0,0.0,0.0,0.0,0.0,3.5321,2.849,1.3345,0.3225,-0.1843,-1.4163,-2.1319,-2.2385,-1.9206,-1.372,0.0,0.0,0.0,0.0,0.0,0.0,0.0,0.0,0.0,0.0,0.0,0.0,0.0,0.0,0.0,0.0,0.0,0.0,0.0,0.0,0.0,0.0,0.0,0.0,0.0,0.0,0.0,0.0,2.5825,2.6287,2.7237,0.0,0.0,0.0,0.0,0.0,0.0,0.0,0.0,0.0,0.0,2.3129,2.332,2.305,0.0,0.0,1.8372,1.6285,1.4209,1.4121,1.6852,2.3499,3.0247,0.0,0.0,0.0,0.0,0.0,0.0,0.0,0.0,0.0,0.0,0.0,0.0,0.0,0.0,0.0,0.0,0.0,0.0,0.0,0.0,0.0,0.0,0.0,0.0,0.0,0.0,0.0,0.0,0.0,0.0,0.0,0.0,0.0,0.0,0.0,0.0,0.0,0.0,0.0,0.0,0.0,0.0,0.0,0.0,0.0,0.0,0.0,0.0,0.0,0.0,0.0,0.0,3.9058,3.1789,2.3432,1.4021,0.4079,-0.8231,-1.5639,-1.7675,-1.255,-0.62,0.0,0.0,0.0,0.0,0.0,0.0,0.0,0.0,0.0,0.0,0.0,0.0,0.0,0.0,0.0,0.0,0.0,0.0,0.0,0.0,0.0,0.0,0.0,0.0,0.0,0.0,0.0,0.0,0.0,0.0,0.0,0.0,0.0,0.0,0.0,0.0,0.0,0.0,0.0,0.0,0.0,2.5487,2.6601,2.6816,2.6463,0.0,0.0,1.9865,1.8903,1.9242,2.1358,2.6053,0.0,0.0,0.0,0.0,0.0,0.0,0.0,0.0,0.0,0.0,0.0,0.0,0.0,0.0,0.0,0.0,0.0,0.0,0.0,0.0,0.0,0.0,0.0,0.0,0.0,0.0,0.0,0.0,0.0,0.0,0.0,0.0,0.0,0.0,0.0,0.0,0.0,0.0,0.0,0.0,0.0,0.0,0.0,0.0,0.0,0.0,0.0,0.0,0.0,0.0,0.0,0.0,0.0,0.0,3.832,2.8527,1.917,1.0298,-0.2115,-1.0847,-1.5141,-0.807,0.0,0.0,0.0,0.0,0.0,0.0,0.0,0.0,0.0,0.0,0.0,0.0,0.0,0.0,0.0,0.0,0.0,0.0,0.0,0.0,0.0,0.0,0.0,0.0,0.0,0.0,0.0,2.5262,0.0,0.0,0.0,0.0,0.0,0.0,0.0,0.0,0.0,0.0,0.0,0.0,0.0,0.0,2.7788,2.8964,3.0355,2.9712,0.0,0.0,2.493,2.1378,2.2841,2.5087,0.0,0.0,0.0,0.0,0.0,0.0,0.0,0.0,0.0,0.0,0.0,0.0,0.0,0.0,0.0,0.0,0.0,0.0,0.0,0.0,0.0,0.0,0.0,0.0,0.0,0.0,0.0,0.0,0.0,0.0,0.0,0.0,0.0,0.0,0.0,0.0,0.0,0.0,0.0,0.0,0.0,0.0,0.0,0.0,0.0,0.0,0.0,0.0,0.0,0.0,0.0,0.0,0.0,0.0,4.5361,4.093,3.2874,2.4214,1.5176,0.3444,-0.4555,-0.8583,-0.1809,0.5181,0.0,0.0,0.0,0.0,0.0,0.0,0.0,0.0,0.0,0.0,0.0,0.0,0.0,0.0,0.0,0.0,0.0,0.0,0.0,0.0,0.0,0.0,0.0,0.0,0.0,0.0,0.0,0.0,0.0,0.0,0.0,0.0,0.0,0.0,0.0,0.0,0.0,0.0,0.0,0.0,0.0,0.0,2.9034,3.0006,0.0,0.0,0.0,2.591,2.4017,0.0,0.0,0.0,0.0,0.0,0.0,0.0,0.0,0.0,0.0,0.0,0.0,0.0,0.0,0.0,0.0,0.0,0.0,0.0,0.0,0.0,0.0,0.0,0.0,0.0,0.0,0.0,0.0,0.0,0.0,0.0,0.0,0.0,0.0,0.0,0.0,0.0,0.0,0.0,0.0,0.0,0.0,0.0,0.0,0.0,0.0,0.0,0.0,0.0,0.0,0.0,0.0,0.0,0.0,0.0,0.0,0.0,4.1762,3.6482,2.9573,2.09,0.9512,0.2516,0.0723,0.5165,0.9611,0.0,0.0,0.0,0.0,0.0,0.0,0.0,0.0,0.0,0.0,0.0,0.0,0.0,0.0,0.0,0.0,0.0,0.0,0.0,0.0,0.0,0.0,0.0,0.0,0.0,0.0,0.0,0.0,0.0,0.0,0.0,0.0,0.0,0.0,0.0,0.0,0.0,0.0,0.0,0.0,0.0,2.6497,2.7828,2.7787,2.7438,0.0,0.0,2.4783,2.6153,2.6528,0.0,0.0,0.0,0.0,0.0,0.0,0.0,0.0,0.0,0.0,0.0,0.0,0.0,0.0,0.0,0.0,0.0,0.0,0.0,0.0,0.0,0.0,0.0,0.0,0.0,0.0,0.0,0.0,0.0,0.0,0.0,0.0,0.0,0.0,0.0,0.0,0.0,0.0,0.0,0.0,0.0,0.0,0.0,0.0,0.0,0.0,0.0,0.0,0.0,0.0,0.0,0.0,0.0,0.0,0.0,0.0,4.4922,3.8561,3.5409,3.5436,1.8677,0.9978,1.1121,1.1045,1.4223,0.0,0.0,0.0,0.0,0.0,0.0,0.0,0.0,0.0,0.0,0.0,0.0,0.0,0.0,0.0,0.0,0.0,0.0,0.0,0.0,0.0,0.0,0.0,0.0,0.0,0.0,0.0,0.0,0.0,0.0,0.0,0.0,0.0,0.0,0.0,0.0,0.0,0.0,0.0,0.0,0.0,2.6803,2.7502,2.7674,0.0,0.0,0.0,0.0,2.5351,2.7308,0.0,0.0,0.0,0.0,0.0,0.0,0.0,0.0,0.0,0.0,0.0,0.0,0.0,0.0,0.0,0.0,0.0,0.0,0.0,0.0,0.0,0.0,0.0,0.0,0.0,0.0,0.0,0.0,0.0,0.0,0.0,0.0,0.0,0.0,0.0,0.0,0.0,0.0,0.0,0.0,0.0,0.0,0.0,0.0,0.0,0.0,0.0,0.0,0.0,0.0,0.0,0.0,0.0,0.0,0.0,0.0,4.4976,4.0651,3.7966,3.6643,2.5819,1.9003,1.7121,1.7244,1.9213,0.0,0.0,0.0,0.0,0.0,0.0,0.0,0.0,0.0,0.0,0.0,0.0,0.0,0.0,0.0,0.0,0.0,0.0,0.0,0.0,0.0,0.0,0.0,0.0,0.0,0.0,0.0,0.0,0.0,0.0,0.0,0.0,0.0,0.0,0.0,0.0,0.0,0.0,0.0,0.0,2.5935,2.6107,2.7294,0.0,0.0,0.0,0.0,0.0,0.0,2.7219,2.8528,0.0,0.0,0.0,0.0,0.0,0.0,0.0,0.0,0.0,0.0,0.0,0.0,0.0,0.0,0.0,0.0,0.0,0.0,0.0,0.0,0.0,0.0,0.0,0.0,0.0,0.0,0.0,0.0,0.0,0.0,0.0,0.0,0.0,0.0,0.0,0.0,0.0,0.0,0.0,0.0,0.0,0.0,0.0,0.0,0.0,0.0,0.0,0.0,0.0,0.0,0.0,0.0,0.0,0.0,0.0,4.4082,4.2511,3.9128,3.4044,3.1044,2.7054,2.228,2.3217,2.3938,2.4453,0.0,0.0,0.0,0.0,0.0,0.0,0.0,0.0,0.0,0.0,0.0,0.0,0.0,0.0,0.0,0.0,0.0,0.0,0.0,0.0,0.0,0.0,0.0,0.0,0.0,0.0,0.0,0.0,0.0,0.0,0.0,0.0,0.0,0.0,0.0,0.0,0.0,0.0,0.0,2.4523,2.4984,0.0,0.0,0.0,0.0,0.0,0.0,0.0,0.0,2.7094,0.0,0.0,0.0,0.0,0.0,0.0,0.0,0.0,0.0,0.0,0.0,0.0,0.0,0.0,0.0,0.0,0.0,0.0,0.0,0.0,0.0,0.0,0.0,0.0,0.0,0.0,0.0,0.0,0.0,0.0,0.0,0.0,0.0,0.0,0.0,0.0,0.0,0.0,0.0,0.0,0.0,0.0,0.0,0.0,0.0,0.0,0.0,0.0,0.0,0.0,0.0,0.0,0.0,0.0,0.0,0.0,4.3095,4.1291,3.8404,3.3521,3.0405,2.9306,2.7721,2.7569,2.8839,0.0,0.0,0.0,0.0,0.0,0.0,0.0,0.0,0.0,0.0,0.0,0.0,0.0,0.0,0.0,0.0,0.0,0.0,0.0,0.0,0.0,0.0,0.0,0.0,0.0,0.0,0.0,0.0,0.0,0.0,0.0,0.0,0.0,0.0,0.0,0.0,0.0,0.0,2.2063,2.3038,0.0,0.0,0.0,0.0,0.0,0.0,0.0,0.0,2.5071,0.0,0.0,0.0,0.0,0.0,0.0,0.0,0.0,0.0,0.0,0.0,0.0,0.0,0.0,0.0,0.0,0.0,0.0,0.0,0.0,0.0,0.0,0.0,0.0,0.0,0.0,0.0,0.0,0.0,0.0,0.0,0.0,0.0,0.0,0.0,0.0,0.0,0.0,0.0,0.0,0.0,0.0,0.0,0.0,0.0,0.0,0.0,0.0,0.0,0.0,0.0,0.0,0.0,0.0,0.0,0.0,0.0,0.0,4.1762,4.0048,3.5912,3.293,3.1591,3.2279,3.2644,0.0,0.0,0.0,0.0,0.0,0.0,0.0,0.0,0.0,0.0,0.0,0.0,0.0,0.0,0.0,0.0,0.0,0.0,0.0,0.0,0.0,0.0,0.0,0.0,0.0,0.0,0.0,0.0,0.0,0.0,0.0,0.0,0.0,0.0,0.0,0.0,0.0,0.0,0.0,0.0,0.0,0.0,0.0,0.0,0.0,0.0,0.0,0.0,0.0,0.0,0.0,0.0,0.0,0.0,0.0,0.0,0.0,0.0,0.0,0.0,0.0,0.0,0.0,0.0,0.0,0.0,0.0,0.0,0.0,0.0,0.0,0.0,0.0,0.0,0.0,0.0,0.0,0.0,0.0,0.0,0.0,0.0,0.0,0.0,0.0,0.0,0.0,0.0,0.0,0.0,0.0,0.0,0.0,0.0,0.0,0.0,0.0,0.0,0.0,0.0,0.0,0.0,0.0,0.0,0.0,0.0,0.0,0.0,4.2628,4.1813,3.8581,3.5869,3.3951,3.5826,3.6214,0.0,0.0,0.0,0.0,0.0,0.0,0.0,0.0,0.0,0.0,0.0,0.0,0.0,0.0,0.0,0.0,0.0,0.0,0.0,0.0,0.0,0.0,0.0,0.0,0.0,0.0,0.0,0.0,0.0,0.0,0.0,0.0,0.0,0.0,0.0,0.0,0.0,0.0,0.0,0.0,0.0,0.0,0.0,0.0,0.0,0.0,0.0,0.0,2.4055,0.0,0.0,0.0,0.0,0.0,0.0,0.0,0.0,0.0,0.0,0.0,0.0,0.0,0.0,0.0,0.0,0.0,0.0,0.0,0.0,0.0,0.0,0.0,0.0,0.0,0.0,0.0,0.0,0.0,0.0,0.0,0.0,0.0,0.0,0.0,0.0,0.0,0.0,0.0,0.0,0.0,0.0,0.0,0.0,0.0,0.0,0.0,0.0,0.0,0.0,0.0,0.0,0.0,0.0,0.0,0.0,0.0,0.0,0.0,4.5765,4.5418,4.2212,4.0304,3.9633,3.7308,3.5512,0.0,0.0,0.0,0.0,0.0,0.0,0.0,0.0,0.0,0.0,0.0,0.0,0.0,0.0,0.0,0.0,0.0,0.0,0.0,0.0,0.0,0.0,0.0,0.0,0.0,0.0,0.0,0.0,0.0,0.0,0.0,0.0,0.0,0.0,0.0,0.0,0.0,0.0,0.0,0.0,0.0,0.0,0.0,0.0,0.0,0.0,0.0,0.0,0.0,0.0,0.0,0.0,0.0,0.0,0.0,0.0,0.0,0.0,0.0,0.0,0.0,0.0,0.0,0.0,0.0,0.0,0.0,0.0,0.0,0.0,0.0,0.0,0.0,0.0,0.0,0.0,0.0,0.0,0.0,0.0,0.0,0.0,0.0,0.0,0.0,0.0,0.0,0.0,0.0,0.0,0.0,0.0,0.0,0.0,0.0,0.0,0.0,0.0,0.0,0.0,0.0,0.0,0.0,0.0,0.0,0.0,0.0,0.0,4.5101,4.5178,4.3345,4.3195,4.4893,4.0512,3.7481,0.0,0.0,0.0,0.0,0.0,0.0,0.0,0.0,0.0,0.0,0.0,0.0,0.0,0.0,0.0,0.0,0.0,0.0,0.0,0.0,0.0,0.0,0.0,0.0,0.0,0.0,0.0,0.0,0.0,0.0,0.0,0.0,0.0,0.0,0.0,0.0,0.0,0.0,0.0,0.0,0.0,0.0,0.0,0.0,0.0,0.0,0.0,0.0,0.0,0.0,0.0,0.0,0.0,0.0,0.0,0.0,0.0,0.0,0.0,0.0,0.0,0.0,0.0,0.0,0.0,0.0,0.0,0.0,0.0,0.0,0.0,0.0,0.0,0.0,0.0,0.0,0.0,0.0,0.0,0.0,0.0,0.0,0.0,0.0,0.0,0.0,0.0,0.0,0.0,0.0,0.0,0.0,0.0,0.0,0.0,0.0,0.0,0.0,0.0,0.0,0.0,0.0,0.0,0.0,0.0,0.0,0.0,0.0,0.0,4.6684,4.4792,4.4821,4.6928,4.2024,3.8476,0.0,0.0,0.0,0.0,0.0,0.0,0.0,0.0,0.0,0.0,0.0,0.0,0.0,0.0,0.0,0.0,0.0,0.0,0.0,0.0,0.0,0.0,0.0,0.0,0.0,0.0,0.0,0.0,0.0,0.0,0.0,0.0,0.0,0.0,0.0,0.0,0.0,0.0,0.0,0.0,0.0,0.0,0.0,0.0,0.0,0.0,0.0,0.0,0.0,0.0,0.0,0.0,0.0,0.0,0.0,0.0,0.0,0.0,0.0,0.0,0.0,0.0,0.0,0.0,0.0,0.0,0.0,0.0,0.0,0.0,0.0,0.0,0.0,0.0,0.0,0.0,0.0,0.0,0.0,0.0,0.0,0.0,0.0,0.0,0.0,0.0,0.0,0.0,0.0,0.0,0.0,0.0,0.0,0.0,0.0,0.0,0.0,0.0,0.0,0.0,0.0,0.0,0.0,0.0,0.0,0.0,0.0,0.0,0.0,5.2696,4.762,4.4854,4.496,4.0142,3.732,0.0,0.0,0.0,0.0,0.0,0.0,0.0,0.0,0.0,0.0,0.0,0.0,0.0,0.0,0.0,0.0,0.0,0.0,0.0,0.0,0.0,0.0,0.0,0.0,0.0,0.0,0.0,0.0,0.0,0.0,0.0,0.0,0.0,0.0,0.0,0.0,0.0,0.0,0.0,0.0,0.0,0.0,0.0,0.0,0.0,0.0,0.0,0.0,0.0,0.0,0.0,0.0,0.0,0.0,0.0,0.0,0.0,0.0,0.0,0.0,0.0,0.0,0.0,0.0,0.0,0.0,0.0,0.0,0.0,0.0,0.0,0.0,0.0,0.0,0.0,0.0,0.0,0.0,0.0,0.0,0.0,0.0,0.0,0.0,0.0,0.0,0.0,0.0,0.0,0.0,0.0,0.0,0.0,0.0,0.0,0.0,0.0,0.0,0.0,0.0,0.0,0.0,0.0,0.0,0.0,0.0,0.0,0.0,0.0,5.319,4.9458,4.7269,4.7439,4.2425,3.8722,3.6457,0.0,0.0,0.0,0.0,0.0,0.0,0.0,0.0,0.0,0.0,0.0,0.0,0.0,0.0,0.0,0.0,0.0,0.0,0.0,0.0,0.0,0.0,0.0,0.0,0.0,0.0,0.0,0.0,0.0,0.0,0.0,0.0,0.0,0.0,0.0,0.0,0.0,0.0,0.0,0.0,0.0,0.0,0.0,0.0,0.0,0.0,0.0,0.0,0.0,0.0,0.0,0.0,0.0,0.0,0.0,0.0,0.0,0.0,0.0,0.0,0.0,0.0,0.0,0.0,0.0,0.0,0.0,0.0,0.0,0.0,0.0,0.0,0.0,0.0,0.0,0.0,0.0,0.0,0.0,0.0,0.0,0.0,0.0,0.0,0.0,0.0,0.0,0.0,0.0,0.0,0.0,0.0,0.0,0.0,0.0,0.0,0.0,0.0,0.0,0.0,0.0,0.0,0.0,0.0,0.0,0.0,0.0,0.0,5.0915,4.9168,4.7834,4.7167,4.385,4.0124,0.0,0.0,0.0,0.0,0.0,0.0,0.0,0.0,0.0,0.0,0.0,0.0,0.0,0.0,0.0,0.0,0.0,0.0,0.0,0.0,0.0,0.0,0.0,0.0,0.0,0.0,0.0,0.0,0.0,0.0,0.0,0.0,0.0,0.0,0.0,0.0,0.0,0.0,0.0,0.0,0.0,0.0,0.0,0.0,0.0,0.0,0.0,0.0,0.0,0.0,0.0,0.0,0.0,0.0,0.0,0.0,0.0,0.0,0.0,0.0,0.0,0.0,0.0,0.0,0.0,0.0,0.0,0.0,0.0,0.0,0.0,0.0,0.0,0.0,0.0,0.0,0.0,0.0,0.0,0.0,0.0,0.0,0.0,0.0,0.0,0.0,0.0,0.0,0.0,0.0,0.0,0.0,0.0,0.0,0.0,0.0,0.0,0.0,0.0,0.0,0.0,0.0,0.0,0.0,0.0,0.0,0.0,0.0,4.3034,4.54,4.6601,4.627,4.3721,4.3681,4.1238,0.0,0.0,0.0,0.0,0.0,0.0,0.0,0.0,0.0,0.0,0.0,0.0,0.0,0.0,0.0,0.0,0.0,0.0,0.0,0.0,0.0,0.0,0.0,0.0,0.0,0.0,0.0,0.0,0.0,0.0,0.0,0.0,0.0,0.0,0.0,0.0,0.0,0.0,0.0,0.0,0.0,0.0,0.0,0.0,0.0,0.0,0.0,0.0,0.0,0.0,0.0,0.0,0.0,0.0,0.0,0.0,0.0,0.0,0.0,0.0,0.0,0.0,0.0,0.0,0.0,0.0,0.0,0.0,0.0,0.0,0.0,0.0,0.0,0.0,0.0,0.0,0.0,0.0,0.0,0.0,0.0,0.0,0.0,0.0,0.0,0.0,0.0,0.0,0.0,0.0,0.0,0.0,0.0,0.0,0.0,0.0,0.0,0.0,0.0,0.0,0.0,0.0,0.0,0.0,0.0,0.0,0.0,0.0,0.0,4.795,0.0,4.8959,0.0,4.3577,4.0257,0.0,0.0,0.0,0.0,0.0,0.0,0.0,0.0,0.0,0.0,0.0,0.0,0.0,0.0,0.0,0.0,0.0,0.0,0.0,0.0,0.0,0.0,0.0,0.0,0.0,0.0,0.0,0.0,0.0,0.0,0.0,0.0,0.0,0.0,0.0,0.0,0.0,0.0,0.0,0.0,0.0,0.0,0.0,0.0,0.0,0.0,0.0,0.0,0.0,0.0,0.0,0.0,0.0,0.0,0.0,0.0,0.0,0.0,0.0,0.0,0.0,0.0,0.0,0.0,0.0,0.0,0.0,0.0,0.0,0.0,0.0,0.0,0.0,0.0,0.0,0.0,0.0,0.0,0.0,0.0,0.0,0.0,0.0,0.0,0.0,0.0,0.0,0.0,0.0,0.0,0.0,0.0,0.0,0.0,0.0,0.0,0.0,0.0,0.0,0.0,0.0,0.0,0.0,0.0,0.0,0.0,0.0,0.0,0.0,4.6971,4.911,4.946,4.7978,4.5389,4.2065,0.0,0.0,0.0,0.0,0.0,0.0,0.0,0.0,0.0,0.0,0.0,0.0,0.0,0.0,0.0,0.0,0.0,0.0,0.0,0.0,0.0,0.0,0.0,0.0,0.0,0.0,0.0,0.0,0.0,0.0,0.0,0.0,0.0,0.0,0.0,0.0,0.0,0.0,0.0,0.0,0.0,0.0,0.0,0.0,0.0,0.0,0.0,0.0,0.0,0.0,0.0,0.0,0.0,0.0,0.0,0.0,0.0,0.0,0.0,0.0,0.0,0.0,0.0,0.0,0.0,0.0,0.0,0.0,0.0,0.0,0.0,0.0,0.0,0.0,0.0,0.0,0.0,0.0,0.0,0.0,0.0,0.0,0.0,0.0,0.0,0.0,0.0,0.0,0.0,0.0,0.0,0.0,0.0,0.0,0.0,0.0,0.0,0.0,0.0,0.0,0.0,0.0,0.0,0.0,0.0,0.0,0.0,0.0,0.0,0.0,4.7033,4.7707,4.5316,4.8176,4.5872,0.0,0.0,0.0,0.0,0.0,0.0,0.0,0.0,0.0,0.0,0.0,0.0,0.0,0.0,0.0,0.0,0.0,0.0,0.0,0.0,0.0,0.0,0.0,0.0,0.0,0.0,0.0,0.0,0.0,0.0,0.0,0.0,0.0,0.0,0.0,0.0,0.0,0.0,0.0,0.0,0.0,0.0,0.0,0.0,0.0,0.0,0.0,0.0,0.0,0.0,0.0,0.0,0.0,0.0,0.0,0.0,0.0,0.0,0.0,0.0,0.0,0.0,0.0,0.0,0.0,0.0,0.0,0.0,0.0,0.0,0.0,0.0,0.0,0.0,0.0,0.0,0.0,0.0,0.0,0.0,0.0,0.0,0.0,0.0,0.0,0.0,0.0,0.0,0.0,0.0,0.0,0.0,0.0,0.0,0.0,0.0,0.0,0.0,0.0,0.0,0.0,0.0,0.0,0.0,0.0,0.0,0.0,0.0,0.0,0.0,4.8351,0.0,4.8657,4.4653,4.1636,3.9682,0.0,0.0,0.0,0.0,0.0,0.0,0.0,0.0,0.0,0.0,0.0,0.0,0.0,0.0,0.0,0.0,0.0,0.0,0.0,0.0,0.0,0.0,0.0,0.0,0.0,0.0,0.0,0.0,0.0,0.0,0.0,0.0,0.0,0.0,0.0,0.0,0.0,0.0,0.0,0.0,0.0,0.0,0.0,0.0,0.0,0.0,0.0,0.0,0.0,0.0,0.0,0.0,0.0,0.0,0.0,0.0,0.0,0.0,0.0,0.0,0.0,0.0,0.0,0.0,0.0,0.0,0.0,0.0,0.0,0.0,0.0,0.0,0.0,0.0,0.0,0.0,0.0,0.0,0.0,0.0,0.0,0.0,0.0,0.0,0.0,0.0,0.0,0.0,0.0,0.0,0.0,0.0,0.0,0.0,0.0,0.0,0.0,0.0,0.0,0.0,0.0,0.0,0.0,0.0,0.0,0.0,0.0,0.0,0.0,0.0,4.8294,4.9359,4.5078,4.2272,0.0,0.0,0.0,0.0,0.0,0.0,0.0,0.0,0.0,0.0,0.0,0.0,0.0,0.0,0.0,0.0,0.0,0.0,0.0,0.0,0.0,0.0,0.0,0.0,0.0,0.0,0.0,0.0,0.0,0.0,0.0,0.0,0.0,0.0,0.0,0.0,0.0,0.0,0.0,0.0,0.0,0.0,0.0,0.0,0.0,0.0,0.0,0.0,0.0,0.0,0.0,0.0,0.0,0.0,0.0,0.0,0.0,0.0,0.0,0.0,0.0,0.0,0.0,0.0,0.0,0.0,0.0,0.0,0.0,0.0,0.0,0.0,0.0,0.0,0.0,0.0,0.0,0.0,0.0,0.0,0.0,0.0,0.0,0.0,0.0,0.0,0.0,0.0,0.0,0.0,0.0,0.0,0.0,0.0,0.0,0.0,0.0,0.0,0.0,0.0,0.0,0.0,0.0,0.0,0.0,0.0,0.0,0.0,0.0,0.0,0.0,4.5425,4.7428,4.7148,0.0,4.1585,0.0,0.0,0.0,0.0,0.0,0.0,0.0,0.0,0.0,0.0,0.0,0.0,0.0,0.0,0.0,0.0,0.0,0.0,0.0,0.0,0.0,0.0,0.0,0.0,0.0,0.0,0.0,0.0,0.0,0.0,0.0,0.0,0.0,0.0,0.0,0.0,0.0,0.0,0.0,0.0,0.0,0.0,0.0,0.0,0.0,0.0,0.0,0.0,0.0,0.0,0.0,0.0,0.0,0.0,0.0,0.0,0.0,0.0,0.0,0.0,0.0,0.0,0.0,0.0,0.0,0.0,0.0,0.0,0.0,0.0,0.0,0.0,0.0,0.0,0.0,0.0,0.0,0.0,0.0,0.0,0.0,0.0,0.0,0.0,0.0,0.0,0.0,0.0,0.0,0.0,0.0,0.0,0.0,0.0,0.0,0.0,0.0,0.0,0.0,0.0,0.0,0.0,0.0,0.0,0.0,0.0,0.0,0.0,0.0,0.0,0.0,0.0,4.3088,4.1796,4.0092,0.0,0.0,0.0,0.0,0.0,0.0,0.0,0.0,0.0,0.0,0.0,0.0,0.0,0.0,0.0,0.0,0.0,0.0,0.0,0.0,0.0,0.0,0.0,0.0,0.0,0.0,0.0,0.0,0.0,0.0,0.0,0.0,0.0,0.0,0.0,0.0,0.0,0.0,0.0,0.0,0.0,0.0,0.0,0.0,0.0,0.0,0.0,0.0,0.0,0.0,0.0,0.0,0.0,0.0,0.0,0.0,0.0,0.0,0.0,0.0,0.0,0.0,0.0,0.0,0.0,0.0,0.0,0.0,0.0,0.0,0.0,0.0,0.0,0.0,0.0,0.0,0.0,0.0,0.0,0.0,0.0,0.0,0.0,0.0,0.0,0.0,0.0,0.0,0.0,0.0,0.0,0.0,0.0,0.0,0.0,0.0,0.0,0.0,0.0,0.0,0.0,0.0,0.0,0.0,0.0,0.0,0.0,0.0,0.0,0.0,3.7855,4.2075,4.047,3.9805,4.0499,0.0,0.0,0.0,0.0,0.0,0.0,0.0,0.0,0.0,0.0,0.0,0.0,0.0,0.0,0.0,0.0,0.0,0.0,0.0,0.0,0.0,0.0,0.0,0.0,0.0,0.0,0.0,0.0,0.0,0.0,0.0,0.0,0.0,0.0,0.0,0.0,0.0,0.0,0.0,0.0,0.0,0.0,0.0,0.0,0.0,0.0,0.0,0.0,0.0,0.0,0.0,0.0,0.0,0.0,0.0,0.0,0.0,0.0,0.0,0.0,0.0,0.0,0.0,0.0,0.0,0.0,0.0,0.0,0.0,0.0,0.0,0.0,0.0,0.0,0.0,0.0,0.0,0.0,0.0,0.0,0.0,0.0,0.0,0.0,0.0,0.0,0.0,0.0,0.0,0.0,0.0,0.0,0.0,0.0,0.0,0.0,0.0,0.0,0.0,0.0,0.0,0.0,0.0,0.0,0.0,0.0,0.0,0.0,0.0,0.0,0.0,0.0,0.0,0.0,4.037,0.0,0.0,0.0,0.0,0.0,0.0,0.0,0.0,0.0,0.0,0.0,0.0,0.0,0.0,0.0,0.0,0.0,0.0,0.0,0.0,0.0,0.0,0.0,0.0,0.0,0.0,0.0,0.0,0.0,0.0,0.0,0.0,0.0,0.0,0.0,0.0,0.0,0.0,0.0,0.0,0.0,0.0,0.0,0.0,0.0,0.0,0.0,0.0,0.0,0.0,0.0,0.0,0.0,0.0,0.0,0.0,0.0,0.0,0.0,0.0,0.0,0.0,0.0,0.0,0.0,0.0,0.0,0.0,0.0,0.0,0.0,0.0,0.0,0.0,0.0,0.0,0.0,0.0,0.0,0.0,0.0,0.0,0.0,0.0,0.0,0.0,0.0,0.0,0.0,0.0,0.0,0.0,0.0,0.0,0.0,0.0,0.0,0.0,0.0,0.0,0.0,0.0,0.0,0.0,0.0,0.0,0.0,0.0,0.0,0.0,0.0,0.0,0.0,0.0,0.0,0.0,0.0,0.0,0.0,0.0,0.0,0.0,0.0,0.0,0.0,0.0,0.0,0.0,0.0,0.0,0.0,0.0,0.0,0.0,0.0,0.0,0.0,0.0,0.0,0.0,0.0,0.0,0.0,0.0,0.0,0.0,0.0,0.0,0.0,0.0,0.0,0.0,0.0,0.0,0.0,0.0,0.0,0.0,0.0,0.0,0.0,0.0,0.0,0.0,0.0,0.0,0.0,0.0,0.0,0.0,0.0,0.0,0.0,0.0,0.0,0.0,0.0,0.0,0.0,0.0,0.0,0.0,0.0,0.0,0.0,0.0,0.0,0.0,0.0,0.0,0.0,0.0,0.0,0.0,0.0,0.0,0.0,0.0,0.0,0.0,0.0,0.0,0.0,0.0,0.0,0.0,0.0,0.0,0.0,0.0,0.0,0.0,0.0,0.0,0.0,0.0,0.0,0.0,0.0,0.0,0.0,0.0,0.0,0.0,0.0,0.0,0.0,0.0,0.0,0.0,0.0,0.0,0.0,0.0,0.0,0.0,0.0,0.0,0.0,0.0,0.0,0.0,0.0,0.0,0.0,0.0,0.0,0.0,0.0,0.0,0.0,0.0,0.0,0.0,0.0,0.0,0.0,0.0,0.0,0.0,0.0,0.0,0.0,0.0,0.0,0.0,0.0,0.0,0.0,0.0,0.0,0.0,0.0,0.0,0.0,0.0,0.0,0.0,0.0,0.0,0.0,0.0,0.0,0.0,0.0,0.0,0.0,0.0,0.0,0.0,0.0,0.0,0.0,0.0,0.0,0.0,0.0,0.0,0.0,0.0,0.0,0.0,0.0,0.0,0.0,0.0,0.0,0.0,0.0,0.0,0.0,0.0,0.0,0.0,0.0,0.0,0.0,0.0,0.0,0.0,0.0,0.0,0.0,0.0,0.0,0.0,0.0,0.0,0.0,0.0,0.0,0.0,0.0,0.0,0.0,0.0,0.0,0.0,0.0,0.0,0.0,0.0,0.0,0.0,0.0,0.0,0.0,0.0,0.0,0.0,0.0,0.0,0.0,0.0,0.0,0.0,0.0,0.0,0.0,0.0,0.0,0.0,0.0,0.0,0.0,0.0,0.0,0.0,0.0,0.0,0.0,0.0,0.0,0.0,0.0,0.0,0.0,0.0,0.0,0.0,0.0,0.0,0.0,0.0,0.0,0.0,0.0,0.0,0.0,0.0,0.0,0.0,0.0,0.0,0.0,0.0,0.0,0.0,0.0,0.0,0.0,0.0,0.0,0.0,0.0,0.0,0.0,0.0,0.0,0.0,0.0,0.0,0.0,0.0,0.0,0.0,0.0,0.0,0.0,0.0,0.0,0.0,0.0,0.0,0.0,0.0,0.0,0.0,0.0,0.0,0.0,0.0,0.0,0.0,0.0,0.0,0.0,0.0,0.0,0.0,0.0,0.0,0.0,0.0,0.0,0.0,0.0,0.0,0.0,0.0,0.0,0.0,0.0,0.0,0.0,0.0,0.0,0.0,0.0,0.0,0.0,0.0,0.0,0.0,0.0,0.0,0.0,0.0,0.0,0.0,0.0,0.0,0.0,0.0,0.0,0.0,0.0,0.0,0.0,0.0,0.0,0.0,0.0,0.0,0.0,0.0,0.0,0.0,0.0,0.0,0.0,0.0,0.0,0.0,0.0,0.0,0.0,0.0,0.0,0.0,0.0,0.0,0.0,0.0,0.0,0.0,0.0,0.0,0.0,0.0,0.0,0.0,0.0,0.0,0.0,0.0,0.0,0.0,0.0,0.0,0.0,0.0,0.0,0.0,0.0,0.0,0.0,0.0,0.0,0.0,0.0,0.0,0.0,0.0,0.0,0.0,0.0,0.0,0.0,0.0,0.0,0.0,0.0,0.0,0.0,0.0,0.0,0.0,0.0,0.0,0.0,0.0,0.0,0.0,0.0,0.0,0.0,0.0,0.0,0.0,0.0,0.0,0.0,0.0,0.0,0.0,0.0,0.0,0.0,0.0,0.0,0.0,0.0,0.0,0.0,0.0,0.0,0.0,0.0,0.0,0.0,0.0,0.0,0.0,0.0,0.0,0.0,0.0,0.0,0.0,0.0,0.0,0.0,0.0,0.0,0.0,0.0,0.0,0.0,0.0,0.0,0.0,0.0,0.0,0.0,0.0,0.0,0.0,0.0,0.0,0.0,0.0,0.0,0.0,0.0,0.0,0.0,0.0,0.0,0.0,0.0,0.0,0.0,0.0,0.0,0.0,0.0,0.0,0.0,0.0,0.0,0.0,0.0,0.0,0.0,0.0,0.0,0.0,0.0,0.0,0.0,0.0,0.0,0.0,0.0,0.0,0.0,0.0,0.0,0.0,0.0,0.0,0.0,0.0,0.0,0.0,0.0,0.0,0.0,0.0,0.0,0.0,0.0,0.0,0.0,0.0,0.0,0.0,0.0,0.0,0.0,0.0,0.0,0.0,0.0,0.0,0.0,0.0,0.0,0.0,0.0,0.0,0.0,0.0,0.0,0.0,0.0,0.0,0.0,0.0,0.0,0.0,0.0,0.0,0.0,0.0,0.0,0.0,0.0,0.0,0.0,0.0,0.0,0.0,0.0,0.0,0.0,0.0,0.0,0.0,0.0,0.0,0.0,0.0,0.0,0.0,0.0,0.0,0.0,0.0,0.0,0.0,0.0,0.0,0.0,0.0,0.0,0.0,0.0,0.0,0.0,0.0,0.0,0.0,0.0,0.0,0.0,0.0,0.0,0.0,0.0,0.0,0.0,0.0,0.0,0.0,0.0,0.0,0.0,0.0,0.0,0.0,0.0,0.0,0.0,0.0,0.0,0.0,0.0,0.0,0.0,0.0,0.0,0.0,0.0,0.0,0.0,0.0,0.0,0.0,0.0,0.0,0.0,0.0,0.0,0.0,0.0,0.0,0.0,0.0,0.0,0.0,0.0,0.0,0.0,0.0,0.0,0.0,0.0,0.0,0.0,0.0,0.0,0.0,0.0,0.0,0.0,0.0,0.0,0.0,0.0,0.0,0.0,0.0,0.0,0.0,0.0,0.0,0.0,0.0,0.0,0.0,0.0,0.0,0.0,0.0,0.0,0.0,0.0,0.0,0.0,0.0,0.0,0.0,0.0,0.0,0.0,0.0,0.0,0.0,0.0,0.0,0.0,0.0,0.0,0.0,0.0,0.0,0.0,0.0,0.0,0.0,0.0,0.0,0.0,0.0,0.0,0.0,0.0,0.0,0.0,0.0,0.0,0.0,0.0,0.0,0.0,0.0,0.0,0.0,0.0,0.0,0.0,0.0,0.0,0.0,0.0,0.0,0.0,0.0,0.0,0.0,0.0,0.0,0.0,0.0,0.0,0.0,0.0,0.0,0.0,0.0,0.0,0.0,0.0,0.0,0.0,0.0,0.0,0.0,0.0,0.0,0.0,0.0,0.0,0.0,0.0,0.0,0.0,0.0,0.0,0.0,0.0,0.0,0.0,0.0,0.0,0.0,0.0,0.0,0.0,0.0,0.0,0.0,0.0,0.0,0.0,0.0,0.0,0.0,0.0,0.0,0.0,0.0,0.0,0.0,0.0,0.0,0.0,0.0,0.0,0.0,0.0,0.0,0.0,0.0,0.0,0.0,0.0,0.0,0.0,0.0,0.0,0.0,0.0,0.0,0.0,0.0,0.0,0.0,0.0,0.0,0.0,0.0,0.0,0.0,0.0,0.0,0.0,0.0,0.0,0.0,0.0,0.0,0.0,0.0,0.0,0.0,0.0,0.0,0.0,0.0,0.0,0.0,0.0,0.0,0.0,0.0,0.0,0.0,0.0,0.0,0.0,0.0,0.0,0.0,0.0,0.0]}]]]